Wetterdaten: Donnerstag, 09.06.2016
Datum Zeit Temp. A. Feuchte A. Luftdruck Regen Wind Richtung Richtung Sonnenschein ET UV Solar Taupunkt Windchill Windben Empfang
09.06.2016 00:00 15,8 C 81 % 1014,3 hPa 0,0 l/m 2,2 km/h (1 Bft) W-SW 257 0 min 0,000 mm 0,0 UV-I 0 W/m 12,5 C 15,8 C 3,2 km/h (1 Bft) 100,00 %
09.06.2016 00:02 15,8 C 81 % 1014,3 hPa 0,0 l/m 2,3 km/h (1 Bft) W-SW 257 0 min 0,000 mm 0,0 UV-I 0 W/m 12,5 C 15,8 C 3,2 km/h (1 Bft) 95,00 %
09.06.2016 00:03 15,9 C 80 % 1014,3 hPa 0,0 l/m 3,0 km/h (1 Bft) W-SW 257 0 min 0,000 mm 0,0 UV-I 0 W/m 12,5 C 15,9 C 4,8 km/h (1 Bft) 95,65 %
09.06.2016 00:04 15,9 C 80 % 1014,3 hPa 0,0 l/m 2,0 km/h (1 Bft) W-SW 257 0 min 0,000 mm 0,0 UV-I 0 W/m 12,5 C 15,9 C 3,2 km/h (1 Bft) 100,00 %
09.06.2016 00:05 15,9 C 80 % 1014,3 hPa 0,0 l/m 1,8 km/h (1 Bft) W-SW 257 0 min 0,000 mm 0,0 UV-I 0 W/m 12,5 C 15,9 C 3,2 km/h (1 Bft) 96,15 %
09.06.2016 00:06 15,9 C 80 % 1014,3 hPa 0,0 l/m 0,6 km/h (0 Bft) W-SW 257 0 min 0,000 mm 0,0 UV-I 0 W/m 12,5 C 15,9 C 1,6 km/h (1 Bft) 91,67 %
09.06.2016 00:07 15,9 C 81 % 1014,2 hPa 0,0 l/m 0,9 km/h (0 Bft) W-SW 257 0 min 0,000 mm 0,0 UV-I 0 W/m 12,6 C 15,9 C 1,6 km/h (1 Bft) 95,65 %
09.06.2016 00:08 15,9 C 81 % 1014,2 hPa 0,0 l/m 1,0 km/h (0 Bft) W-SW 257 0 min 0,000 mm 0,0 UV-I 0 W/m 12,6 C 15,9 C 3,2 km/h (1 Bft) 91,67 %
09.06.2016 00:09 15,9 C 81 % 1014,2 hPa 0,0 l/m 0,5 km/h (0 Bft) W-SW 257 0 min 0,000 mm 0,0 UV-I 0 W/m 12,6 C 15,9 C 1,6 km/h (1 Bft) 96,43 %
09.06.2016 00:10 15,8 C 81 % 1014,2 hPa 0,0 l/m 1,3 km/h (1 Bft) W-SW 257 0 min 0,000 mm 0,0 UV-I 0 W/m 12,5 C 15,8 C 3,2 km/h (1 Bft) 95,83 %
09.06.2016 00:11 15,8 C 82 % 1014,2 hPa 0,0 l/m 1,4 km/h (1 Bft) W-SW 257 0 min 0,000 mm 0,0 UV-I 0 W/m 12,7 C 15,8 C 3,2 km/h (1 Bft) 100,00 %
09.06.2016 00:12 15,7 C 82 % 1014,3 hPa 0,0 l/m 0,9 km/h (0 Bft) W-SW 257 0 min 0,000 mm 0,0 UV-I 0 W/m 12,6 C 15,7 C 3,2 km/h (1 Bft) 100,00 %
09.06.2016 00:13 15,7 C 83 % 1014,3 hPa 0,0 l/m 0,7 km/h (0 Bft) W-SW 257 0 min 0,000 mm 0,0 UV-I 0 W/m 12,8 C 15,7 C 3,2 km/h (1 Bft) 100,00 %
09.06.2016 00:14 15,6 C 83 % 1014,3 hPa 0,0 l/m 0,9 km/h (0 Bft) W-SW 257 0 min 0,000 mm 0,0 UV-I 0 W/m 12,7 C 15,6 C 1,6 km/h (1 Bft) 95,65 %
09.06.2016 00:15 15,6 C 84 % 1014,3 hPa 0,0 l/m 0,6 km/h (0 Bft) W-SW 257 0 min 0,000 mm 0,0 UV-I 0 W/m 12,9 C 15,6 C 1,6 km/h (1 Bft) 100,00 %
09.06.2016 00:16 15,5 C 84 % 1014,3 hPa 0,0 l/m 0,2 km/h (0 Bft) W-SW 257 0 min 0,000 mm 0,0 UV-I 0 W/m 12,8 C 15,5 C 1,6 km/h (1 Bft) 100,00 %
09.06.2016 00:17 15,4 C 84 % 1014,2 hPa 0,0 l/m 0,1 km/h (0 Bft) W-SW 257 0 min 0,000 mm 0,0 UV-I 0 W/m 12,7 C 15,4 C 1,6 km/h (1 Bft) 95,83 %
09.06.2016 00:18 15,4 C 84 % 1014,2 hPa 0,0 l/m 0,1 km/h (0 Bft) W-SW 257 0 min 0,000 mm 0,0 UV-I 0 W/m 12,7 C 15,4 C 1,6 km/h (1 Bft) 100,00 %
09.06.2016 00:19 15,4 C 84 % 1014,3 hPa 0,0 l/m 0,2 km/h (0 Bft) W-SW 257 0 min 0,000 mm 0,0 UV-I 0 W/m 12,7 C 15,4 C 1,6 km/h (1 Bft) 100,00 %
09.06.2016 00:20 15,4 C 84 % 1014,2 hPa 0,0 l/m 0,4 km/h (0 Bft) W-SW 257 0 min 0,000 mm 0,0 UV-I 0 W/m 12,7 C 15,4 C 1,6 km/h (1 Bft) 96,15 %
09.06.2016 00:21 15,4 C 83 % 1014,2 hPa 0,0 l/m 2,1 km/h (1 Bft) W-SW 257 0 min 0,000 mm 0,0 UV-I 0 W/m 12,5 C 15,4 C 4,8 km/h (1 Bft) 100,00 %
09.06.2016 00:22 15,4 C 84 % 1014,3 hPa 0,0 l/m 1,3 km/h (1 Bft) W-SW 257 0 min 0,000 mm 0,0 UV-I 0 W/m 12,7 C 15,4 C 3,2 km/h (1 Bft) 100,00 %
09.06.2016 00:23 15,4 C 83 % 1014,3 hPa 0,0 l/m 1,5 km/h (1 Bft) W-SW 257 0 min 0,000 mm 0,0 UV-I 0 W/m 12,5 C 15,4 C 3,2 km/h (1 Bft) 100,00 %
09.06.2016 00:24 15,5 C 83 % 1014,3 hPa 0,0 l/m 2,5 km/h (1 Bft) W-SW 257 0 min 0,000 mm 0,0 UV-I 0 W/m 12,6 C 15,5 C 4,8 km/h (1 Bft) 95,65 %
09.06.2016 00:25 15,6 C 83 % 1014,3 hPa 0,0 l/m 2,1 km/h (1 Bft) W-SW 257 0 min 0,000 mm 0,0 UV-I 0 W/m 12,7 C 15,6 C 3,2 km/h (1 Bft) 100,00 %
09.06.2016 00:26 15,6 C 82 % 1014,3 hPa 0,0 l/m 2,5 km/h (1 Bft) W-SW 257 0 min 0,000 mm 0,0 UV-I 0 W/m 12,5 C 15,6 C 3,2 km/h (1 Bft) 96,15 %
09.06.2016 00:27 15,7 C 82 % 1014,3 hPa 0,0 l/m 1,4 km/h (1 Bft) W-SW 257 0 min 0,000 mm 0,0 UV-I 0 W/m 12,6 C 15,7 C 3,2 km/h (1 Bft) 100,00 %
09.06.2016 00:28 15,7 C 82 % 1014,3 hPa 0,0 l/m 0,4 km/h (0 Bft) W-SW 257 0 min 0,000 mm 0,0 UV-I 0 W/m 12,6 C 15,7 C 1,6 km/h (1 Bft) 91,30 %
09.06.2016 00:29 15,7 C 82 % 1014,3 hPa 0,0 l/m 2,3 km/h (1 Bft) W-SW 257 0 min 0,000 mm 0,0 UV-I 0 W/m 12,6 C 15,7 C 3,2 km/h (1 Bft) 100,00 %
09.06.2016 00:30 15,7 C 82 % 1014,3 hPa 0,0 l/m 2,4 km/h (1 Bft) W-SW 257 0 min 0,000 mm 0,0 UV-I 0 W/m 12,6 C 15,7 C 4,8 km/h (1 Bft) 95,65 %
09.06.2016 00:31 15,7 C 82 % 1014,3 hPa 0,0 l/m 4,0 km/h (1 Bft) W-SW 251 0 min 0,000 mm 0,0 UV-I 0 W/m 12,6 C 15,7 C 4,8 km/h (1 Bft) 100,00 %
09.06.2016 00:32 15,7 C 82 % 1014,3 hPa 0,0 l/m 4,4 km/h (1 Bft) SW 227 0 min 0,000 mm 0,0 UV-I 0 W/m 12,6 C 15,7 C 6,4 km/h (2 Bft) 95,65 %
09.06.2016 00:33 15,7 C 82 % 1014,3 hPa 0,0 l/m 5,2 km/h (1 Bft) SW 234 0 min 0,000 mm 0,0 UV-I 0 W/m 12,6 C 15,7 C 6,4 km/h (2 Bft) 100,00 %
09.06.2016 00:34 15,7 C 82 % 1014,3 hPa 0,0 l/m 4,8 km/h (1 Bft) SW 227 0 min 0,000 mm 0,0 UV-I 0 W/m 12,6 C 15,7 C 6,4 km/h (2 Bft) 100,00 %
09.06.2016 00:35 15,7 C 82 % 1014,3 hPa 0,0 l/m 6,2 km/h (2 Bft) SW 214 0 min 0,000 mm 0,0 UV-I 0 W/m 12,6 C 15,7 C 8,0 km/h (2 Bft) 96,15 %
09.06.2016 00:36 15,7 C 82 % 1014,2 hPa 0,0 l/m 4,4 km/h (1 Bft) SW 221 0 min 0,000 mm 0,0 UV-I 0 W/m 12,6 C 15,7 C 6,4 km/h (2 Bft) 100,00 %
09.06.2016 00:37 15,7 C 82 % 1014,2 hPa 0,0 l/m 4,2 km/h (1 Bft) SW 229 0 min 0,000 mm 0,0 UV-I 0 W/m 12,6 C 15,7 C 6,4 km/h (2 Bft) 100,00 %
09.06.2016 00:38 15,7 C 82 % 1014,2 hPa 0,0 l/m 5,6 km/h (1 Bft) SW 231 0 min 0,000 mm 0,0 UV-I 0 W/m 12,6 C 15,7 C 8,0 km/h (2 Bft) 100,00 %
09.06.2016 00:39 15,7 C 82 % 1014,2 hPa 0,0 l/m 5,1 km/h (1 Bft) SW 225 0 min 0,000 mm 0,0 UV-I 0 W/m 12,6 C 15,7 C 8,0 km/h (2 Bft) 95,65 %
09.06.2016 00:40 15,7 C 82 % 1014,2 hPa 0,0 l/m 4,6 km/h (1 Bft) SW 219 0 min 0,000 mm 0,0 UV-I 0 W/m 12,6 C 15,7 C 6,4 km/h (2 Bft) 100,00 %
09.06.2016 00:41 15,7 C 82 % 1014,2 hPa 0,0 l/m 5,7 km/h (1 Bft) SW 235 0 min 0,000 mm 0,0 UV-I 0 W/m 12,6 C 15,7 C 8,0 km/h (2 Bft) 100,00 %
09.06.2016 00:42 15,7 C 82 % 1014,2 hPa 0,0 l/m 8,0 km/h (2 Bft) SW 236 0 min 0,000 mm 0,0 UV-I 0 W/m 12,6 C 14,8 C 9,7 km/h (2 Bft) 100,00 %
09.06.2016 00:43 15,7 C 82 % 1014,2 hPa 0,0 l/m 7,9 km/h (2 Bft) SW 219 0 min 0,000 mm 0,0 UV-I 0 W/m 12,6 C 14,9 C 11,3 km/h (2 Bft) 95,65 %
09.06.2016 00:44 15,7 C 83 % 1014,1 hPa 0,0 l/m 8,0 km/h (2 Bft) SW 221 0 min 0,000 mm 0,0 UV-I 0 W/m 12,8 C 14,8 C 9,7 km/h (2 Bft) 100,00 %
09.06.2016 00:45 15,7 C 83 % 1014,1 hPa 0,0 l/m 7,6 km/h (2 Bft) SW 232 0 min 0,000 mm 0,0 UV-I 0 W/m 12,8 C 15,0 C 9,7 km/h (2 Bft) 95,65 %
09.06.2016 00:46 15,7 C 83 % 1014,1 hPa 0,0 l/m 7,1 km/h (2 Bft) SW 231 0 min 0,000 mm 0,0 UV-I 0 W/m 12,8 C 15,3 C 9,7 km/h (2 Bft) 100,00 %
09.06.2016 00:47 15,7 C 83 % 1014,2 hPa 0,0 l/m 7,6 km/h (2 Bft) SW 228 0 min 0,000 mm 0,0 UV-I 0 W/m 12,8 C 15,0 C 9,7 km/h (2 Bft) 100,00 %
09.06.2016 00:48 15,7 C 83 % 1014,2 hPa 0,0 l/m 7,5 km/h (2 Bft) SW 224 0 min 0,000 mm 0,0 UV-I 0 W/m 12,8 C 15,1 C 11,3 km/h (2 Bft) 100,00 %
09.06.2016 00:49 15,7 C 83 % 1014,1 hPa 0,0 l/m 7,8 km/h (2 Bft) SW 223 0 min 0,000 mm 0,0 UV-I 0 W/m 12,8 C 14,9 C 9,7 km/h (2 Bft) 95,65 %
09.06.2016 00:50 15,7 C 83 % 1014,1 hPa 0,0 l/m 6,9 km/h (2 Bft) SW 221 0 min 0,000 mm 0,0 UV-I 0 W/m 12,8 C 15,4 C 9,7 km/h (2 Bft) 96,30 %
09.06.2016 00:51 15,6 C 83 % 1014,2 hPa 0,0 l/m 6,4 km/h (2 Bft) W-SW 242 0 min 0,000 mm 0,0 UV-I 0 W/m 12,7 C 15,6 C 8,0 km/h (2 Bft) 100,00 %
09.06.2016 00:52 15,6 C 84 % 1014,1 hPa 0,0 l/m 6,2 km/h (2 Bft) SW 226 0 min 0,000 mm 0,0 UV-I 0 W/m 12,9 C 15,6 C 9,7 km/h (2 Bft) 100,00 %
09.06.2016 00:53 15,6 C 84 % 1014,2 hPa 0,0 l/m 6,3 km/h (2 Bft) S-SW 205 0 min 0,000 mm 0,0 UV-I 0 W/m 12,9 C 15,6 C 9,7 km/h (2 Bft) 100,00 %
09.06.2016 00:54 15,6 C 84 % 1014,2 hPa 0,0 l/m 5,8 km/h (2 Bft) S-SW 213 0 min 0,000 mm 0,0 UV-I 0 W/m 12,9 C 15,6 C 8,0 km/h (2 Bft) 100,00 %
09.06.2016 00:55 15,6 C 84 % 1014,2 hPa 0,0 l/m 5,9 km/h (2 Bft) SW 233 0 min 0,000 mm 0,0 UV-I 0 W/m 12,9 C 15,6 C 11,3 km/h (2 Bft) 91,67 %
09.06.2016 00:56 15,6 C 84 % 1014,2 hPa 0,0 l/m 5,6 km/h (1 Bft) SW 232 0 min 0,000 mm 0,0 UV-I 0 W/m 12,9 C 15,6 C 8,0 km/h (2 Bft) 100,00 %
09.06.2016 00:57 15,6 C 84 % 1014,2 hPa 0,0 l/m 6,4 km/h (2 Bft) SW 233 0 min 0,000 mm 0,0 UV-I 0 W/m 12,9 C 15,6 C 8,0 km/h (2 Bft) 100,00 %
09.06.2016 00:58 15,5 C 84 % 1014,2 hPa 0,0 l/m 7,5 km/h (2 Bft) SW 232 0 min 0,000 mm 0,0 UV-I 0 W/m 12,8 C 14,9 C 9,7 km/h (2 Bft) 100,00 %
09.06.2016 00:59 15,5 C 84 % 1014,2 hPa 0,0 l/m 6,7 km/h (2 Bft) SW 218 0 min 0,000 mm 0,0 UV-I 0 W/m 12,8 C 15,3 C 11,3 km/h (2 Bft) 100,00 %
09.06.2016 01:00 15,5 C 84 % 1014,2 hPa 0,0 l/m 8,1 km/h (2 Bft) SW 233 0 min 0,000 mm 0,0 UV-I 0 W/m 12,8 C 14,6 C 12,9 km/h (3 Bft) 95,65 %
09.06.2016 01:01 15,5 C 84 % 1014,1 hPa 0,0 l/m 8,0 km/h (2 Bft) SW 221 0 min 0,000 mm 0,0 UV-I 0 W/m 12,8 C 14,6 C 11,3 km/h (2 Bft) 95,83 %
09.06.2016 01:02 15,5 C 84 % 1014,2 hPa 0,0 l/m 7,9 km/h (2 Bft) S-SW 213 0 min 0,000 mm 0,0 UV-I 0 W/m 12,8 C 14,7 C 9,7 km/h (2 Bft) 100,00 %
09.06.2016 01:03 15,5 C 84 % 1014,1 hPa 0,0 l/m 6,4 km/h (2 Bft) SW 232 0 min 0,000 mm 0,0 UV-I 0 W/m 12,8 C 15,5 C 8,0 km/h (2 Bft) 100,00 %
09.06.2016 01:04 15,5 C 84 % 1014,1 hPa 0,0 l/m 6,4 km/h (2 Bft) W-SW 238 0 min 0,000 mm 0,0 UV-I 0 W/m 12,8 C 15,5 C 9,7 km/h (2 Bft) 91,30 %
09.06.2016 01:05 15,5 C 84 % 1014,1 hPa 0,0 l/m 6,3 km/h (2 Bft) SW 227 0 min 0,000 mm 0,0 UV-I 0 W/m 12,8 C 15,5 C 9,7 km/h (2 Bft) 100,00 %
09.06.2016 01:06 15,5 C 84 % 1014,1 hPa 0,0 l/m 8,4 km/h (2 Bft) W-SW 251 0 min 0,000 mm 0,0 UV-I 0 W/m 12,8 C 14,4 C 12,9 km/h (3 Bft) 100,00 %
09.06.2016 01:07 15,5 C 84 % 1014,1 hPa 0,0 l/m 7,9 km/h (2 Bft) W 261 0 min 0,000 mm 0,0 UV-I 0 W/m 12,8 C 14,7 C 11,3 km/h (2 Bft) 100,00 %
09.06.2016 01:08 15,5 C 84 % 1014,1 hPa 0,0 l/m 9,7 km/h (2 Bft) W 266 0 min 0,000 mm 0,0 UV-I 0 W/m 12,8 C 13,8 C 12,9 km/h (3 Bft) 100,00 %
09.06.2016 01:09 15,5 C 84 % 1014,1 hPa 0,0 l/m 8,9 km/h (2 Bft) W 264 0 min 0,000 mm 0,0 UV-I 0 W/m 12,8 C 14,2 C 12,9 km/h (3 Bft) 95,83 %
09.06.2016 01:10 15,5 C 84 % 1014,0 hPa 0,0 l/m 11,3 km/h (2 Bft) W-SW 254 0 min 0,000 mm 0,0 UV-I 0 W/m 12,8 C 13,1 C 14,5 km/h (3 Bft) 100,00 %
09.06.2016 01:11 15,5 C 84 % 1014,1 hPa 0,0 l/m 8,9 km/h (2 Bft) W-SW 254 0 min 0,000 mm 0,0 UV-I 0 W/m 12,8 C 14,2 C 12,9 km/h (3 Bft) 100,00 %
09.06.2016 01:12 15,5 C 84 % 1014,1 hPa 0,0 l/m 9,4 km/h (2 Bft) W-SW 238 0 min 0,000 mm 0,0 UV-I 0 W/m 12,8 C 13,9 C 11,3 km/h (2 Bft) 100,00 %
09.06.2016 01:13 15,5 C 84 % 1014,0 hPa 0,0 l/m 9,3 km/h (2 Bft) W-SW 258 0 min 0,000 mm 0,0 UV-I 0 W/m 12,8 C 14,0 C 12,9 km/h (3 Bft) 91,67 %
09.06.2016 01:14 15,5 C 84 % 1014,1 hPa 0,0 l/m 10,1 km/h (2 Bft) W-SW 251 0 min 0,000 mm 0,0 UV-I 0 W/m 12,8 C 13,6 C 14,5 km/h (3 Bft) 100,00 %
09.06.2016 01:15 15,5 C 84 % 1014,0 hPa 0,0 l/m 9,1 km/h (2 Bft) W-SW 251 0 min 0,000 mm 0,0 UV-I 0 W/m 12,8 C 14,1 C 12,9 km/h (3 Bft) 100,00 %
09.06.2016 01:16 15,5 C 84 % 1014,1 hPa 0,0 l/m 9,3 km/h (2 Bft) W-SW 250 0 min 0,000 mm 0,0 UV-I 0 W/m 12,8 C 14,0 C 14,5 km/h (3 Bft) 100,00 %
09.06.2016 01:17 15,5 C 84 % 1014,0 hPa 0,0 l/m 10,4 km/h (2 Bft) W-SW 246 0 min 0,000 mm 0,0 UV-I 0 W/m 12,8 C 13,5 C 14,5 km/h (3 Bft) 100,00 %
09.06.2016 01:18 15,5 C 84 % 1014,0 hPa 0,0 l/m 9,5 km/h (2 Bft) W-SW 249 0 min 0,000 mm 0,0 UV-I 0 W/m 12,8 C 13,9 C 14,5 km/h (3 Bft) 100,00 %
09.06.2016 01:19 15,5 C 84 % 1014,0 hPa 0,0 l/m 7,2 km/h (2 Bft) W-SW 250 0 min 0,000 mm 0,0 UV-I 0 W/m 12,8 C 15,1 C 11,3 km/h (2 Bft) 100,00 %
09.06.2016 01:20 15,6 C 84 % 1014,0 hPa 0,0 l/m 10,1 km/h (2 Bft) W-SW 247 0 min 0,000 mm 0,0 UV-I 0 W/m 12,9 C 13,7 C 14,5 km/h (3 Bft) 100,00 %
09.06.2016 01:21 15,6 C 84 % 1014,1 hPa 0,0 l/m 9,2 km/h (2 Bft) W-SW 250 0 min 0,000 mm 0,0 UV-I 0 W/m 12,9 C 14,1 C 12,9 km/h (3 Bft) 100,00 %
09.06.2016 01:22 15,6 C 84 % 1014,1 hPa 0,0 l/m 9,5 km/h (2 Bft) W-SW 252 0 min 0,000 mm 0,0 UV-I 0 W/m 12,9 C 14,0 C 12,9 km/h (3 Bft) 100,00 %
09.06.2016 01:23 15,6 C 84 % 1014,0 hPa 0,0 l/m 9,0 km/h (2 Bft) W-SW 258 0 min 0,000 mm 0,0 UV-I 0 W/m 12,9 C 14,2 C 12,9 km/h (3 Bft) 100,00 %
09.06.2016 01:24 15,5 C 84 % 1014,0 hPa 0,0 l/m 8,6 km/h (2 Bft) W-SW 257 0 min 0,000 mm 0,0 UV-I 0 W/m 12,8 C 14,3 C 12,9 km/h (3 Bft) 100,00 %
09.06.2016 01:25 15,6 C 84 % 1014,0 hPa 0,0 l/m 9,1 km/h (2 Bft) W-SW 246 0 min 0,000 mm 0,0 UV-I 0 W/m 12,9 C 14,2 C 12,9 km/h (3 Bft) 100,00 %
09.06.2016 01:26 15,5 C 85 % 1014,0 hPa 0,0 l/m 8,7 km/h (2 Bft) W-SW 244 0 min 0,000 mm 0,0 UV-I 0 W/m 13,0 C 14,3 C 11,3 km/h (2 Bft) 100,00 %
09.06.2016 01:27 15,5 C 85 % 1014,0 hPa 0,0 l/m 8,3 km/h (2 Bft) W-SW 257 0 min 0,000 mm 0,0 UV-I 0 W/m 13,0 C 14,5 C 11,3 km/h (2 Bft) 100,00 %
09.06.2016 01:28 15,5 C 85 % 1014,0 hPa 0,0 l/m 7,8 km/h (2 Bft) W-SW 238 0 min 0,000 mm 0,0 UV-I 0 W/m 13,0 C 14,7 C 12,9 km/h (3 Bft) 100,00 %
09.06.2016 01:29 15,4 C 85 % 1014,0 hPa 0,0 l/m 8,2 km/h (2 Bft) SW 223 0 min 0,000 mm 0,0 UV-I 0 W/m 12,9 C 14,4 C 12,9 km/h (3 Bft) 100,00 %
09.06.2016 01:30 15,4 C 85 % 1014,0 hPa 0,0 l/m 9,1 km/h (2 Bft) W-SW 258 0 min 0,000 mm 0,0 UV-I 0 W/m 12,9 C 14,0 C 11,3 km/h (2 Bft) 100,00 %
09.06.2016 01:31 15,4 C 85 % 1014,0 hPa 0,0 l/m 7,1 km/h (2 Bft) SW 236 0 min 0,000 mm 0,0 UV-I 0 W/m 12,9 C 15,0 C 11,3 km/h (2 Bft) 96,00 %
09.06.2016 01:32 15,4 C 85 % 1014,0 hPa 0,0 l/m 8,6 km/h (2 Bft) SW 215 0 min 0,000 mm 0,0 UV-I 0 W/m 12,9 C 14,2 C 12,9 km/h (3 Bft) 100,00 %
09.06.2016 01:33 15,4 C 85 % 1014,0 hPa 0,0 l/m 7,4 km/h (2 Bft) SW 216 0 min 0,000 mm 0,0 UV-I 0 W/m 12,9 C 14,8 C 11,3 km/h (2 Bft) 100,00 %
09.06.2016 01:34 15,4 C 85 % 1014,0 hPa 0,0 l/m 9,0 km/h (2 Bft) W-SW 242 0 min 0,000 mm 0,0 UV-I 0 W/m 12,9 C 14,0 C 11,3 km/h (2 Bft) 100,00 %
09.06.2016 01:35 15,4 C 85 % 1014,0 hPa 0,0 l/m 10,9 km/h (2 Bft) SW 218 0 min 0,000 mm 0,0 UV-I 0 W/m 12,9 C 13,2 C 14,5 km/h (3 Bft) 100,00 %
09.06.2016 01:36 15,4 C 85 % 1014,1 hPa 0,0 l/m 10,6 km/h (2 Bft) SW 234 0 min 0,000 mm 0,0 UV-I 0 W/m 12,9 C 13,3 C 14,5 km/h (3 Bft) 91,67 %
09.06.2016 01:37 15,3 C 85 % 1014,0 hPa 0,0 l/m 8,0 km/h (2 Bft) SW 219 0 min 0,000 mm 0,0 UV-I 0 W/m 12,8 C 14,4 C 9,7 km/h (2 Bft) 96,30 %
09.06.2016 01:38 15,3 C 86 % 1014,1 hPa 0,0 l/m 8,9 km/h (2 Bft) SW 231 0 min 0,000 mm 0,0 UV-I 0 W/m 13,0 C 14,0 C 11,3 km/h (2 Bft) 86,96 %
09.06.2016 01:39 15,3 C 86 % 1014,1 hPa 0,0 l/m 9,0 km/h (2 Bft) SW 217 0 min 0,000 mm 0,0 UV-I 0 W/m 13,0 C 13,9 C 14,5 km/h (3 Bft) 100,00 %
09.06.2016 01:40 15,3 C 86 % 1014,1 hPa 0,0 l/m 8,7 km/h (2 Bft) SW 224 0 min 0,000 mm 0,0 UV-I 0 W/m 13,0 C 14,1 C 11,3 km/h (2 Bft) 95,65 %
09.06.2016 01:41 15,3 C 86 % 1014,1 hPa 0,0 l/m 8,4 km/h (2 Bft) SW 236 0 min 0,000 mm 0,0 UV-I 0 W/m 13,0 C 14,2 C 11,3 km/h (2 Bft) 95,83 %
09.06.2016 01:42 15,3 C 86 % 1014,1 hPa 0,0 l/m 8,8 km/h (2 Bft) SW 232 0 min 0,000 mm 0,0 UV-I 0 W/m 13,0 C 14,0 C 12,9 km/h (3 Bft) 100,00 %
09.06.2016 01:43 15,3 C 86 % 1014,1 hPa 0,0 l/m 7,1 km/h (2 Bft) W-SW 239 0 min 0,000 mm 0,0 UV-I 0 W/m 13,0 C 14,9 C 9,7 km/h (2 Bft) 95,83 %
09.06.2016 01:44 15,3 C 86 % 1014,1 hPa 0,0 l/m 7,3 km/h (2 Bft) SW 216 0 min 0,000 mm 0,0 UV-I 0 W/m 13,0 C 14,8 C 12,9 km/h (3 Bft) 100,00 %
09.06.2016 01:45 15,2 C 86 % 1014,1 hPa 0,0 l/m 6,0 km/h (2 Bft) W 263 0 min 0,000 mm 0,0 UV-I 0 W/m 12,9 C 15,2 C 8,0 km/h (2 Bft) 95,83 %
09.06.2016 01:46 15,2 C 87 % 1014,0 hPa 0,0 l/m 6,5 km/h (2 Bft) SW 227 0 min 0,000 mm 0,0 UV-I 0 W/m 13,0 C 15,2 C 9,7 km/h (2 Bft) 100,00 %
09.06.2016 01:47 15,2 C 87 % 1014,1 hPa 0,0 l/m 7,2 km/h (2 Bft) W-SW 237 0 min 0,000 mm 0,0 UV-I 0 W/m 13,0 C 14,8 C 11,3 km/h (2 Bft) 95,83 %
09.06.2016 01:48 15,2 C 87 % 1014,1 hPa 0,0 l/m 7,8 km/h (2 Bft) W-SW 251 0 min 0,000 mm 0,0 UV-I 0 W/m 13,0 C 14,4 C 11,3 km/h (2 Bft) 100,00 %
09.06.2016 01:49 15,2 C 87 % 1014,1 hPa 0,0 l/m 8,7 km/h (2 Bft) SW 228 0 min 0,000 mm 0,0 UV-I 0 W/m 13,0 C 14,0 C 11,3 km/h (2 Bft) 95,83 %
09.06.2016 01:50 15,2 C 87 % 1014,1 hPa 0,0 l/m 5,9 km/h (2 Bft) SW 234 0 min 0,000 mm 0,0 UV-I 0 W/m 13,0 C 15,2 C 8,0 km/h (2 Bft) 95,65 %
09.06.2016 01:51 15,1 C 87 % 1014,0 hPa 0,0 l/m 5,8 km/h (2 Bft) SW 216 0 min 0,000 mm 0,0 UV-I 0 W/m 13,0 C 15,1 C 9,7 km/h (2 Bft) 100,00 %
09.06.2016 01:52 15,1 C 87 % 1014,1 hPa 0,0 l/m 7,0 km/h (2 Bft) W-SW 240 0 min 0,000 mm 0,0 UV-I 0 W/m 13,0 C 14,8 C 11,3 km/h (2 Bft) 95,65 %
09.06.2016 01:53 15,1 C 87 % 1014,0 hPa 0,0 l/m 6,9 km/h (2 Bft) SW 232 0 min 0,000 mm 0,0 UV-I 0 W/m 13,0 C 14,8 C 9,7 km/h (2 Bft) 100,00 %
09.06.2016 01:54 15,1 C 87 % 1014,0 hPa 0,0 l/m 6,7 km/h (2 Bft) W-SW 252 0 min 0,000 mm 0,0 UV-I 0 W/m 13,0 C 14,9 C 11,3 km/h (2 Bft) 95,65 %
09.06.2016 01:55 15,1 C 88 % 1014,1 hPa 0,0 l/m 7,4 km/h (2 Bft) W-SW 242 0 min 0,000 mm 0,0 UV-I 0 W/m 13,1 C 14,5 C 11,3 km/h (2 Bft) 100,00 %
09.06.2016 01:56 15,0 C 88 % 1014,0 hPa 0,0 l/m 5,4 km/h (1 Bft) W-SW 246 0 min 0,000 mm 0,0 UV-I 0 W/m 13,0 C 15,0 C 8,0 km/h (2 Bft) 91,30 %
09.06.2016 01:57 15,0 C 88 % 1014,0 hPa 0,0 l/m 7,7 km/h (2 Bft) W-SW 246 0 min 0,000 mm 0,0 UV-I 0 W/m 13,0 C 14,3 C 12,9 km/h (3 Bft) 95,83 %
09.06.2016 01:58 15,0 C 88 % 1014,0 hPa 0,0 l/m 8,0 km/h (2 Bft) W-SW 258 0 min 0,000 mm 0,0 UV-I 0 W/m 13,0 C 14,1 C 14,5 km/h (3 Bft) 100,00 %
09.06.2016 01:59 15,0 C 88 % 1014,0 hPa 0,0 l/m 8,4 km/h (2 Bft) W-SW 247 0 min 0,000 mm 0,0 UV-I 0 W/m 13,0 C 13,9 C 12,9 km/h (3 Bft) 95,65 %
09.06.2016 02:00 15,0 C 88 % 1014,0 hPa 0,0 l/m 6,4 km/h (2 Bft) W-SW 257 0 min 0,025 mm 0,0 UV-I 0 W/m 13,0 C 15,0 C 8,0 km/h (2 Bft) 95,83 %
09.06.2016 02:01 15,0 C 89 % 1014,1 hPa 0,0 l/m 9,3 km/h (2 Bft) W-SW 248 0 min 0,000 mm 0,0 UV-I 0 W/m 13,2 C 13,4 C 12,9 km/h (3 Bft) 95,65 %
09.06.2016 02:02 15,0 C 89 % 1014,0 hPa 0,0 l/m 9,5 km/h (2 Bft) W 267 0 min 0,000 mm 0,0 UV-I 0 W/m 13,2 C 13,3 C 11,3 km/h (2 Bft) 100,00 %
09.06.2016 02:03 14,9 C 89 % 1014,0 hPa 0,0 l/m 8,2 km/h (2 Bft) W-SW 246 0 min 0,000 mm 0,0 UV-I 0 W/m 13,1 C 13,9 C 12,9 km/h (3 Bft) 91,30 %
09.06.2016 02:04 14,9 C 89 % 1014,0 hPa 0,0 l/m 8,4 km/h (2 Bft) W-SW 246 0 min 0,000 mm 0,0 UV-I 0 W/m 13,1 C 13,8 C 11,3 km/h (2 Bft) 96,30 %
09.06.2016 02:05 14,9 C 89 % 1014,0 hPa 0,0 l/m 8,3 km/h (2 Bft) W-SW 256 0 min 0,000 mm 0,0 UV-I 0 W/m 13,1 C 13,8 C 11,3 km/h (2 Bft) 90,91 %
09.06.2016 02:06 14,9 C 89 % 1014,0 hPa 0,0 l/m 7,4 km/h (2 Bft) W-SW 257 0 min 0,000 mm 0,0 UV-I 0 W/m 13,1 C 14,3 C 11,3 km/h (2 Bft) 96,67 %
09.06.2016 02:07 14,9 C 89 % 1014,0 hPa 0,0 l/m 8,7 km/h (2 Bft) W-SW 257 0 min 0,000 mm 0,0 UV-I 0 W/m 13,1 C 13,6 C 12,9 km/h (3 Bft) 100,00 %
09.06.2016 02:08 14,9 C 89 % 1014,0 hPa 0,0 l/m 8,3 km/h (2 Bft) W-SW 253 0 min 0,000 mm 0,0 UV-I 0 W/m 13,1 C 13,8 C 12,9 km/h (3 Bft) 95,83 %
09.06.2016 02:09 14,9 C 89 % 1014,0 hPa 0,0 l/m 8,5 km/h (2 Bft) W-SW 246 0 min 0,000 mm 0,0 UV-I 0 W/m 13,1 C 13,7 C 12,9 km/h (3 Bft) 100,00 %
09.06.2016 02:10 14,9 C 89 % 1014,0 hPa 0,0 l/m 7,6 km/h (2 Bft) W-SW 239 0 min 0,000 mm 0,0 UV-I 0 W/m 13,1 C 14,2 C 12,9 km/h (3 Bft) 100,00 %
09.06.2016 02:11 14,9 C 89 % 1014,0 hPa 0,0 l/m 6,6 km/h (2 Bft) SW 234 0 min 0,000 mm 0,0 UV-I 0 W/m 13,1 C 14,8 C 9,7 km/h (2 Bft) 100,00 %
09.06.2016 02:12 14,9 C 89 % 1014,0 hPa 0,0 l/m 4,8 km/h (1 Bft) S-SW 204 0 min 0,000 mm 0,0 UV-I 0 W/m 13,1 C 14,9 C 6,4 km/h (2 Bft) 100,00 %
09.06.2016 02:13 14,9 C 89 % 1014,0 hPa 0,0 l/m 5,1 km/h (1 Bft) S-SW 213 0 min 0,000 mm 0,0 UV-I 0 W/m 13,1 C 14,9 C 6,4 km/h (2 Bft) 100,00 %
09.06.2016 02:14 14,9 C 89 % 1013,9 hPa 0,0 l/m 5,2 km/h (1 Bft) SW 217 0 min 0,000 mm 0,0 UV-I 0 W/m 13,1 C 14,9 C 6,4 km/h (2 Bft) 95,83 %
09.06.2016 02:15 14,9 C 89 % 1013,9 hPa 0,0 l/m 6,3 km/h (2 Bft) SW 236 0 min 0,000 mm 0,0 UV-I 0 W/m 13,1 C 14,9 C 8,0 km/h (2 Bft) 100,00 %
09.06.2016 02:16 14,9 C 89 % 1013,9 hPa 0,0 l/m 6,2 km/h (2 Bft) SW 227 0 min 0,000 mm 0,0 UV-I 0 W/m 13,1 C 14,9 C 8,0 km/h (2 Bft) 100,00 %
09.06.2016 02:17 14,9 C 89 % 1013,9 hPa 0,0 l/m 5,8 km/h (2 Bft) SW 225 0 min 0,000 mm 0,0 UV-I 0 W/m 13,1 C 14,9 C 6,4 km/h (2 Bft) 100,00 %
09.06.2016 02:18 14,9 C 89 % 1013,9 hPa 0,0 l/m 5,6 km/h (1 Bft) SW 228 0 min 0,000 mm 0,0 UV-I 0 W/m 13,1 C 14,9 C 8,0 km/h (2 Bft) 100,00 %
09.06.2016 02:19 14,9 C 89 % 1013,9 hPa 0,0 l/m 5,9 km/h (2 Bft) SW 227 0 min 0,000 mm 0,0 UV-I 0 W/m 13,1 C 14,9 C 8,0 km/h (2 Bft) 96,30 %
09.06.2016 02:20 14,9 C 89 % 1013,9 hPa 0,0 l/m 5,0 km/h (1 Bft) W-SW 243 0 min 0,000 mm 0,0 UV-I 0 W/m 13,1 C 14,9 C 8,0 km/h (2 Bft) 100,00 %
09.06.2016 02:21 14,9 C 89 % 1013,9 hPa 0,0 l/m 6,4 km/h (2 Bft) SW 229 0 min 0,000 mm 0,0 UV-I 0 W/m 13,1 C 14,9 C 8,0 km/h (2 Bft) 96,30 %
09.06.2016 02:22 14,9 C 89 % 1013,9 hPa 0,0 l/m 6,4 km/h (2 Bft) SW 229 0 min 0,000 mm 0,0 UV-I 0 W/m 13,1 C 14,9 C 8,0 km/h (2 Bft) 100,00 %
09.06.2016 02:23 14,9 C 90 % 1013,9 hPa 0,0 l/m 8,0 km/h (2 Bft) SW 224 0 min 0,000 mm 0,0 UV-I 0 W/m 13,3 C 14,0 C 9,7 km/h (2 Bft) 95,83 %
09.06.2016 02:24 14,9 C 90 % 1013,9 hPa 0,0 l/m 7,7 km/h (2 Bft) SW 234 0 min 0,000 mm 0,0 UV-I 0 W/m 13,3 C 14,2 C 9,7 km/h (2 Bft) 100,00 %
09.06.2016 02:25 14,9 C 90 % 1013,9 hPa 0,0 l/m 5,8 km/h (2 Bft) SW 224 0 min 0,000 mm 0,0 UV-I 0 W/m 13,3 C 14,9 C 8,0 km/h (2 Bft) 100,00 %
09.06.2016 02:26 14,9 C 90 % 1013,9 hPa 0,0 l/m 6,2 km/h (2 Bft) W-SW 256 0 min 0,000 mm 0,0 UV-I 0 W/m 13,3 C 14,9 C 8,0 km/h (2 Bft) 100,00 %
09.06.2016 02:27 14,9 C 90 % 1013,8 hPa 0,0 l/m 5,7 km/h (1 Bft) W-SW 254 0 min 0,000 mm 0,0 UV-I 0 W/m 13,3 C 14,9 C 8,0 km/h (2 Bft) 100,00 %
09.06.2016 02:28 14,9 C 90 % 1013,8 hPa 0,0 l/m 5,9 km/h (2 Bft) W-SW 251 0 min 0,000 mm 0,0 UV-I 0 W/m 13,3 C 14,9 C 8,0 km/h (2 Bft) 100,00 %
09.06.2016 02:29 14,9 C 90 % 1013,9 hPa 0,0 l/m 6,6 km/h (2 Bft) W-SW 241 0 min 0,000 mm 0,0 UV-I 0 W/m 13,3 C 14,8 C 8,0 km/h (2 Bft) 100,00 %
09.06.2016 02:30 14,9 C 90 % 1013,8 hPa 0,0 l/m 7,1 km/h (2 Bft) SW 227 0 min 0,000 mm 0,0 UV-I 0 W/m 13,3 C 14,5 C 8,0 km/h (2 Bft) 100,00 %
09.06.2016 02:31 14,9 C 90 % 1013,8 hPa 0,0 l/m 6,4 km/h (2 Bft) SW 232 0 min 0,000 mm 0,0 UV-I 0 W/m 13,3 C 14,9 C 8,0 km/h (2 Bft) 95,83 %
09.06.2016 02:32 14,9 C 90 % 1013,8 hPa 0,0 l/m 7,4 km/h (2 Bft) SW 222 0 min 0,000 mm 0,0 UV-I 0 W/m 13,3 C 14,3 C 11,3 km/h (2 Bft) 95,65 %
09.06.2016 02:33 14,9 C 90 % 1013,8 hPa 0,0 l/m 6,4 km/h (2 Bft) W-SW 246 0 min 0,000 mm 0,0 UV-I 0 W/m 13,3 C 14,9 C 8,0 km/h (2 Bft) 100,00 %
09.06.2016 02:34 14,9 C 90 % 1013,8 hPa 0,0 l/m 6,0 km/h (2 Bft) SW 224 0 min 0,000 mm 0,0 UV-I 0 W/m 13,3 C 14,9 C 9,7 km/h (2 Bft) 100,00 %
09.06.2016 02:35 14,9 C 90 % 1013,7 hPa 0,0 l/m 6,6 km/h (2 Bft) SW 220 0 min 0,000 mm 0,0 UV-I 0 W/m 13,3 C 14,8 C 12,9 km/h (3 Bft) 100,00 %
09.06.2016 02:36 14,9 C 90 % 1013,7 hPa 0,0 l/m 6,8 km/h (2 Bft) W-SW 249 0 min 0,000 mm 0,0 UV-I 0 W/m 13,3 C 14,7 C 8,0 km/h (2 Bft) 100,00 %
09.06.2016 02:37 14,9 C 90 % 1013,7 hPa 0,0 l/m 7,7 km/h (2 Bft) SW 234 0 min 0,000 mm 0,0 UV-I 0 W/m 13,3 C 14,2 C 11,3 km/h (2 Bft) 100,00 %
09.06.2016 02:38 14,9 C 90 % 1013,7 hPa 0,0 l/m 8,6 km/h (2 Bft) SW 234 0 min 0,000 mm 0,0 UV-I 0 W/m 13,3 C 13,7 C 11,3 km/h (2 Bft) 100,00 %
09.06.2016 02:39 14,8 C 90 % 1013,7 hPa 0,0 l/m 8,6 km/h (2 Bft) S-SW 196 0 min 0,000 mm 0,0 UV-I 0 W/m 13,2 C 13,6 C 11,3 km/h (2 Bft) 100,00 %
09.06.2016 02:40 14,8 C 90 % 1013,7 hPa 0,0 l/m 9,4 km/h (2 Bft) W-SW 237 0 min 0,000 mm 0,0 UV-I 0 W/m 13,2 C 13,2 C 11,3 km/h (2 Bft) 100,00 %
09.06.2016 02:41 14,8 C 90 % 1013,7 hPa 0,0 l/m 8,6 km/h (2 Bft) S-SW 213 0 min 0,000 mm 0,0 UV-I 0 W/m 13,2 C 13,6 C 12,9 km/h (3 Bft) 100,00 %
09.06.2016 02:42 14,8 C 90 % 1013,7 hPa 0,0 l/m 9,2 km/h (2 Bft) SW 236 0 min 0,000 mm 0,0 UV-I 0 W/m 13,2 C 13,3 C 12,9 km/h (3 Bft) 100,00 %
09.06.2016 02:43 14,8 C 90 % 1013,7 hPa 0,0 l/m 9,6 km/h (2 Bft) S-SW 206 0 min 0,000 mm 0,0 UV-I 0 W/m 13,2 C 13,1 C 12,9 km/h (3 Bft) 100,00 %
09.06.2016 02:44 14,8 C 89 % 1013,7 hPa 0,0 l/m 9,1 km/h (2 Bft) SW 217 0 min 0,000 mm 0,0 UV-I 0 W/m 13,0 C 13,3 C 11,3 km/h (2 Bft) 100,00 %
09.06.2016 02:45 14,8 C 90 % 1013,7 hPa 0,0 l/m 9,3 km/h (2 Bft) SW 218 0 min 0,000 mm 0,0 UV-I 0 W/m 13,2 C 13,2 C 14,5 km/h (3 Bft) 100,00 %
09.06.2016 02:46 14,8 C 89 % 1013,7 hPa 0,0 l/m 8,3 km/h (2 Bft) SW 224 0 min 0,000 mm 0,0 UV-I 0 W/m 13,0 C 13,7 C 11,3 km/h (2 Bft) 100,00 %
09.06.2016 02:47 14,8 C 90 % 1013,7 hPa 0,0 l/m 8,7 km/h (2 Bft) SW 216 0 min 0,000 mm 0,0 UV-I 0 W/m 13,2 C 13,5 C 11,3 km/h (2 Bft) 95,65 %
09.06.2016 02:48 14,8 C 90 % 1013,7 hPa 0,0 l/m 8,4 km/h (2 Bft) SW 229 0 min 0,000 mm 0,0 UV-I 0 W/m 13,2 C 13,7 C 14,5 km/h (3 Bft) 95,83 %
09.06.2016 02:49 14,8 C 89 % 1013,6 hPa 0,0 l/m 9,3 km/h (2 Bft) W-SW 240 0 min 0,000 mm 0,0 UV-I 0 W/m 13,0 C 13,2 C 12,9 km/h (3 Bft) 100,00 %
09.06.2016 02:50 14,8 C 90 % 1013,7 hPa 0,0 l/m 9,3 km/h (2 Bft) SW 217 0 min 0,000 mm 0,0 UV-I 0 W/m 13,2 C 13,2 C 12,9 km/h (3 Bft) 96,30 %
09.06.2016 02:51 14,8 C 90 % 1013,6 hPa 0,0 l/m 9,6 km/h (2 Bft) W-SW 244 0 min 0,000 mm 0,0 UV-I 0 W/m 13,2 C 13,1 C 11,3 km/h (2 Bft) 100,00 %
09.06.2016 02:52 14,8 C 90 % 1013,6 hPa 0,0 l/m 7,5 km/h (2 Bft) SW 227 0 min 0,000 mm 0,0 UV-I 0 W/m 13,2 C 14,2 C 9,7 km/h (2 Bft) 100,00 %
09.06.2016 02:53 14,8 C 89 % 1013,6 hPa 0,0 l/m 7,0 km/h (2 Bft) SW 221 0 min 0,000 mm 0,0 UV-I 0 W/m 13,0 C 14,5 C 9,7 km/h (2 Bft) 100,00 %
09.06.2016 02:54 14,8 C 90 % 1013,6 hPa 0,0 l/m 6,3 km/h (2 Bft) SW 227 0 min 0,000 mm 0,0 UV-I 0 W/m 13,2 C 14,8 C 8,0 km/h (2 Bft) 100,00 %
09.06.2016 02:55 14,8 C 90 % 1013,6 hPa 0,0 l/m 7,3 km/h (2 Bft) SW 221 0 min 0,000 mm 0,0 UV-I 0 W/m 13,2 C 14,3 C 9,7 km/h (2 Bft) 100,00 %
09.06.2016 02:56 14,8 C 90 % 1013,6 hPa 0,0 l/m 8,7 km/h (2 Bft) W-SW 242 0 min 0,000 mm 0,0 UV-I 0 W/m 13,2 C 13,5 C 11,3 km/h (2 Bft) 100,00 %
09.06.2016 02:57 14,7 C 90 % 1013,6 hPa 0,0 l/m 9,9 km/h (2 Bft) SW 225 0 min 0,000 mm 0,0 UV-I 0 W/m 13,1 C 12,8 C 12,9 km/h (3 Bft) 100,00 %
09.06.2016 02:58 14,7 C 90 % 1013,6 hPa 0,0 l/m 7,5 km/h (2 Bft) S-SW 209 0 min 0,000 mm 0,0 UV-I 0 W/m 13,1 C 14,1 C 11,3 km/h (2 Bft) 100,00 %
09.06.2016 02:59 14,8 C 90 % 1013,6 hPa 0,0 l/m 10,1 km/h (2 Bft) S-SW 213 0 min 0,000 mm 0,0 UV-I 0 W/m 13,2 C 12,9 C 14,5 km/h (3 Bft) 100,00 %
09.06.2016 03:00 14,8 C 90 % 1013,6 hPa 0,0 l/m 8,8 km/h (2 Bft) SW 226 0 min 0,000 mm 0,0 UV-I 0 W/m 13,2 C 13,5 C 12,9 km/h (3 Bft) 100,00 %
09.06.2016 03:01 14,7 C 90 % 1013,6 hPa 0,0 l/m 7,4 km/h (2 Bft) SW 229 0 min 0,000 mm 0,0 UV-I 0 W/m 13,1 C 14,1 C 11,3 km/h (2 Bft) 100,00 %
09.06.2016 03:02 14,7 C 90 % 1013,6 hPa 0,0 l/m 6,8 km/h (2 Bft) W 260 0 min 0,000 mm 0,0 UV-I 0 W/m 13,1 C 14,5 C 11,3 km/h (2 Bft) 100,00 %
09.06.2016 03:03 14,7 C 91 % 1013,5 hPa 0,0 l/m 7,3 km/h (2 Bft) SW 222 0 min 0,000 mm 0,0 UV-I 0 W/m 13,2 C 14,2 C 11,3 km/h (2 Bft) 95,83 %
09.06.2016 03:04 14,7 C 90 % 1013,5 hPa 0,0 l/m 8,0 km/h (2 Bft) S-SW 213 0 min 0,000 mm 0,0 UV-I 0 W/m 13,1 C 13,8 C 11,3 km/h (2 Bft) 100,00 %
09.06.2016 03:05 14,7 C 90 % 1013,6 hPa 0,0 l/m 7,3 km/h (2 Bft) SW 236 0 min 0,000 mm 0,0 UV-I 0 W/m 13,1 C 14,2 C 11,3 km/h (2 Bft) 100,00 %
09.06.2016 03:06 14,7 C 90 % 1013,5 hPa 0,0 l/m 8,5 km/h (2 Bft) W 261 0 min 0,000 mm 0,0 UV-I 0 W/m 13,1 C 13,5 C 11,3 km/h (2 Bft) 100,00 %
09.06.2016 03:07 14,7 C 90 % 1013,5 hPa 0,0 l/m 7,5 km/h (2 Bft) W-SW 238 0 min 0,000 mm 0,0 UV-I 0 W/m 13,1 C 14,1 C 11,3 km/h (2 Bft) 100,00 %
09.06.2016 03:08 14,7 C 90 % 1013,5 hPa 0,0 l/m 8,6 km/h (2 Bft) W-SW 252 0 min 0,000 mm 0,0 UV-I 0 W/m 13,1 C 13,5 C 14,5 km/h (3 Bft) 95,65 %
09.06.2016 03:09 14,7 C 90 % 1013,5 hPa 0,0 l/m 7,8 km/h (2 Bft) W-SW 254 0 min 0,000 mm 0,0 UV-I 0 W/m 13,1 C 13,9 C 12,9 km/h (3 Bft) 100,00 %
09.06.2016 03:10 14,7 C 90 % 1013,5 hPa 0,0 l/m 5,9 km/h (2 Bft) SW 236 0 min 0,000 mm 0,0 UV-I 0 W/m 13,1 C 14,7 C 6,4 km/h (2 Bft) 100,00 %
09.06.2016 03:11 14,7 C 90 % 1013,5 hPa 0,0 l/m 5,7 km/h (1 Bft) SW 234 0 min 0,000 mm 0,0 UV-I 0 W/m 13,1 C 14,7 C 9,7 km/h (2 Bft) 100,00 %
09.06.2016 03:12 14,7 C 90 % 1013,5 hPa 0,0 l/m 7,9 km/h (2 Bft) SW 220 0 min 0,000 mm 0,0 UV-I 0 W/m 13,1 C 13,8 C 11,3 km/h (2 Bft) 100,00 %
09.06.2016 03:13 14,7 C 90 % 1013,5 hPa 0,0 l/m 7,7 km/h (2 Bft) SW 226 0 min 0,000 mm 0,0 UV-I 0 W/m 13,1 C 14,0 C 11,3 km/h (2 Bft) 100,00 %
09.06.2016 03:14 14,7 C 90 % 1013,5 hPa 0,0 l/m 9,1 km/h (2 Bft) SW 223 0 min 0,000 mm 0,0 UV-I 0 W/m 13,1 C 13,2 C 12,9 km/h (3 Bft) 95,83 %
09.06.2016 03:15 14,7 C 90 % 1013,5 hPa 0,0 l/m 8,6 km/h (2 Bft) SW 236 0 min 0,000 mm 0,0 UV-I 0 W/m 13,1 C 13,5 C 12,9 km/h (3 Bft) 100,00 %
09.06.2016 03:16 14,6 C 90 % 1013,5 hPa 0,0 l/m 7,2 km/h (2 Bft) SW 234 0 min 0,000 mm 0,0 UV-I 0 W/m 13,0 C 14,1 C 9,7 km/h (2 Bft) 95,65 %
09.06.2016 03:17 14,7 C 91 % 1013,5 hPa 0,0 l/m 7,4 km/h (2 Bft) W-SW 238 0 min 0,000 mm 0,0 UV-I 0 W/m 13,2 C 14,1 C 9,7 km/h (2 Bft) 95,83 %
09.06.2016 03:18 14,7 C 91 % 1013,5 hPa 0,0 l/m 8,0 km/h (2 Bft) W-SW 238 0 min 0,000 mm 0,0 UV-I 0 W/m 13,2 C 13,8 C 12,9 km/h (3 Bft) 95,83 %
09.06.2016 03:19 14,7 C 91 % 1013,5 hPa 0,0 l/m 8,1 km/h (2 Bft) SW 220 0 min 0,000 mm 0,0 UV-I 0 W/m 13,2 C 13,7 C 11,3 km/h (2 Bft) 100,00 %
09.06.2016 03:20 14,7 C 91 % 1013,5 hPa 0,0 l/m 6,8 km/h (2 Bft) SW 222 0 min 0,000 mm 0,0 UV-I 0 W/m 13,2 C 14,5 C 11,3 km/h (2 Bft) 100,00 %
09.06.2016 03:21 14,6 C 91 % 1013,5 hPa 0,0 l/m 9,0 km/h (2 Bft) SW 226 0 min 0,000 mm 0,0 UV-I 0 W/m 13,1 C 13,2 C 11,3 km/h (2 Bft) 90,91 %
09.06.2016 03:22 14,6 C 91 % 1013,4 hPa 0,0 l/m 7,8 km/h (2 Bft) S-SW 213 0 min 0,000 mm 0,0 UV-I 0 W/m 13,1 C 13,8 C 9,7 km/h (2 Bft) 100,00 %
09.06.2016 03:23 14,6 C 91 % 1013,4 hPa 0,0 l/m 8,2 km/h (2 Bft) SW 232 0 min 0,000 mm 0,0 UV-I 0 W/m 13,1 C 13,6 C 12,9 km/h (3 Bft) 100,00 %
09.06.2016 03:24 14,6 C 91 % 1013,4 hPa 0,0 l/m 7,8 km/h (2 Bft) S-SW 213 0 min 0,000 mm 0,0 UV-I 0 W/m 13,1 C 13,8 C 11,3 km/h (2 Bft) 100,00 %
09.06.2016 03:25 14,6 C 91 % 1013,4 hPa 0,0 l/m 8,5 km/h (2 Bft) SW 234 0 min 0,000 mm 0,0 UV-I 0 W/m 13,1 C 13,4 C 12,9 km/h (3 Bft) 96,15 %
09.06.2016 03:26 14,6 C 91 % 1013,4 hPa 0,0 l/m 7,2 km/h (2 Bft) SW 229 0 min 0,000 mm 0,0 UV-I 0 W/m 13,1 C 14,1 C 9,7 km/h (2 Bft) 100,00 %
09.06.2016 03:27 14,6 C 92 % 1013,3 hPa 0,0 l/m 6,9 km/h (2 Bft) SW 217 0 min 0,000 mm 0,0 UV-I 0 W/m 13,3 C 14,3 C 9,7 km/h (2 Bft) 96,15 %
09.06.2016 03:28 14,6 C 92 % 1013,3 hPa 0,0 l/m 7,2 km/h (2 Bft) SW 219 0 min 0,000 mm 0,0 UV-I 0 W/m 13,3 C 14,1 C 11,3 km/h (2 Bft) 100,00 %
09.06.2016 03:29 14,6 C 92 % 1013,3 hPa 0,0 l/m 7,0 km/h (2 Bft) S-SW 209 0 min 0,000 mm 0,0 UV-I 0 W/m 13,3 C 14,3 C 11,3 km/h (2 Bft) 100,00 %
09.06.2016 03:30 14,6 C 92 % 1013,3 hPa 0,0 l/m 8,8 km/h (2 Bft) SW 234 0 min 0,000 mm 0,0 UV-I 0 W/m 13,3 C 13,3 C 14,5 km/h (3 Bft) 100,00 %
09.06.2016 03:31 14,6 C 92 % 1013,3 hPa 0,0 l/m 6,9 km/h (2 Bft) SW 231 0 min 0,000 mm 0,0 UV-I 0 W/m 13,3 C 14,3 C 11,3 km/h (2 Bft) 100,00 %
09.06.2016 03:32 14,6 C 92 % 1013,3 hPa 0,0 l/m 5,2 km/h (1 Bft) SW 221 0 min 0,000 mm 0,0 UV-I 0 W/m 13,3 C 14,6 C 11,3 km/h (2 Bft) 100,00 %
09.06.2016 03:33 14,6 C 92 % 1013,3 hPa 0,0 l/m 7,7 km/h (2 Bft) SW 223 0 min 0,000 mm 0,0 UV-I 0 W/m 13,3 C 13,8 C 12,9 km/h (3 Bft) 100,00 %
09.06.2016 03:34 14,6 C 92 % 1013,3 hPa 0,0 l/m 5,8 km/h (2 Bft) W-SW 238 0 min 0,000 mm 0,0 UV-I 0 W/m 13,3 C 14,6 C 9,7 km/h (2 Bft) 91,30 %
09.06.2016 03:35 14,5 C 92 % 1013,3 hPa 0,0 l/m 6,1 km/h (2 Bft) W-SW 240 0 min 0,000 mm 0,0 UV-I 0 W/m 13,2 C 14,5 C 8,0 km/h (2 Bft) 100,00 %
09.06.2016 03:36 14,5 C 92 % 1013,3 hPa 0,0 l/m 6,1 km/h (2 Bft) W-SW 238 0 min 0,000 mm 0,0 UV-I 0 W/m 13,2 C 14,5 C 9,7 km/h (2 Bft) 100,00 %
09.06.2016 03:37 14,5 C 92 % 1013,3 hPa 0,0 l/m 6,2 km/h (2 Bft) S-SW 202 0 min 0,000 mm 0,0 UV-I 0 W/m 13,2 C 14,5 C 9,7 km/h (2 Bft) 100,00 %
09.06.2016 03:38 14,5 C 92 % 1013,3 hPa 0,0 l/m 6,3 km/h (2 Bft) W-SW 247 0 min 0,000 mm 0,0 UV-I 0 W/m 13,2 C 14,5 C 9,7 km/h (2 Bft) 95,65 %
09.06.2016 03:39 14,5 C 92 % 1013,3 hPa 0,0 l/m 6,2 km/h (2 Bft) SW 224 0 min 0,000 mm 0,0 UV-I 0 W/m 13,2 C 14,5 C 11,3 km/h (2 Bft) 100,00 %
09.06.2016 03:40 14,5 C 92 % 1013,3 hPa 0,0 l/m 8,6 km/h (2 Bft) SW 234 0 min 0,000 mm 0,0 UV-I 0 W/m 13,2 C 13,3 C 12,9 km/h (3 Bft) 91,30 %
09.06.2016 03:41 14,6 C 92 % 1013,2 hPa 0,0 l/m 8,4 km/h (2 Bft) SW 224 0 min 0,000 mm 0,0 UV-I 0 W/m 13,3 C 13,5 C 12,9 km/h (3 Bft) 100,00 %
09.06.2016 03:42 14,5 C 92 % 1013,2 hPa 0,0 l/m 7,4 km/h (2 Bft) S-SW 202 0 min 0,000 mm 0,0 UV-I 0 W/m 13,2 C 13,9 C 11,3 km/h (2 Bft) 95,65 %
09.06.2016 03:43 14,5 C 92 % 1013,2 hPa 0,0 l/m 5,5 km/h (1 Bft) SW 223 0 min 0,000 mm 0,0 UV-I 0 W/m 13,2 C 14,5 C 6,4 km/h (2 Bft) 95,83 %
09.06.2016 03:44 14,5 C 92 % 1013,2 hPa 0,0 l/m 5,9 km/h (2 Bft) W-SW 239 0 min 0,000 mm 0,0 UV-I 0 W/m 13,2 C 14,5 C 8,0 km/h (2 Bft) 100,00 %
09.06.2016 03:45 14,5 C 92 % 1013,2 hPa 0,0 l/m 7,5 km/h (2 Bft) SW 219 0 min 0,000 mm 0,0 UV-I 0 W/m 13,2 C 13,9 C 11,3 km/h (2 Bft) 95,83 %
09.06.2016 03:46 14,5 C 92 % 1013,2 hPa 0,0 l/m 8,7 km/h (2 Bft) SW 226 0 min 0,000 mm 0,0 UV-I 0 W/m 13,2 C 13,2 C 12,9 km/h (3 Bft) 91,30 %
09.06.2016 03:47 14,5 C 92 % 1013,2 hPa 0,0 l/m 7,1 km/h (2 Bft) SW 230 0 min 0,000 mm 0,0 UV-I 0 W/m 13,2 C 14,1 C 9,7 km/h (2 Bft) 95,83 %
09.06.2016 03:48 14,5 C 92 % 1013,2 hPa 0,0 l/m 6,0 km/h (2 Bft) SW 222 0 min 0,000 mm 0,0 UV-I 0 W/m 13,2 C 14,5 C 8,0 km/h (2 Bft) 100,00 %
09.06.2016 03:49 14,5 C 92 % 1013,2 hPa 0,0 l/m 6,2 km/h (2 Bft) SW 227 0 min 0,000 mm 0,0 UV-I 0 W/m 13,2 C 14,5 C 9,7 km/h (2 Bft) 95,83 %
09.06.2016 03:50 14,5 C 92 % 1013,2 hPa 0,0 l/m 6,7 km/h (2 Bft) S-SW 203 0 min 0,000 mm 0,0 UV-I 0 W/m 13,2 C 14,3 C 8,0 km/h (2 Bft) 92,31 %
09.06.2016 03:51 14,5 C 92 % 1013,2 hPa 0,0 l/m 6,6 km/h (2 Bft) SW 219 0 min 0,000 mm 0,0 UV-I 0 W/m 13,2 C 14,4 C 9,7 km/h (2 Bft) 100,00 %
09.06.2016 03:52 14,5 C 93 % 1013,1 hPa 0,0 l/m 5,9 km/h (2 Bft) S-SW 209 0 min 0,000 mm 0,0 UV-I 0 W/m 13,4 C 14,5 C 8,0 km/h (2 Bft) 92,31 %
09.06.2016 03:53 14,5 C 93 % 1013,1 hPa 0,0 l/m 5,6 km/h (1 Bft) SW 235 0 min 0,000 mm 0,0 UV-I 0 W/m 13,4 C 14,5 C 8,0 km/h (2 Bft) 100,00 %
09.06.2016 03:54 14,5 C 93 % 1013,1 hPa 0,0 l/m 5,7 km/h (1 Bft) SW 219 0 min 0,000 mm 0,0 UV-I 0 W/m 13,4 C 14,5 C 9,7 km/h (2 Bft) 96,30 %
09.06.2016 03:55 14,5 C 93 % 1013,1 hPa 0,0 l/m 6,5 km/h (2 Bft) SW 217 0 min 0,000 mm 0,0 UV-I 0 W/m 13,4 C 14,5 C 8,0 km/h (2 Bft) 100,00 %
09.06.2016 03:56 14,5 C 93 % 1013,1 hPa 0,0 l/m 4,7 km/h (1 Bft) SW 227 0 min 0,000 mm 0,0 UV-I 0 W/m 13,4 C 14,5 C 6,4 km/h (2 Bft) 95,83 %
09.06.2016 03:57 14,5 C 93 % 1013,1 hPa 0,0 l/m 6,1 km/h (2 Bft) S 189 0 min 0,000 mm 0,0 UV-I 0 W/m 13,4 C 14,5 C 8,0 km/h (2 Bft) 91,30 %
09.06.2016 03:58 14,5 C 93 % 1013,1 hPa 0,0 l/m 6,2 km/h (2 Bft) SW 223 0 min 0,000 mm 0,0 UV-I 0 W/m 13,4 C 14,5 C 8,0 km/h (2 Bft) 91,67 %
09.06.2016 03:59 14,5 C 93 % 1013,0 hPa 0,0 l/m 5,0 km/h (1 Bft) S-SW 204 0 min 0,000 mm 0,0 UV-I 0 W/m 13,4 C 14,5 C 9,7 km/h (2 Bft) 92,31 %
09.06.2016 04:00 14,5 C 93 % 1013,1 hPa 0,0 l/m 7,0 km/h (2 Bft) S 180 0 min 0,000 mm 0,0 UV-I 0 W/m 13,4 C 14,2 C 8,0 km/h (2 Bft) 100,00 %
09.06.2016 04:01 14,5 C 93 % 1013,1 hPa 0,0 l/m 6,3 km/h (2 Bft) S-SW 196 0 min 0,000 mm 0,0 UV-I 0 W/m 13,4 C 14,5 C 8,0 km/h (2 Bft) 100,00 %
09.06.2016 04:02 14,5 C 93 % 1013,1 hPa 0,0 l/m 6,4 km/h (2 Bft) S-SW 198 0 min 0,000 mm 0,0 UV-I 0 W/m 13,4 C 14,5 C 9,7 km/h (2 Bft) 100,00 %
09.06.2016 04:03 14,5 C 93 % 1013,1 hPa 0,0 l/m 6,0 km/h (2 Bft) S 188 0 min 0,000 mm 0,0 UV-I 0 W/m 13,4 C 14,5 C 8,0 km/h (2 Bft) 86,96 %
09.06.2016 04:04 14,5 C 93 % 1013,0 hPa 0,0 l/m 6,7 km/h (2 Bft) S 185 0 min 0,000 mm 0,0 UV-I 0 W/m 13,4 C 14,3 C 9,7 km/h (2 Bft) 95,83 %
09.06.2016 04:05 14,5 C 93 % 1013,0 hPa 0,0 l/m 6,8 km/h (2 Bft) S 177 0 min 0,000 mm 0,0 UV-I 0 W/m 13,4 C 14,3 C 9,7 km/h (2 Bft) 95,65 %
09.06.2016 04:06 14,5 C 93 % 1013,0 hPa 0,0 l/m 4,2 km/h (1 Bft) S-SW 205 0 min 0,000 mm 0,0 UV-I 0 W/m 13,4 C 14,5 C 6,4 km/h (2 Bft) 100,00 %
09.06.2016 04:07 14,5 C 93 % 1013,0 hPa 0,0 l/m 6,2 km/h (2 Bft) S-SW 197 0 min 0,000 mm 0,0 UV-I 0 W/m 13,4 C 14,5 C 8,0 km/h (2 Bft) 91,30 %
09.06.2016 04:08 14,5 C 93 % 1013,1 hPa 0,0 l/m 4,0 km/h (1 Bft) S-SW 197 0 min 0,000 mm 0,0 UV-I 0 W/m 13,4 C 14,5 C 6,4 km/h (2 Bft) 95,83 %
09.06.2016 04:09 14,5 C 92 % 1013,0 hPa 0,0 l/m 5,0 km/h (1 Bft) S 171 0 min 0,000 mm 0,0 UV-I 0 W/m 13,2 C 14,5 C 6,4 km/h (2 Bft) 100,00 %
09.06.2016 04:10 14,5 C 92 % 1013,0 hPa 0,0 l/m 4,2 km/h (1 Bft) S 190 0 min 0,000 mm 0,0 UV-I 0 W/m 13,2 C 14,5 C 6,4 km/h (2 Bft) 95,83 %
09.06.2016 04:11 14,5 C 92 % 1013,0 hPa 0,0 l/m 4,0 km/h (1 Bft) S 182 0 min 0,000 mm 0,0 UV-I 0 W/m 13,2 C 14,5 C 6,4 km/h (2 Bft) 100,00 %
09.06.2016 04:12 14,5 C 92 % 1013,0 hPa 0,0 l/m 4,9 km/h (1 Bft) S 190 0 min 0,000 mm 0,0 UV-I 0 W/m 13,2 C 14,5 C 8,0 km/h (2 Bft) 95,65 %
09.06.2016 04:13 14,5 C 92 % 1013,0 hPa 0,0 l/m 3,3 km/h (1 Bft) S 183 0 min 0,000 mm 0,0 UV-I 0 W/m 13,2 C 14,5 C 6,4 km/h (2 Bft) 100,00 %
09.06.2016 04:14 14,5 C 92 % 1013,0 hPa 0,0 l/m 6,2 km/h (2 Bft) S 178 0 min 0,000 mm 0,0 UV-I 0 W/m 13,2 C 14,5 C 9,7 km/h (2 Bft) 95,65 %
09.06.2016 04:15 14,5 C 92 % 1013,0 hPa 0,0 l/m 6,0 km/h (2 Bft) S 186 0 min 0,000 mm 0,0 UV-I 0 W/m 13,2 C 14,5 C 8,0 km/h (2 Bft) 100,00 %
09.06.2016 04:16 14,6 C 92 % 1013,0 hPa 0,0 l/m 7,0 km/h (2 Bft) SW 214 0 min 0,000 mm 0,0 UV-I 0 W/m 13,3 C 14,3 C 9,7 km/h (2 Bft) 100,00 %
09.06.2016 04:17 14,5 C 92 % 1013,0 hPa 0,0 l/m 6,3 km/h (2 Bft) SW 214 0 min 0,000 mm 0,0 UV-I 0 W/m 13,2 C 14,5 C 8,0 km/h (2 Bft) 100,00 %
09.06.2016 04:18 14,6 C 92 % 1013,0 hPa 0,0 l/m 7,2 km/h (2 Bft) SW 224 0 min 0,000 mm 0,0 UV-I 0 W/m 13,3 C 14,1 C 11,3 km/h (2 Bft) 100,00 %
09.06.2016 04:19 14,5 C 93 % 1013,0 hPa 0,0 l/m 7,4 km/h (2 Bft) S 172 0 min 0,000 mm 0,0 UV-I 0 W/m 13,4 C 13,9 C 11,3 km/h (2 Bft) 95,83 %
09.06.2016 04:20 14,5 C 92 % 1013,0 hPa 0,0 l/m 7,2 km/h (2 Bft) S-SW 213 0 min 0,000 mm 0,0 UV-I 0 W/m 13,2 C 14,0 C 9,7 km/h (2 Bft) 100,00 %
09.06.2016 04:21 14,5 C 92 % 1013,0 hPa 0,0 l/m 5,6 km/h (1 Bft) SW 221 0 min 0,000 mm 0,0 UV-I 0 W/m 13,2 C 14,5 C 8,0 km/h (2 Bft) 100,00 %
09.06.2016 04:22 14,6 C 92 % 1013,0 hPa 0,0 l/m 6,8 km/h (2 Bft) S 188 0 min 0,000 mm 0,0 UV-I 0 W/m 13,3 C 14,4 C 8,0 km/h (2 Bft) 96,15 %
09.06.2016 04:23 14,5 C 92 % 1013,0 hPa 0,0 l/m 8,4 km/h (2 Bft) S 175 0 min 0,000 mm 0,0 UV-I 0 W/m 13,2 C 13,4 C 11,3 km/h (2 Bft) 100,00 %
09.06.2016 04:24 14,6 C 92 % 1013,0 hPa 0,0 l/m 7,2 km/h (2 Bft) SW 215 0 min 0,000 mm 0,0 UV-I 0 W/m 13,3 C 14,1 C 9,7 km/h (2 Bft) 100,00 %
09.06.2016 04:25 14,6 C 92 % 1013,0 hPa 0,0 l/m 8,9 km/h (2 Bft) S-SW 199 0 min 0,000 mm 0,0 UV-I 0 W/m 13,3 C 13,2 C 11,3 km/h (2 Bft) 100,00 %
09.06.2016 04:26 14,6 C 92 % 1013,0 hPa 0,0 l/m 6,4 km/h (2 Bft) S 188 0 min 0,000 mm 0,0 UV-I 0 W/m 13,3 C 14,6 C 9,7 km/h (2 Bft) 100,00 %
09.06.2016 04:27 14,6 C 92 % 1013,0 hPa 0,0 l/m 7,8 km/h (2 Bft) S-SW 197 0 min 0,000 mm 0,0 UV-I 0 W/m 13,3 C 13,8 C 12,9 km/h (3 Bft) 100,00 %
09.06.2016 04:28 14,6 C 92 % 1013,0 hPa 0,0 l/m 5,8 km/h (2 Bft) SW 218 0 min 0,000 mm 0,0 UV-I 0 W/m 13,3 C 14,6 C 9,7 km/h (2 Bft) 100,00 %
09.06.2016 04:29 14,6 C 92 % 1013,0 hPa 0,0 l/m 6,3 km/h (2 Bft) S-SW 199 0 min 0,000 mm 0,0 UV-I 0 W/m 13,3 C 14,6 C 11,3 km/h (2 Bft) 100,00 %
09.06.2016 04:30 14,6 C 92 % 1013,0 hPa 0,0 l/m 6,6 km/h (2 Bft) S-SW 209 0 min 0,000 mm 0,0 UV-I 0 W/m 13,3 C 14,5 C 9,7 km/h (2 Bft) 100,00 %
09.06.2016 04:31 14,6 C 92 % 1013,0 hPa 0,0 l/m 4,7 km/h (1 Bft) S-SW 203 0 min 0,000 mm 0,0 UV-I 0 W/m 13,3 C 14,6 C 9,7 km/h (2 Bft) 96,43 %
09.06.2016 04:32 14,5 C 92 % 1012,9 hPa 0,0 l/m 6,7 km/h (2 Bft) S-SW 206 0 min 0,000 mm 0,0 UV-I 0 W/m 13,2 C 14,3 C 11,3 km/h (2 Bft) 100,00 %
09.06.2016 04:33 14,5 C 92 % 1012,9 hPa 0,0 l/m 7,4 km/h (2 Bft) S 187 0 min 0,000 mm 0,0 UV-I 0 W/m 13,2 C 13,9 C 9,7 km/h (2 Bft) 86,96 %
09.06.2016 04:34 14,5 C 92 % 1012,9 hPa 0,0 l/m 7,5 km/h (2 Bft) S-SW 206 0 min 0,000 mm 0,0 UV-I 0 W/m 13,2 C 13,9 C 11,3 km/h (2 Bft) 100,00 %
09.06.2016 04:35 14,5 C 92 % 1012,9 hPa 0,0 l/m 8,4 km/h (2 Bft) W-SW 237 0 min 0,000 mm 0,0 UV-I 0 W/m 13,2 C 13,4 C 12,9 km/h (3 Bft) 100,00 %
09.06.2016 04:36 14,5 C 92 % 1012,9 hPa 0,0 l/m 8,4 km/h (2 Bft) SW 217 0 min 0,000 mm 0,0 UV-I 0 W/m 13,2 C 13,4 C 11,3 km/h (2 Bft) 100,00 %
09.06.2016 04:37 14,5 C 92 % 1012,9 hPa 0,0 l/m 7,1 km/h (2 Bft) SW 236 0 min 0,000 mm 0,0 UV-I 0 W/m 13,2 C 14,1 C 12,9 km/h (3 Bft) 100,00 %
09.06.2016 04:38 14,5 C 92 % 1012,9 hPa 0,0 l/m 5,8 km/h (2 Bft) W-SW 242 0 min 0,000 mm 0,0 UV-I 0 W/m 13,2 C 14,5 C 8,0 km/h (2 Bft) 100,00 %
09.06.2016 04:39 14,5 C 92 % 1012,9 hPa 0,0 l/m 6,9 km/h (2 Bft) SW 230 0 min 0,000 mm 0,0 UV-I 0 W/m 13,2 C 14,2 C 11,3 km/h (2 Bft) 100,00 %
09.06.2016 04:40 14,5 C 92 % 1012,9 hPa 0,0 l/m 6,6 km/h (2 Bft) S-SW 213 0 min 0,000 mm 0,0 UV-I 0 W/m 13,2 C 14,4 C 11,3 km/h (2 Bft) 100,00 %
09.06.2016 04:41 14,5 C 92 % 1012,9 hPa 0,0 l/m 7,9 km/h (2 Bft) SW 217 0 min 0,000 mm 0,0 UV-I 0 W/m 13,2 C 13,6 C 12,9 km/h (3 Bft) 95,65 %
09.06.2016 04:42 14,5 C 92 % 1012,9 hPa 0,0 l/m 5,5 km/h (1 Bft) SW 229 0 min 0,000 mm 0,0 UV-I 0 W/m 13,2 C 14,5 C 8,0 km/h (2 Bft) 100,00 %
09.06.2016 04:43 14,4 C 92 % 1012,9 hPa 0,0 l/m 7,5 km/h (2 Bft) SW 230 0 min 0,000 mm 0,0 UV-I 0 W/m 13,1 C 13,8 C 14,5 km/h (3 Bft) 100,00 %
09.06.2016 04:44 14,4 C 92 % 1012,8 hPa 0,0 l/m 5,8 km/h (2 Bft) S-SW 196 0 min 0,000 mm 0,0 UV-I 0 W/m 13,1 C 14,4 C 8,0 km/h (2 Bft) 100,00 %
09.06.2016 04:45 14,4 C 92 % 1012,9 hPa 0,0 l/m 6,9 km/h (2 Bft) S 190 0 min 0,000 mm 0,0 UV-I 0 W/m 13,1 C 14,1 C 8,0 km/h (2 Bft) 100,00 %
09.06.2016 04:46 14,4 C 92 % 1012,8 hPa 0,0 l/m 5,8 km/h (2 Bft) S-SW 196 0 min 0,000 mm 0,0 UV-I 0 W/m 13,1 C 14,4 C 11,3 km/h (2 Bft) 100,00 %
09.06.2016 04:47 14,4 C 92 % 1012,8 hPa 0,0 l/m 7,9 km/h (2 Bft) SW 230 0 min 0,000 mm 0,0 UV-I 0 W/m 13,1 C 13,5 C 11,3 km/h (2 Bft) 100,00 %
09.06.2016 04:48 14,4 C 92 % 1012,8 hPa 0,0 l/m 7,0 km/h (2 Bft) S-SW 213 0 min 0,000 mm 0,0 UV-I 0 W/m 13,1 C 14,1 C 11,3 km/h (2 Bft) 100,00 %
09.06.2016 04:49 14,4 C 92 % 1012,8 hPa 0,0 l/m 7,7 km/h (2 Bft) S-SW 198 0 min 0,000 mm 0,0 UV-I 0 W/m 13,1 C 13,6 C 12,9 km/h (3 Bft) 100,00 %
09.06.2016 04:50 14,4 C 92 % 1012,8 hPa 0,0 l/m 9,3 km/h (2 Bft) SW 218 0 min 0,000 mm 0,0 UV-I 0 W/m 13,1 C 12,8 C 12,9 km/h (3 Bft) 100,00 %
09.06.2016 04:51 14,4 C 92 % 1012,9 hPa 0,0 l/m 9,8 km/h (2 Bft) S-SW 211 0 min 0,000 mm 0,0 UV-I 0 W/m 13,1 C 12,5 C 12,9 km/h (3 Bft) 100,00 %
09.06.2016 04:52 14,4 C 92 % 1012,8 hPa 0,0 l/m 8,8 km/h (2 Bft) SW 225 0 min 0,000 mm 0,0 UV-I 0 W/m 13,1 C 13,0 C 12,9 km/h (3 Bft) 95,65 %
09.06.2016 04:53 14,4 C 92 % 1012,8 hPa 0,0 l/m 8,2 km/h (2 Bft) S-SW 209 0 min 0,000 mm 0,0 UV-I 0 W/m 13,1 C 13,4 C 12,9 km/h (3 Bft) 100,00 %
09.06.2016 04:54 14,4 C 92 % 1012,8 hPa 0,0 l/m 10,1 km/h (2 Bft) SW 218 0 min 0,000 mm 0,0 UV-I 0 W/m 13,1 C 12,4 C 12,9 km/h (3 Bft) 100,00 %
09.06.2016 04:55 14,4 C 92 % 1012,8 hPa 0,0 l/m 7,6 km/h (2 Bft) S-SW 213 0 min 0,000 mm 0,0 UV-I 0 W/m 13,1 C 13,7 C 11,3 km/h (2 Bft) 100,00 %
09.06.2016 04:56 14,4 C 92 % 1012,8 hPa 0,0 l/m 10,3 km/h (2 Bft) SW 220 0 min 0,000 mm 0,0 UV-I 0 W/m 13,1 C 12,3 C 14,5 km/h (3 Bft) 95,65 %
09.06.2016 04:57 14,4 C 92 % 1012,8 hPa 0,0 l/m 8,9 km/h (2 Bft) SW 220 0 min 0,000 mm 0,0 UV-I 0 W/m 13,1 C 13,0 C 12,9 km/h (3 Bft) 100,00 %
09.06.2016 04:58 14,4 C 92 % 1012,8 hPa 0,0 l/m 7,1 km/h (2 Bft) SW 219 0 min 0,000 mm 0,0 UV-I 0 W/m 13,1 C 14,0 C 11,3 km/h (2 Bft) 100,00 %
09.06.2016 04:59 14,4 C 92 % 1012,8 hPa 0,0 l/m 8,4 km/h (2 Bft) S-SW 206 0 min 0,000 mm 0,0 UV-I 0 W/m 13,1 C 13,3 C 11,3 km/h (2 Bft) 100,00 %
09.06.2016 05:00 14,4 C 92 % 1012,8 hPa 0,0 l/m 6,6 km/h (2 Bft) S-SW 207 0 min 0,000 mm 0,0 UV-I 0 W/m 13,1 C 14,3 C 11,3 km/h (2 Bft) 100,00 %
09.06.2016 05:01 14,4 C 92 % 1012,8 hPa 0,0 l/m 9,6 km/h (2 Bft) S-SW 206 0 min 0,000 mm 0,0 UV-I 0 W/m 13,1 C 12,6 C 12,9 km/h (3 Bft) 100,00 %
09.06.2016 05:02 14,4 C 92 % 1012,8 hPa 0,0 l/m 9,1 km/h (2 Bft) S 169 0 min 0,000 mm 0,0 UV-I 0 W/m 13,1 C 12,9 C 14,5 km/h (3 Bft) 91,30 %
09.06.2016 05:03 14,4 C 92 % 1012,8 hPa 0,0 l/m 10,2 km/h (2 Bft) S-SO 150 0 min 0,000 mm 0,0 UV-I 0 W/m 13,1 C 12,4 C 14,5 km/h (3 Bft) 100,00 %
09.06.2016 05:04 14,4 C 92 % 1012,8 hPa 0,0 l/m 6,7 km/h (2 Bft) SW 223 0 min 0,000 mm 0,0 UV-I 0 W/m 13,1 C 14,2 C 11,3 km/h (2 Bft) 100,00 %
09.06.2016 05:05 14,4 C 92 % 1012,9 hPa 0,0 l/m 9,3 km/h (2 Bft) S 182 0 min 0,000 mm 0,0 UV-I 0 W/m 13,1 C 12,8 C 12,9 km/h (3 Bft) 100,00 %
09.06.2016 05:06 14,4 C 92 % 1012,9 hPa 0,0 l/m 8,2 km/h (2 Bft) SW 219 0 min 0,000 mm 0,0 UV-I 0 W/m 13,1 C 13,4 C 12,9 km/h (3 Bft) 100,00 %
09.06.2016 05:07 14,4 C 92 % 1012,9 hPa 0,0 l/m 7,8 km/h (2 Bft) S-SW 197 0 min 0,000 mm 0,0 UV-I 0 W/m 13,1 C 13,6 C 11,3 km/h (2 Bft) 100,00 %
09.06.2016 05:08 14,4 C 92 % 1012,9 hPa 0,0 l/m 8,7 km/h (2 Bft) SW 221 0 min 0,000 mm 0,0 UV-I 0 W/m 13,1 C 13,1 C 16,1 km/h (3 Bft) 95,65 %
09.06.2016 05:09 14,4 C 92 % 1012,8 hPa 0,0 l/m 8,3 km/h (2 Bft) S 188 0 min 0,000 mm 0,0 UV-I 0 W/m 13,1 C 13,3 C 12,9 km/h (3 Bft) 100,00 %
09.06.2016 05:10 14,4 C 92 % 1012,8 hPa 0,0 l/m 11,1 km/h (2 Bft) S-SW 193 0 min 0,000 mm 0,0 UV-I 0 W/m 13,1 C 12,0 C 14,5 km/h (3 Bft) 100,00 %
09.06.2016 05:11 14,4 C 91 % 1012,8 hPa 0,0 l/m 9,3 km/h (2 Bft) S-SW 195 0 min 0,000 mm 0,0 UV-I 0 W/m 12,9 C 12,8 C 12,9 km/h (3 Bft) 95,83 %
09.06.2016 05:12 14,4 C 91 % 1012,8 hPa 0,0 l/m 8,6 km/h (2 Bft) S-SW 207 0 min 0,000 mm 0,0 UV-I 0 W/m 12,9 C 13,1 C 11,3 km/h (2 Bft) 100,00 %
09.06.2016 05:13 14,4 C 91 % 1012,8 hPa 0,0 l/m 9,0 km/h (2 Bft) S-SW 213 0 min 0,000 mm 0,0 UV-I 0 W/m 12,9 C 12,9 C 11,3 km/h (2 Bft) 100,00 %
09.06.2016 05:14 14,4 C 91 % 1012,8 hPa 0,0 l/m 7,6 km/h (2 Bft) S-SW 196 0 min 0,000 mm 0,0 UV-I 0 W/m 12,9 C 13,7 C 9,7 km/h (2 Bft) 100,00 %
09.06.2016 05:15 14,4 C 92 % 1012,8 hPa 0,0 l/m 8,7 km/h (2 Bft) S 190 0 min 0,000 mm 0,0 UV-I 0 W/m 13,1 C 13,1 C 11,3 km/h (2 Bft) 100,00 %
09.06.2016 05:16 14,4 C 92 % 1012,8 hPa 0,0 l/m 8,1 km/h (2 Bft) SW 227 0 min 0,000 mm 0,0 UV-I 0 W/m 13,1 C 13,4 C 14,5 km/h (3 Bft) 100,00 %
09.06.2016 05:17 14,5 C 92 % 1012,8 hPa 0,0 l/m 8,2 km/h (2 Bft) SW 219 0 min 0,000 mm 0,0 UV-I 0 W/m 13,2 C 13,5 C 14,5 km/h (3 Bft) 100,00 %
09.06.2016 05:18 14,4 C 91 % 1012,8 hPa 0,0 l/m 9,5 km/h (2 Bft) S-SW 212 0 min 0,000 mm 0,0 UV-I 2 W/m 12,9 C 12,7 C 14,5 km/h (3 Bft) 100,00 %
09.06.2016 05:19 14,4 C 92 % 1012,9 hPa 0,0 l/m 7,8 km/h (2 Bft) S 191 0 min 0,000 mm 0,0 UV-I 5 W/m 13,1 C 13,6 C 12,9 km/h (3 Bft) 100,00 %
09.06.2016 05:20 14,4 C 91 % 1012,9 hPa 0,0 l/m 6,7 km/h (2 Bft) S 190 0 min 0,000 mm 0,0 UV-I 5 W/m 12,9 C 14,2 C 11,3 km/h (2 Bft) 100,00 %
09.06.2016 05:21 14,4 C 91 % 1012,9 hPa 0,0 l/m 7,9 km/h (2 Bft) S 184 0 min 0,000 mm 0,0 UV-I 5 W/m 12,9 C 13,5 C 11,3 km/h (2 Bft) 100,00 %
09.06.2016 05:22 14,4 C 91 % 1012,9 hPa 0,0 l/m 8,7 km/h (2 Bft) S-SW 202 0 min 0,000 mm 0,0 UV-I 5 W/m 12,9 C 13,1 C 12,9 km/h (3 Bft) 95,83 %
09.06.2016 05:23 14,4 C 92 % 1012,9 hPa 0,0 l/m 8,4 km/h (2 Bft) SW 229 0 min 0,000 mm 0,0 UV-I 5 W/m 13,1 C 13,3 C 12,9 km/h (3 Bft) 100,00 %
09.06.2016 05:24 14,4 C 92 % 1013,0 hPa 0,0 l/m 7,6 km/h (2 Bft) S 169 0 min 0,000 mm 0,0 UV-I 5 W/m 13,1 C 13,7 C 12,9 km/h (3 Bft) 100,00 %
09.06.2016 05:25 14,4 C 92 % 1013,0 hPa 0,0 l/m 7,6 km/h (2 Bft) S-SW 210 0 min 0,000 mm 0,0 UV-I 5 W/m 13,1 C 13,7 C 9,7 km/h (2 Bft) 100,00 %
09.06.2016 05:26 14,5 C 92 % 1013,0 hPa 0,0 l/m 7,5 km/h (2 Bft) SW 220 0 min 0,000 mm 0,0 UV-I 5 W/m 13,2 C 13,9 C 11,3 km/h (2 Bft) 100,00 %
09.06.2016 05:27 14,5 C 92 % 1013,0 hPa 0,0 l/m 8,7 km/h (2 Bft) W-SW 242 0 min 0,000 mm 0,0 UV-I 7 W/m 13,2 C 13,2 C 11,3 km/h (2 Bft) 100,00 %
09.06.2016 05:30 14,5 C 92 % 1013,0 hPa 0,0 l/m 8,0 km/h (2 Bft) SW 225 0 min 0,000 mm 0,0 UV-I 7 W/m 13,2 C 13,6 C 14,5 km/h (3 Bft) 99,12 %
09.06.2016 05:32 14,5 C 92 % 1013,0 hPa 0,0 l/m 9,7 km/h (2 Bft) S-SW 200 0 min 0,000 mm 0,0 UV-I 7 W/m 13,2 C 12,7 C 9,7 km/h (2 Bft) 98,21 %
09.06.2016 05:33 14,5 C 92 % 1013,0 hPa 0,0 l/m 7,8 km/h (2 Bft) SW 225 0 min 0,000 mm 0,0 UV-I 9 W/m 13,2 C 13,7 C 12,9 km/h (3 Bft) 96,77 %
09.06.2016 05:34 14,5 C 92 % 1013,0 hPa 0,0 l/m 6,2 km/h (2 Bft) W-SW 246 0 min 0,000 mm 0,0 UV-I 9 W/m 13,2 C 14,5 C 11,3 km/h (2 Bft) 100,00 %
09.06.2016 05:35 14,5 C 92 % 1013,0 hPa 0,0 l/m 6,5 km/h (2 Bft) S 172 0 min 0,000 mm 0,0 UV-I 11 W/m 13,2 C 14,5 C 9,7 km/h (2 Bft) 100,00 %
09.06.2016 05:36 14,5 C 92 % 1013,0 hPa 0,0 l/m 6,1 km/h (2 Bft) W-SW 248 0 min 0,000 mm 0,0 UV-I 11 W/m 13,2 C 14,5 C 9,7 km/h (2 Bft) 91,67 %
09.06.2016 05:37 14,5 C 92 % 1013,0 hPa 0,0 l/m 7,6 km/h (2 Bft) S-SW 200 0 min 0,000 mm 0,0 UV-I 11 W/m 13,2 C 13,8 C 11,3 km/h (2 Bft) 100,00 %
09.06.2016 05:38 14,5 C 92 % 1013,0 hPa 0,0 l/m 7,9 km/h (2 Bft) S 170 0 min 0,000 mm 0,0 UV-I 12 W/m 13,2 C 13,6 C 11,3 km/h (2 Bft) 95,83 %
09.06.2016 05:39 14,5 C 92 % 1013,0 hPa 0,0 l/m 8,1 km/h (2 Bft) SW 229 0 min 0,000 mm 0,0 UV-I 12 W/m 13,2 C 13,5 C 12,9 km/h (3 Bft) 100,00 %
09.06.2016 05:40 14,5 C 92 % 1013,0 hPa 0,0 l/m 6,3 km/h (2 Bft) SW 234 0 min 0,000 mm 0,0 UV-I 12 W/m 13,2 C 14,5 C 9,7 km/h (2 Bft) 95,83 %
09.06.2016 05:41 14,5 C 92 % 1013,0 hPa 0,0 l/m 9,7 km/h (2 Bft) S-SW 204 0 min 0,000 mm 0,0 UV-I 12 W/m 13,2 C 12,7 C 12,9 km/h (3 Bft) 100,00 %
09.06.2016 05:42 14,5 C 92 % 1013,0 hPa 0,0 l/m 6,2 km/h (2 Bft) W-SW 248 0 min 0,000 mm 0,0 UV-I 13 W/m 13,2 C 14,5 C 9,7 km/h (2 Bft) 95,83 %
09.06.2016 05:43 14,5 C 92 % 1013,0 hPa 0,0 l/m 8,1 km/h (2 Bft) SW 230 0 min 0,000 mm 0,0 UV-I 14 W/m 13,2 C 13,5 C 11,3 km/h (2 Bft) 95,65 %
09.06.2016 05:44 14,5 C 92 % 1013,0 hPa 0,0 l/m 6,9 km/h (2 Bft) W-SW 244 0 min 0,000 mm 0,0 UV-I 14 W/m 13,2 C 14,2 C 9,7 km/h (2 Bft) 100,00 %
09.06.2016 05:45 14,5 C 92 % 1013,0 hPa 0,0 l/m 9,3 km/h (2 Bft) SW 219 0 min 0,000 mm 0,0 UV-I 14 W/m 13,2 C 12,9 C 16,1 km/h (3 Bft) 95,65 %
09.06.2016 05:46 14,5 C 92 % 1013,0 hPa 0,0 l/m 7,4 km/h (2 Bft) S-SW 207 0 min 0,000 mm 0,0 UV-I 14 W/m 13,2 C 13,9 C 11,3 km/h (2 Bft) 95,83 %
09.06.2016 05:47 14,5 C 92 % 1013,0 hPa 0,0 l/m 9,2 km/h (2 Bft) SW 217 0 min 0,000 mm 0,0 UV-I 14 W/m 13,2 C 13,0 C 12,9 km/h (3 Bft) 91,30 %
09.06.2016 05:48 14,5 C 92 % 1013,0 hPa 0,0 l/m 8,1 km/h (2 Bft) SW 225 0 min 0,000 mm 0,0 UV-I 14 W/m 13,2 C 13,5 C 12,9 km/h (3 Bft) 100,00 %
09.06.2016 05:49 14,5 C 92 % 1013,0 hPa 0,0 l/m 6,6 km/h (2 Bft) S 173 0 min 0,000 mm 0,0 UV-I 14 W/m 13,2 C 14,4 C 9,7 km/h (2 Bft) 91,67 %
09.06.2016 05:50 14,5 C 91 % 1013,0 hPa 0,0 l/m 7,4 km/h (2 Bft) SW 234 0 min 0,000 mm 0,0 UV-I 14 W/m 13,0 C 13,9 C 11,3 km/h (2 Bft) 95,65 %
09.06.2016 05:51 14,5 C 92 % 1013,0 hPa 0,0 l/m 7,7 km/h (2 Bft) SW 235 0 min 0,000 mm 0,0 UV-I 16 W/m 13,2 C 13,7 C 11,3 km/h (2 Bft) 95,83 %
09.06.2016 05:52 14,5 C 92 % 1013,0 hPa 0,0 l/m 4,9 km/h (1 Bft) SW 229 0 min 0,000 mm 0,0 UV-I 16 W/m 13,2 C 14,5 C 8,0 km/h (2 Bft) 95,65 %
09.06.2016 05:53 14,5 C 92 % 1013,0 hPa 0,0 l/m 5,8 km/h (2 Bft) SW 223 0 min 0,000 mm 0,0 UV-I 16 W/m 13,2 C 14,5 C 8,0 km/h (2 Bft) 100,00 %
09.06.2016 05:54 14,4 C 92 % 1013,0 hPa 0,0 l/m 8,6 km/h (2 Bft) SW 235 0 min 0,000 mm 0,0 UV-I 16 W/m 13,1 C 13,1 C 11,3 km/h (2 Bft) 95,65 %
09.06.2016 05:55 14,5 C 92 % 1013,0 hPa 0,0 l/m 6,7 km/h (2 Bft) SW 225 0 min 0,000 mm 0,0 UV-I 16 W/m 13,2 C 14,3 C 9,7 km/h (2 Bft) 100,00 %
09.06.2016 05:56 14,4 C 92 % 1013,0 hPa 0,0 l/m 8,4 km/h (2 Bft) SW 221 0 min 0,000 mm 0,0 UV-I 16 W/m 13,1 C 13,3 C 11,3 km/h (2 Bft) 98,36 %
09.06.2016 05:57 14,4 C 92 % 1012,9 hPa 0,0 l/m 8,2 km/h (2 Bft) SW 221 0 min 0,000 mm 0,0 UV-I 16 W/m 13,1 C 13,4 C 11,3 km/h (2 Bft) 97,37 %
09.06.2016 05:58 14,4 C 92 % 1012,9 hPa 0,0 l/m 8,4 km/h (2 Bft) S-SW 207 0 min 0,000 mm 0,0 UV-I 16 W/m 13,1 C 13,3 C 12,9 km/h (3 Bft) 95,65 %
09.06.2016 05:59 14,4 C 92 % 1013,0 hPa 0,0 l/m 7,2 km/h (2 Bft) SW 229 0 min 0,000 mm 0,0 UV-I 16 W/m 13,1 C 13,9 C 11,3 km/h (2 Bft) 100,00 %
09.06.2016 06:00 14,5 C 91 % 1013,0 hPa 0,0 l/m 8,5 km/h (2 Bft) SW 221 0 min 0,026 mm 0,0 UV-I 17 W/m 13,0 C 13,3 C 11,3 km/h (2 Bft) 95,65 %
09.06.2016 06:01 14,4 C 92 % 1013,0 hPa 0,0 l/m 7,6 km/h (2 Bft) SW 229 0 min 0,000 mm 0,0 UV-I 18 W/m 13,1 C 13,7 C 11,3 km/h (2 Bft) 95,83 %
09.06.2016 06:02 14,4 C 92 % 1013,0 hPa 0,0 l/m 8,1 km/h (2 Bft) SW 222 0 min 0,000 mm 0,0 UV-I 18 W/m 13,1 C 13,4 C 11,3 km/h (2 Bft) 100,00 %
09.06.2016 06:03 14,4 C 92 % 1012,9 hPa 0,0 l/m 6,7 km/h (2 Bft) S-SW 213 0 min 0,000 mm 0,0 UV-I 18 W/m 13,1 C 14,2 C 9,7 km/h (2 Bft) 95,83 %
09.06.2016 06:04 14,4 C 92 % 1013,0 hPa 0,0 l/m 7,0 km/h (2 Bft) S-SW 194 0 min 0,000 mm 0,0 UV-I 18 W/m 13,1 C 14,1 C 11,3 km/h (2 Bft) 95,65 %
09.06.2016 06:05 14,4 C 92 % 1013,0 hPa 0,0 l/m 6,2 km/h (2 Bft) S-SW 207 0 min 0,000 mm 0,0 UV-I 18 W/m 13,1 C 14,4 C 11,3 km/h (2 Bft) 95,83 %
09.06.2016 06:06 14,4 C 92 % 1013,0 hPa 0,0 l/m 6,9 km/h (2 Bft) S-SW 205 0 min 0,000 mm 0,0 UV-I 18 W/m 13,1 C 14,1 C 11,3 km/h (2 Bft) 100,00 %
09.06.2016 06:07 14,4 C 92 % 1013,0 hPa 0,0 l/m 7,9 km/h (2 Bft) S-SW 200 0 min 0,000 mm 0,0 UV-I 19 W/m 13,1 C 13,5 C 12,9 km/h (3 Bft) 91,67 %
09.06.2016 06:08 14,4 C 92 % 1013,0 hPa 0,0 l/m 8,6 km/h (2 Bft) S-SW 196 0 min 0,000 mm 0,0 UV-I 19 W/m 13,1 C 13,1 C 12,9 km/h (3 Bft) 100,00 %
09.06.2016 06:09 14,4 C 92 % 1012,9 hPa 0,0 l/m 7,4 km/h (2 Bft) S-SO 163 0 min 0,000 mm 0,0 UV-I 19 W/m 13,1 C 13,8 C 9,7 km/h (2 Bft) 95,83 %
09.06.2016 06:10 14,4 C 92 % 1012,9 hPa 0,0 l/m 7,0 km/h (2 Bft) S-SW 201 0 min 0,000 mm 0,0 UV-I 19 W/m 13,1 C 14,1 C 9,7 km/h (2 Bft) 95,83 %
09.06.2016 06:11 14,4 C 92 % 1013,0 hPa 0,0 l/m 6,8 km/h (2 Bft) S-SW 209 0 min 0,000 mm 0,0 UV-I 19 W/m 13,1 C 14,2 C 9,7 km/h (2 Bft) 100,00 %
09.06.2016 06:12 14,4 C 92 % 1013,0 hPa 0,0 l/m 7,0 km/h (2 Bft) S-SW 204 0 min 0,000 mm 0,0 UV-I 19 W/m 13,1 C 14,1 C 12,9 km/h (3 Bft) 100,00 %
09.06.2016 06:13 14,4 C 91 % 1013,0 hPa 0,0 l/m 6,8 km/h (2 Bft) SW 216 0 min 0,000 mm 0,0 UV-I 19 W/m 12,9 C 14,2 C 9,7 km/h (2 Bft) 100,00 %
09.06.2016 06:14 14,4 C 91 % 1013,0 hPa 0,0 l/m 7,4 km/h (2 Bft) S-SW 204 0 min 0,000 mm 0,0 UV-I 19 W/m 12,9 C 13,8 C 11,3 km/h (2 Bft) 95,83 %
09.06.2016 06:15 14,4 C 91 % 1013,0 hPa 0,0 l/m 7,2 km/h (2 Bft) S-SW 197 0 min 0,000 mm 0,0 UV-I 19 W/m 12,9 C 13,9 C 11,3 km/h (2 Bft) 100,00 %
09.06.2016 06:16 14,4 C 91 % 1013,0 hPa 0,0 l/m 6,6 km/h (2 Bft) S-SW 212 0 min 0,000 mm 0,0 UV-I 21 W/m 12,9 C 14,3 C 9,7 km/h (2 Bft) 95,83 %
09.06.2016 06:17 14,4 C 91 % 1013,0 hPa 0,0 l/m 6,2 km/h (2 Bft) S-SW 209 0 min 0,000 mm 0,0 UV-I 21 W/m 12,9 C 14,4 C 9,7 km/h (2 Bft) 95,65 %
09.06.2016 06:18 14,4 C 91 % 1013,0 hPa 0,0 l/m 6,1 km/h (2 Bft) S-SW 198 0 min 0,000 mm 0,0 UV-I 21 W/m 12,9 C 14,4 C 9,7 km/h (2 Bft) 95,83 %
09.06.2016 06:19 14,4 C 91 % 1013,0 hPa 0,0 l/m 6,3 km/h (2 Bft) SW 223 0 min 0,000 mm 0,0 UV-I 21 W/m 12,9 C 14,4 C 8,0 km/h (2 Bft) 100,00 %
09.06.2016 06:20 14,4 C 91 % 1013,0 hPa 0,0 l/m 8,8 km/h (2 Bft) SW 232 0 min 0,000 mm 0,0 UV-I 21 W/m 12,9 C 13,0 C 14,5 km/h (3 Bft) 95,83 %
09.06.2016 06:21 14,4 C 91 % 1013,0 hPa 0,0 l/m 6,2 km/h (2 Bft) W-SW 243 0 min 0,000 mm 0,0 UV-I 21 W/m 12,9 C 14,4 C 8,0 km/h (2 Bft) 100,00 %
09.06.2016 06:22 14,4 C 91 % 1013,0 hPa 0,0 l/m 6,2 km/h (2 Bft) SW 229 0 min 0,000 mm 0,0 UV-I 23 W/m 12,9 C 14,4 C 9,7 km/h (2 Bft) 100,00 %
09.06.2016 06:23 14,4 C 91 % 1013,0 hPa 0,0 l/m 6,6 km/h (2 Bft) SW 219 0 min 0,000 mm 0,0 UV-I 23 W/m 12,9 C 14,3 C 9,7 km/h (2 Bft) 100,00 %
09.06.2016 06:24 14,4 C 91 % 1013,0 hPa 0,0 l/m 9,0 km/h (2 Bft) SW 221 0 min 0,000 mm 0,0 UV-I 24 W/m 12,9 C 12,9 C 12,9 km/h (3 Bft) 100,00 %
09.06.2016 06:25 14,4 C 91 % 1013,0 hPa 0,0 l/m 7,4 km/h (2 Bft) SW 222 0 min 0,000 mm 0,0 UV-I 25 W/m 12,9 C 13,8 C 11,3 km/h (2 Bft) 100,00 %
09.06.2016 06:26 14,4 C 91 % 1013,0 hPa 0,0 l/m 6,5 km/h (2 Bft) SW 226 0 min 0,000 mm 0,0 UV-I 26 W/m 12,9 C 14,4 C 9,7 km/h (2 Bft) 100,00 %
09.06.2016 06:27 14,5 C 91 % 1013,0 hPa 0,0 l/m 7,7 km/h (2 Bft) SW 219 0 min 0,000 mm 0,0 UV-I 26 W/m 13,0 C 13,7 C 11,3 km/h (2 Bft) 100,00 %
09.06.2016 06:28 14,5 C 91 % 1013,0 hPa 0,0 l/m 9,8 km/h (2 Bft) S 186 0 min 0,000 mm 0,0 UV-I 28 W/m 13,0 C 12,7 C 14,5 km/h (3 Bft) 100,00 %
09.06.2016 06:29 14,5 C 91 % 1013,0 hPa 0,0 l/m 8,5 km/h (2 Bft) W-SW 245 0 min 0,000 mm 0,0 UV-I 28 W/m 13,0 C 13,3 C 11,3 km/h (2 Bft) 100,00 %
09.06.2016 06:30 14,5 C 91 % 1013,0 hPa 0,0 l/m 6,9 km/h (2 Bft) W-SW 243 0 min 0,000 mm 0,0 UV-I 28 W/m 13,0 C 14,2 C 9,7 km/h (2 Bft) 95,65 %
09.06.2016 06:31 14,5 C 91 % 1013,0 hPa 0,0 l/m 8,7 km/h (2 Bft) SW 235 0 min 0,000 mm 0,0 UV-I 28 W/m 13,0 C 13,2 C 12,9 km/h (3 Bft) 100,00 %
09.06.2016 06:32 14,5 C 91 % 1013,0 hPa 0,0 l/m 7,7 km/h (2 Bft) SW 222 0 min 0,000 mm 0,0 UV-I 30 W/m 13,0 C 13,7 C 9,7 km/h (2 Bft) 100,00 %
09.06.2016 06:33 14,5 C 91 % 1013,0 hPa 0,0 l/m 6,4 km/h (2 Bft) SW 217 0 min 0,000 mm 0,0 UV-I 30 W/m 13,0 C 14,5 C 9,7 km/h (2 Bft) 100,00 %
09.06.2016 06:34 14,5 C 91 % 1013,0 hPa 0,0 l/m 7,4 km/h (2 Bft) SW 223 0 min 0,000 mm 0,0 UV-I 30 W/m 13,0 C 13,9 C 9,7 km/h (2 Bft) 100,00 %
09.06.2016 06:35 14,5 C 91 % 1013,0 hPa 0,0 l/m 7,9 km/h (2 Bft) W-SW 242 0 min 0,000 mm 0,0 UV-I 30 W/m 13,0 C 13,6 C 12,9 km/h (3 Bft) 100,00 %
09.06.2016 06:36 14,5 C 92 % 1013,0 hPa 0,0 l/m 8,3 km/h (2 Bft) W-SW 248 0 min 0,000 mm 0,0 UV-I 31 W/m 13,2 C 13,4 C 12,9 km/h (3 Bft) 100,00 %
09.06.2016 06:37 14,5 C 91 % 1013,0 hPa 0,0 l/m 6,5 km/h (2 Bft) SW 230 0 min 0,000 mm 0,0 UV-I 32 W/m 13,0 C 14,5 C 11,3 km/h (2 Bft) 100,00 %
09.06.2016 06:38 14,5 C 91 % 1013,0 hPa 0,0 l/m 8,3 km/h (2 Bft) SW 220 0 min 0,000 mm 0,0 UV-I 33 W/m 13,0 C 13,4 C 11,3 km/h (2 Bft) 100,00 %
09.06.2016 06:39 14,5 C 91 % 1013,0 hPa 0,0 l/m 9,2 km/h (2 Bft) SW 232 0 min 0,000 mm 0,0 UV-I 33 W/m 13,0 C 13,0 C 14,5 km/h (3 Bft) 95,83 %
09.06.2016 06:40 14,5 C 91 % 1013,0 hPa 0,0 l/m 9,5 km/h (2 Bft) SW 236 0 min 0,000 mm 0,0 UV-I 35 W/m 13,0 C 12,8 C 12,9 km/h (3 Bft) 95,65 %
09.06.2016 06:41 14,5 C 91 % 1013,0 hPa 0,0 l/m 8,6 km/h (2 Bft) S-SW 202 0 min 0,000 mm 0,0 UV-I 35 W/m 13,0 C 13,3 C 14,5 km/h (3 Bft) 100,00 %
09.06.2016 06:42 14,5 C 91 % 1013,0 hPa 0,0 l/m 8,0 km/h (2 Bft) SW 227 0 min 0,000 mm 0,0 UV-I 35 W/m 13,0 C 13,6 C 11,3 km/h (2 Bft) 100,00 %
09.06.2016 06:43 14,5 C 91 % 1013,0 hPa 0,0 l/m 5,9 km/h (2 Bft) SW 214 0 min 0,000 mm 0,0 UV-I 35 W/m 13,0 C 14,5 C 8,0 km/h (2 Bft) 100,00 %
09.06.2016 06:44 14,5 C 91 % 1013,0 hPa 0,0 l/m 7,5 km/h (2 Bft) S-SW 196 0 min 0,000 mm 0,0 UV-I 35 W/m 13,0 C 13,9 C 9,7 km/h (2 Bft) 100,00 %
09.06.2016 06:45 14,5 C 91 % 1013,0 hPa 0,0 l/m 6,6 km/h (2 Bft) SW 220 0 min 0,000 mm 0,0 UV-I 35 W/m 13,0 C 14,4 C 9,7 km/h (2 Bft) 100,00 %
09.06.2016 06:46 14,5 C 91 % 1013,0 hPa 0,0 l/m 6,9 km/h (2 Bft) SW 236 0 min 0,000 mm 0,0 UV-I 35 W/m 13,0 C 14,2 C 9,7 km/h (2 Bft) 100,00 %
09.06.2016 06:47 14,6 C 91 % 1012,9 hPa 0,0 l/m 6,2 km/h (2 Bft) W-SW 242 0 min 0,000 mm 0,0 UV-I 35 W/m 13,1 C 14,6 C 8,0 km/h (2 Bft) 100,00 %
09.06.2016 06:48 14,6 C 91 % 1013,0 hPa 0,0 l/m 4,2 km/h (1 Bft) SW 217 0 min 0,000 mm 0,0 UV-I 35 W/m 13,1 C 14,6 C 4,8 km/h (1 Bft) 100,00 %
09.06.2016 06:49 14,5 C 91 % 1013,0 hPa 0,0 l/m 5,5 km/h (1 Bft) S-SW 204 0 min 0,000 mm 0,0 UV-I 35 W/m 13,0 C 14,5 C 8,0 km/h (2 Bft) 100,00 %
09.06.2016 06:50 14,5 C 91 % 1012,9 hPa 0,0 l/m 4,9 km/h (1 Bft) W-SW 242 0 min 0,000 mm 0,0 UV-I 37 W/m 13,0 C 14,5 C 6,4 km/h (2 Bft) 100,00 %
09.06.2016 06:51 14,6 C 91 % 1012,9 hPa 0,0 l/m 6,6 km/h (2 Bft) SW 223 0 min 0,000 mm 0,0 UV-I 37 W/m 13,1 C 14,5 C 11,3 km/h (2 Bft) 95,65 %
09.06.2016 06:52 14,6 C 91 % 1012,9 hPa 0,0 l/m 5,3 km/h (1 Bft) SW 235 0 min 0,000 mm 0,0 UV-I 38 W/m 13,1 C 14,6 C 6,4 km/h (2 Bft) 96,30 %
09.06.2016 06:53 14,6 C 91 % 1012,9 hPa 0,0 l/m 4,3 km/h (1 Bft) SW 233 0 min 0,000 mm 0,0 UV-I 39 W/m 13,1 C 14,6 C 8,0 km/h (2 Bft) 100,00 %
09.06.2016 06:54 14,6 C 91 % 1012,9 hPa 0,0 l/m 5,5 km/h (1 Bft) SW 219 0 min 0,000 mm 0,0 UV-I 39 W/m 13,1 C 14,6 C 9,7 km/h (2 Bft) 100,00 %
09.06.2016 06:55 14,6 C 91 % 1012,9 hPa 0,0 l/m 5,4 km/h (1 Bft) SW 217 0 min 0,000 mm 0,0 UV-I 40 W/m 13,1 C 14,6 C 9,7 km/h (2 Bft) 95,65 %
09.06.2016 06:56 14,6 C 91 % 1012,9 hPa 0,0 l/m 4,4 km/h (1 Bft) SW 235 0 min 0,000 mm 0,0 UV-I 40 W/m 13,1 C 14,6 C 8,0 km/h (2 Bft) 100,00 %
09.06.2016 06:57 14,6 C 91 % 1012,9 hPa 0,0 l/m 5,5 km/h (1 Bft) S 184 0 min 0,000 mm 0,0 UV-I 40 W/m 13,1 C 14,6 C 8,0 km/h (2 Bft) 100,00 %
09.06.2016 06:58 14,6 C 91 % 1012,9 hPa 0,0 l/m 5,2 km/h (1 Bft) SW 232 0 min 0,000 mm 0,0 UV-I 40 W/m 13,1 C 14,6 C 9,7 km/h (2 Bft) 95,83 %
09.06.2016 06:59 14,6 C 91 % 1013,0 hPa 0,0 l/m 8,6 km/h (2 Bft) S-SW 193 0 min 0,000 mm 0,0 UV-I 40 W/m 13,1 C 13,4 C 11,3 km/h (2 Bft) 100,00 %
09.06.2016 07:00 14,6 C 91 % 1013,0 hPa 0,0 l/m 9,2 km/h (2 Bft) W-SW 240 0 min 0,025 mm 0,0 UV-I 40 W/m 13,1 C 13,1 C 12,9 km/h (3 Bft) 100,00 %
09.06.2016 07:01 14,6 C 91 % 1013,0 hPa 0,0 l/m 6,9 km/h (2 Bft) SW 232 0 min 0,000 mm 0,0 UV-I 40 W/m 13,1 C 14,3 C 16,1 km/h (3 Bft) 100,00 %
09.06.2016 07:02 14,6 C 91 % 1013,0 hPa 0,0 l/m 8,8 km/h (2 Bft) S-SW 213 0 min 0,000 mm 0,0 UV-I 40 W/m 13,1 C 13,3 C 14,5 km/h (3 Bft) 95,65 %
09.06.2016 07:03 14,6 C 91 % 1013,0 hPa 0,0 l/m 7,7 km/h (2 Bft) SW 215 0 min 0,000 mm 0,0 UV-I 40 W/m 13,1 C 13,8 C 11,3 km/h (2 Bft) 100,00 %
09.06.2016 07:04 14,6 C 91 % 1013,0 hPa 0,0 l/m 8,3 km/h (2 Bft) W-SW 240 0 min 0,000 mm 0,0 UV-I 42 W/m 13,1 C 13,5 C 12,9 km/h (3 Bft) 95,65 %
09.06.2016 07:05 14,6 C 91 % 1013,0 hPa 0,0 l/m 8,8 km/h (2 Bft) SW 229 0 min 0,000 mm 0,0 UV-I 42 W/m 13,1 C 13,3 C 14,5 km/h (3 Bft) 100,00 %
09.06.2016 07:06 14,6 C 91 % 1013,0 hPa 0,0 l/m 7,9 km/h (2 Bft) SW 216 0 min 0,000 mm 0,0 UV-I 42 W/m 13,1 C 13,7 C 11,3 km/h (2 Bft) 100,00 %
09.06.2016 07:07 14,6 C 91 % 1012,9 hPa 0,0 l/m 6,2 km/h (2 Bft) S-SW 201 0 min 0,000 mm 0,0 UV-I 44 W/m 13,1 C 14,6 C 8,0 km/h (2 Bft) 100,00 %
09.06.2016 07:08 14,6 C 91 % 1012,9 hPa 0,0 l/m 6,3 km/h (2 Bft) S-SW 194 0 min 0,000 mm 0,0 UV-I 44 W/m 13,1 C 14,6 C 9,7 km/h (2 Bft) 95,83 %
09.06.2016 07:09 14,6 C 91 % 1012,9 hPa 0,0 l/m 7,6 km/h (2 Bft) W-SW 255 0 min 0,000 mm 0,0 UV-I 46 W/m 13,1 C 13,9 C 9,7 km/h (2 Bft) 100,00 %
09.06.2016 07:10 14,6 C 91 % 1012,9 hPa 0,0 l/m 5,4 km/h (1 Bft) SW 234 0 min 0,000 mm 0,0 UV-I 46 W/m 13,1 C 14,6 C 9,7 km/h (2 Bft) 100,00 %
09.06.2016 07:11 14,6 C 92 % 1012,9 hPa 0,0 l/m 5,7 km/h (1 Bft) SW 232 0 min 0,000 mm 0,0 UV-I 48 W/m 13,3 C 14,6 C 6,4 km/h (2 Bft) 100,00 %
09.06.2016 07:12 14,6 C 91 % 1012,9 hPa 0,0 l/m 5,2 km/h (1 Bft) W-SW 248 0 min 0,000 mm 0,0 UV-I 49 W/m 13,1 C 14,6 C 6,4 km/h (2 Bft) 100,00 %
09.06.2016 07:13 14,6 C 91 % 1012,9 hPa 0,0 l/m 5,7 km/h (1 Bft) W-SW 244 0 min 0,000 mm 0,0 UV-I 49 W/m 13,1 C 14,6 C 8,0 km/h (2 Bft) 100,00 %
09.06.2016 07:14 14,6 C 91 % 1012,9 hPa 0,0 l/m 6,4 km/h (2 Bft) W-SW 254 0 min 0,000 mm 0,0 UV-I 49 W/m 13,1 C 14,6 C 11,3 km/h (2 Bft) 100,00 %
09.06.2016 07:15 14,6 C 91 % 1012,9 hPa 0,0 l/m 9,4 km/h (2 Bft) W-SW 250 0 min 0,000 mm 0,0 UV-I 49 W/m 13,1 C 13,0 C 12,9 km/h (3 Bft) 100,00 %
09.06.2016 07:16 14,7 C 91 % 1012,9 hPa 0,0 l/m 9,0 km/h (2 Bft) W-SW 256 0 min 0,000 mm 0,0 UV-I 48 W/m 13,2 C 13,3 C 12,9 km/h (3 Bft) 100,00 %
09.06.2016 07:17 14,7 C 91 % 1012,9 hPa 0,0 l/m 8,2 km/h (2 Bft) W-SW 238 0 min 0,000 mm 0,0 UV-I 47 W/m 13,2 C 13,7 C 14,5 km/h (3 Bft) 100,00 %
09.06.2016 07:18 14,7 C 92 % 1012,9 hPa 0,0 l/m 6,8 km/h (2 Bft) W 267 0 min 0,000 mm 0,0 UV-I 47 W/m 13,4 C 14,5 C 9,7 km/h (2 Bft) 100,00 %
09.06.2016 07:19 14,7 C 91 % 1012,9 hPa 0,0 l/m 5,2 km/h (1 Bft) W-SW 245 0 min 0,000 mm 0,0 UV-I 47 W/m 13,2 C 14,7 C 6,4 km/h (2 Bft) 100,00 %
09.06.2016 07:20 14,7 C 91 % 1012,9 hPa 0,0 l/m 5,1 km/h (1 Bft) W-SW 242 0 min 0,000 mm 0,0 UV-I 47 W/m 13,2 C 14,7 C 8,0 km/h (2 Bft) 95,65 %
09.06.2016 07:21 14,7 C 91 % 1012,9 hPa 0,0 l/m 7,5 km/h (2 Bft) W-SW 242 0 min 0,000 mm 0,0 UV-I 46 W/m 13,2 C 14,1 C 11,3 km/h (2 Bft) 96,30 %
09.06.2016 07:22 14,7 C 91 % 1012,9 hPa 0,0 l/m 6,9 km/h (2 Bft) W 267 0 min 0,000 mm 0,0 UV-I 46 W/m 13,2 C 14,4 C 11,3 km/h (2 Bft) 95,65 %
09.06.2016 07:23 14,7 C 91 % 1012,9 hPa 0,0 l/m 7,3 km/h (2 Bft) W-SW 248 0 min 0,000 mm 0,0 UV-I 46 W/m 13,2 C 14,2 C 11,3 km/h (2 Bft) 100,00 %
09.06.2016 07:24 14,7 C 91 % 1012,9 hPa 0,0 l/m 7,4 km/h (2 Bft) W-SW 240 0 min 0,000 mm 0,0 UV-I 46 W/m 13,2 C 14,1 C 11,3 km/h (2 Bft) 91,30 %
09.06.2016 07:25 14,7 C 91 % 1012,9 hPa 0,0 l/m 6,6 km/h (2 Bft) W-SW 239 0 min 0,000 mm 0,0 UV-I 46 W/m 13,2 C 14,6 C 8,0 km/h (2 Bft) 91,67 %
09.06.2016 07:26 14,7 C 91 % 1012,9 hPa 0,0 l/m 6,2 km/h (2 Bft) W-SW 257 0 min 0,000 mm 0,0 UV-I 46 W/m 13,2 C 14,7 C 9,7 km/h (2 Bft) 97,14 %
09.06.2016 07:27 14,7 C 91 % 1012,9 hPa 0,0 l/m 5,7 km/h (1 Bft) W-SW 245 0 min 0,000 mm 0,0 UV-I 46 W/m 13,2 C 14,7 C 6,4 km/h (2 Bft) 100,00 %
09.06.2016 07:28 14,7 C 91 % 1012,9 hPa 0,0 l/m 6,6 km/h (2 Bft) W-SW 251 0 min 0,000 mm 0,0 UV-I 46 W/m 13,2 C 14,6 C 11,3 km/h (2 Bft) 100,00 %
09.06.2016 07:29 14,7 C 92 % 1012,9 hPa 0,0 l/m 7,5 km/h (2 Bft) W-SW 242 0 min 0,000 mm 0,0 UV-I 46 W/m 13,4 C 14,1 C 11,3 km/h (2 Bft) 95,65 %
09.06.2016 07:30 14,7 C 92 % 1012,9 hPa 0,0 l/m 6,1 km/h (2 Bft) W-SW 242 0 min 0,000 mm 0,0 UV-I 46 W/m 13,4 C 14,7 C 8,0 km/h (2 Bft) 100,00 %
09.06.2016 07:31 14,7 C 91 % 1012,8 hPa 0,0 l/m 4,9 km/h (1 Bft) SW 220 0 min 0,000 mm 0,0 UV-I 46 W/m 13,2 C 14,7 C 6,4 km/h (2 Bft) 100,00 %
09.06.2016 07:32 14,7 C 91 % 1012,9 hPa 0,0 l/m 5,4 km/h (1 Bft) W-SW 248 0 min 0,000 mm 0,0 UV-I 47 W/m 13,2 C 14,7 C 12,9 km/h (3 Bft) 100,00 %
09.06.2016 07:33 14,7 C 92 % 1012,9 hPa 0,0 l/m 7,8 km/h (2 Bft) W-SW 244 0 min 0,000 mm 0,0 UV-I 47 W/m 13,4 C 13,9 C 12,9 km/h (3 Bft) 91,30 %
09.06.2016 07:34 14,7 C 92 % 1012,9 hPa 0,0 l/m 5,7 km/h (1 Bft) W-SW 239 0 min 0,000 mm 0,0 UV-I 47 W/m 13,4 C 14,7 C 8,0 km/h (2 Bft) 100,00 %
09.06.2016 07:35 14,7 C 92 % 1012,9 hPa 0,0 l/m 6,4 km/h (2 Bft) W-SW 249 0 min 0,000 mm 0,0 UV-I 47 W/m 13,4 C 14,7 C 8,0 km/h (2 Bft) 95,65 %
09.06.2016 07:36 14,7 C 92 % 1012,9 hPa 0,0 l/m 7,9 km/h (2 Bft) W 277 0 min 0,000 mm 0,0 UV-I 47 W/m 13,4 C 13,8 C 11,3 km/h (2 Bft) 95,83 %
09.06.2016 07:37 14,7 C 92 % 1012,8 hPa 0,0 l/m 5,8 km/h (2 Bft) W-SW 258 0 min 0,000 mm 0,0 UV-I 47 W/m 13,4 C 14,7 C 9,7 km/h (2 Bft) 100,00 %
09.06.2016 07:38 14,7 C 92 % 1012,9 hPa 0,0 l/m 7,3 km/h (2 Bft) W-SW 243 0 min 0,000 mm 0,0 UV-I 47 W/m 13,4 C 14,2 C 11,3 km/h (2 Bft) 95,83 %
09.06.2016 07:39 14,7 C 92 % 1012,9 hPa 0,0 l/m 6,4 km/h (2 Bft) W 275 0 min 0,000 mm 0,0 UV-I 47 W/m 13,4 C 14,7 C 11,3 km/h (2 Bft) 100,00 %
09.06.2016 07:40 14,7 C 92 % 1012,9 hPa 0,0 l/m 8,8 km/h (2 Bft) W-SW 253 0 min 0,000 mm 0,0 UV-I 46 W/m 13,4 C 13,4 C 12,9 km/h (3 Bft) 95,83 %
09.06.2016 07:41 14,7 C 92 % 1012,9 hPa 0,0 l/m 11,2 km/h (2 Bft) SW 225 0 min 0,000 mm 0,0 UV-I 46 W/m 13,4 C 12,3 C 14,5 km/h (3 Bft) 100,00 %
09.06.2016 07:42 14,7 C 92 % 1012,9 hPa 0,0 l/m 8,8 km/h (2 Bft) SW 230 0 min 0,000 mm 0,0 UV-I 46 W/m 13,4 C 13,4 C 14,5 km/h (3 Bft) 95,83 %
09.06.2016 07:43 14,7 C 92 % 1012,9 hPa 0,0 l/m 8,3 km/h (2 Bft) SW 227 0 min 0,000 mm 0,0 UV-I 46 W/m 13,4 C 13,6 C 12,9 km/h (3 Bft) 95,65 %
09.06.2016 07:44 14,7 C 92 % 1012,9 hPa 0,0 l/m 8,0 km/h (2 Bft) W-SW 240 0 min 0,000 mm 0,0 UV-I 45 W/m 13,4 C 13,8 C 11,3 km/h (2 Bft) 95,83 %
09.06.2016 07:45 14,7 C 92 % 1012,9 hPa 0,0 l/m 7,9 km/h (2 Bft) W-SW 240 0 min 0,000 mm 0,0 UV-I 44 W/m 13,4 C 13,8 C 11,3 km/h (2 Bft) 95,65 %
09.06.2016 07:46 14,7 C 92 % 1012,9 hPa 0,0 l/m 6,5 km/h (2 Bft) SW 227 0 min 0,000 mm 0,0 UV-I 44 W/m 13,4 C 14,7 C 9,7 km/h (2 Bft) 100,00 %
09.06.2016 07:47 14,7 C 92 % 1012,9 hPa 0,0 l/m 5,9 km/h (2 Bft) W-SW 256 0 min 0,000 mm 0,0 UV-I 44 W/m 13,4 C 14,7 C 8,0 km/h (2 Bft) 91,67 %
09.06.2016 07:48 14,7 C 93 % 1012,8 hPa 0,0 l/m 9,7 km/h (2 Bft) W-SW 247 0 min 0,000 mm 0,0 UV-I 44 W/m 13,6 C 12,9 C 16,1 km/h (3 Bft) 100,00 %
09.06.2016 07:49 14,7 C 93 % 1012,8 hPa 0,0 l/m 6,3 km/h (2 Bft) W-SW 250 0 min 0,000 mm 0,0 UV-I 46 W/m 13,6 C 14,7 C 9,7 km/h (2 Bft) 95,83 %
09.06.2016 07:50 14,7 C 92 % 1012,8 hPa 0,0 l/m 7,3 km/h (2 Bft) W-SW 238 0 min 0,000 mm 0,0 UV-I 46 W/m 13,4 C 14,2 C 9,7 km/h (2 Bft) 100,00 %
09.06.2016 07:51 14,7 C 92 % 1012,9 hPa 0,0 l/m 7,0 km/h (2 Bft) SW 221 0 min 0,000 mm 0,0 UV-I 46 W/m 13,4 C 14,4 C 11,3 km/h (2 Bft) 96,30 %
09.06.2016 07:52 14,7 C 93 % 1012,9 hPa 0,0 l/m 8,9 km/h (2 Bft) W-SW 244 0 min 0,000 mm 0,0 UV-I 46 W/m 13,6 C 13,3 C 12,9 km/h (3 Bft) 95,65 %
09.06.2016 07:53 14,7 C 93 % 1012,9 hPa 0,0 l/m 9,5 km/h (2 Bft) W-SW 252 0 min 0,000 mm 0,0 UV-I 47 W/m 13,6 C 13,0 C 12,9 km/h (3 Bft) 100,00 %
09.06.2016 07:54 14,7 C 93 % 1012,9 hPa 0,0 l/m 5,5 km/h (1 Bft) W-SW 252 0 min 0,000 mm 0,0 UV-I 47 W/m 13,6 C 14,7 C 8,0 km/h (2 Bft) 95,65 %
09.06.2016 07:55 14,7 C 93 % 1012,9 hPa 0,0 l/m 7,2 km/h (2 Bft) SW 230 0 min 0,000 mm 0,0 UV-I 47 W/m 13,6 C 14,2 C 11,3 km/h (2 Bft) 100,00 %
09.06.2016 07:56 14,7 C 93 % 1012,9 hPa 0,0 l/m 7,0 km/h (2 Bft) W-SW 243 0 min 0,000 mm 0,0 UV-I 49 W/m 13,6 C 14,4 C 11,3 km/h (2 Bft) 95,65 %
09.06.2016 07:57 14,7 C 93 % 1012,9 hPa 0,0 l/m 9,3 km/h (2 Bft) SW 230 0 min 0,000 mm 0,0 UV-I 49 W/m 13,6 C 13,1 C 12,9 km/h (3 Bft) 100,00 %
09.06.2016 07:58 14,7 C 93 % 1012,9 hPa 0,0 l/m 6,3 km/h (2 Bft) W-SW 246 0 min 0,000 mm 0,0 UV-I 50 W/m 13,6 C 14,7 C 9,7 km/h (2 Bft) 95,65 %
09.06.2016 07:59 14,6 C 93 % 1012,9 hPa 0,0 l/m 5,4 km/h (1 Bft) SW 232 0 min 0,000 mm 0,0 UV-I 51 W/m 13,5 C 14,6 C 9,7 km/h (2 Bft) 95,83 %
09.06.2016 08:00 14,6 C 93 % 1012,9 hPa 0,0 l/m 9,0 km/h (2 Bft) SW 234 0 min 0,026 mm 0,0 UV-I 53 W/m 13,5 C 13,2 C 12,9 km/h (3 Bft) 100,00 %
09.06.2016 08:01 14,6 C 93 % 1012,9 hPa 0,0 l/m 9,4 km/h (2 Bft) W-NW 283 0 min 0,000 mm 0,0 UV-I 53 W/m 13,5 C 13,0 C 14,5 km/h (3 Bft) 95,83 %
09.06.2016 08:02 14,6 C 93 % 1012,9 hPa 0,0 l/m 8,4 km/h (2 Bft) W-SW 254 0 min 0,000 mm 0,0 UV-I 53 W/m 13,5 C 13,5 C 11,3 km/h (2 Bft) 95,65 %
09.06.2016 08:03 14,6 C 93 % 1012,9 hPa 0,0 l/m 9,4 km/h (2 Bft) W-SW 242 0 min 0,000 mm 0,0 UV-I 54 W/m 13,5 C 13,0 C 14,5 km/h (3 Bft) 100,00 %
09.06.2016 08:04 14,6 C 93 % 1012,9 hPa 0,0 l/m 10,0 km/h (2 Bft) SW 236 0 min 0,000 mm 0,0 UV-I 54 W/m 13,5 C 12,7 C 12,9 km/h (3 Bft) 95,83 %
09.06.2016 08:05 14,6 C 93 % 1012,9 hPa 0,2 l/m 6,9 km/h (2 Bft) SW 220 0 min 0,000 mm 0,0 UV-I 54 W/m 13,5 C 14,3 C 9,7 km/h (2 Bft) 96,15 %
09.06.2016 08:06 14,6 C 93 % 1012,9 hPa 0,0 l/m 9,6 km/h (2 Bft) W-SW 241 0 min 0,000 mm 0,0 UV-I 56 W/m 13,5 C 12,9 C 14,5 km/h (3 Bft) 100,00 %
09.06.2016 08:07 14,6 C 93 % 1012,9 hPa 0,0 l/m 7,6 km/h (2 Bft) W 263 0 min 0,000 mm 0,0 UV-I 56 W/m 13,5 C 13,9 C 11,3 km/h (2 Bft) 95,65 %
09.06.2016 08:08 14,6 C 93 % 1012,9 hPa 0,0 l/m 8,4 km/h (2 Bft) SW 232 0 min 0,000 mm 0,0 UV-I 56 W/m 13,5 C 13,5 C 11,3 km/h (2 Bft) 100,00 %
09.06.2016 08:09 14,6 C 93 % 1012,9 hPa 0,0 l/m 7,3 km/h (2 Bft) SW 222 0 min 0,000 mm 0,0 UV-I 57 W/m 13,5 C 14,1 C 11,3 km/h (2 Bft) 95,65 %
09.06.2016 08:10 14,6 C 93 % 1012,9 hPa 0,0 l/m 6,3 km/h (2 Bft) W-SW 252 0 min 0,000 mm 0,0 UV-I 58 W/m 13,5 C 14,6 C 11,3 km/h (2 Bft) 91,67 %
09.06.2016 08:11 14,6 C 93 % 1013,0 hPa 0,0 l/m 6,4 km/h (2 Bft) W 267 0 min 0,000 mm 0,0 UV-I 58 W/m 13,5 C 14,6 C 8,0 km/h (2 Bft) 96,15 %
09.06.2016 08:12 14,6 C 93 % 1012,9 hPa 0,0 l/m 5,8 km/h (2 Bft) SW 232 0 min 0,000 mm 0,0 UV-I 60 W/m 13,5 C 14,6 C 9,7 km/h (2 Bft) 95,83 %
09.06.2016 08:13 14,6 C 93 % 1012,9 hPa 0,0 l/m 7,2 km/h (2 Bft) W 260 0 min 0,000 mm 0,0 UV-I 61 W/m 13,5 C 14,1 C 9,7 km/h (2 Bft) 100,00 %
09.06.2016 08:14 14,6 C 93 % 1013,0 hPa 0,0 l/m 8,0 km/h (2 Bft) SW 218 0 min 0,000 mm 0,0 UV-I 62 W/m 13,5 C 13,7 C 11,3 km/h (2 Bft) 100,00 %
09.06.2016 08:15 14,6 C 94 % 1013,0 hPa 0,0 l/m 7,2 km/h (2 Bft) W-SW 244 0 min 0,000 mm 0,0 UV-I 62 W/m 13,6 C 14,1 C 11,3 km/h (2 Bft) 95,65 %
09.06.2016 08:16 14,6 C 94 % 1013,0 hPa 0,2 l/m 10,1 km/h (2 Bft) W 259 0 min 0,000 mm 0,0 UV-I 63 W/m 13,6 C 12,6 C 14,5 km/h (3 Bft) 100,00 %
09.06.2016 08:17 14,6 C 94 % 1013,0 hPa 0,0 l/m 7,6 km/h (2 Bft) W 270 0 min 0,000 mm 0,0 UV-I 63 W/m 13,6 C 13,9 C 12,9 km/h (3 Bft) 100,00 %
09.06.2016 08:18 14,6 C 94 % 1013,0 hPa 0,0 l/m 6,5 km/h (2 Bft) SW 232 0 min 0,000 mm 0,0 UV-I 63 W/m 13,6 C 14,6 C 11,3 km/h (2 Bft) 100,00 %
09.06.2016 08:19 14,6 C 94 % 1013,0 hPa 0,0 l/m 6,4 km/h (2 Bft) W-SW 248 0 min 0,000 mm 0,0 UV-I 65 W/m 13,6 C 14,6 C 9,7 km/h (2 Bft) 96,15 %
09.06.2016 08:20 14,6 C 94 % 1013,0 hPa 0,0 l/m 5,1 km/h (1 Bft) W 274 0 min 0,000 mm 0,0 UV-I 65 W/m 13,6 C 14,6 C 8,0 km/h (2 Bft) 100,00 %
09.06.2016 08:21 14,6 C 94 % 1013,1 hPa 0,0 l/m 6,4 km/h (2 Bft) W-SW 251 0 min 0,000 mm 0,0 UV-I 65 W/m 13,6 C 14,6 C 11,3 km/h (2 Bft) 100,00 %
09.06.2016 08:22 14,6 C 94 % 1013,0 hPa 0,0 l/m 9,8 km/h (2 Bft) SW 236 0 min 0,000 mm 0,0 UV-I 65 W/m 13,6 C 12,8 C 12,9 km/h (3 Bft) 100,00 %
09.06.2016 08:23 14,6 C 94 % 1013,0 hPa 0,0 l/m 4,9 km/h (1 Bft) W-SW 246 0 min 0,000 mm 0,0 UV-I 65 W/m 13,6 C 14,6 C 6,4 km/h (2 Bft) 100,00 %
09.06.2016 08:24 14,6 C 94 % 1013,1 hPa 0,0 l/m 5,5 km/h (1 Bft) W-NW 290 0 min 0,000 mm 0,0 UV-I 65 W/m 13,6 C 14,6 C 8,0 km/h (2 Bft) 100,00 %
09.06.2016 08:25 14,6 C 94 % 1013,1 hPa 0,0 l/m 4,6 km/h (1 Bft) W-SW 242 0 min 0,000 mm 0,0 UV-I 65 W/m 13,6 C 14,6 C 8,0 km/h (2 Bft) 100,00 %
09.06.2016 08:26 14,6 C 94 % 1013,1 hPa 0,0 l/m 6,8 km/h (2 Bft) W 259 0 min 0,000 mm 0,0 UV-I 65 W/m 13,6 C 14,4 C 9,7 km/h (2 Bft) 95,65 %
09.06.2016 08:27 14,6 C 94 % 1013,1 hPa 0,0 l/m 6,1 km/h (2 Bft) W-SW 244 0 min 0,000 mm 0,0 UV-I 65 W/m 13,6 C 14,6 C 12,9 km/h (3 Bft) 95,83 %
09.06.2016 08:28 14,6 C 94 % 1013,1 hPa 0,0 l/m 6,3 km/h (2 Bft) W 259 0 min 0,000 mm 0,0 UV-I 65 W/m 13,6 C 14,6 C 9,7 km/h (2 Bft) 100,00 %
09.06.2016 08:29 14,6 C 94 % 1013,2 hPa 0,2 l/m 6,0 km/h (2 Bft) W 263 0 min 0,000 mm 0,0 UV-I 65 W/m 13,6 C 14,6 C 8,0 km/h (2 Bft) 100,00 %
09.06.2016 08:30 14,6 C 94 % 1013,2 hPa 0,0 l/m 6,6 km/h (2 Bft) W-SW 250 0 min 0,000 mm 0,0 UV-I 65 W/m 13,6 C 14,5 C 11,3 km/h (2 Bft) 100,00 %
09.06.2016 08:31 14,6 C 94 % 1013,2 hPa 0,0 l/m 8,4 km/h (2 Bft) SW 221 0 min 0,000 mm 0,0 UV-I 65 W/m 13,6 C 13,5 C 12,9 km/h (3 Bft) 95,83 %
09.06.2016 08:32 14,6 C 94 % 1013,2 hPa 0,0 l/m 8,7 km/h (2 Bft) W-SW 238 0 min 0,000 mm 0,0 UV-I 65 W/m 13,6 C 13,3 C 11,3 km/h (2 Bft) 100,00 %
09.06.2016 08:33 14,6 C 94 % 1013,2 hPa 0,0 l/m 7,6 km/h (2 Bft) SW 229 0 min 0,000 mm 0,0 UV-I 65 W/m 13,6 C 13,9 C 12,9 km/h (3 Bft) 100,00 %
09.06.2016 08:34 14,5 C 94 % 1013,2 hPa 0,0 l/m 6,5 km/h (2 Bft) W-SW 249 0 min 0,000 mm 0,0 UV-I 65 W/m 13,5 C 14,5 C 9,7 km/h (2 Bft) 100,00 %
09.06.2016 08:35 14,6 C 94 % 1013,2 hPa 0,0 l/m 6,4 km/h (2 Bft) SW 221 0 min 0,000 mm 0,0 UV-I 65 W/m 13,6 C 14,6 C 9,7 km/h (2 Bft) 100,00 %
09.06.2016 08:36 14,5 C 94 % 1013,2 hPa 0,0 l/m 5,7 km/h (1 Bft) W-SW 250 0 min 0,000 mm 0,0 UV-I 65 W/m 13,5 C 14,5 C 8,0 km/h (2 Bft) 100,00 %
09.06.2016 08:37 14,6 C 94 % 1013,2 hPa 0,2 l/m 6,1 km/h (2 Bft) W-SW 239 0 min 0,000 mm 0,0 UV-I 65 W/m 13,6 C 14,6 C 9,7 km/h (2 Bft) 100,00 %
09.06.2016 08:38 14,6 C 94 % 1013,2 hPa 0,0 l/m 5,2 km/h (1 Bft) W-SW 249 0 min 0,000 mm 0,0 UV-I 65 W/m 13,6 C 14,6 C 8,0 km/h (2 Bft) 100,00 %
09.06.2016 08:39 14,6 C 95 % 1013,2 hPa 0,0 l/m 5,0 km/h (1 Bft) W-SW 251 0 min 0,000 mm 0,0 UV-I 65 W/m 13,8 C 14,6 C 8,0 km/h (2 Bft) 100,00 %
09.06.2016 08:40 14,5 C 94 % 1013,3 hPa 0,0 l/m 4,3 km/h (1 Bft) SW 235 0 min 0,000 mm 0,0 UV-I 65 W/m 13,5 C 14,5 C 6,4 km/h (2 Bft) 100,00 %
09.06.2016 08:41 14,6 C 94 % 1013,3 hPa 0,0 l/m 4,9 km/h (1 Bft) W-SW 246 0 min 0,000 mm 0,0 UV-I 65 W/m 13,6 C 14,6 C 8,0 km/h (2 Bft) 100,00 %
09.06.2016 08:42 14,5 C 94 % 1013,2 hPa 0,0 l/m 6,9 km/h (2 Bft) W 259 0 min 0,000 mm 0,0 UV-I 67 W/m 13,5 C 14,2 C 11,3 km/h (2 Bft) 100,00 %
09.06.2016 08:43 14,5 C 94 % 1013,2 hPa 0,0 l/m 7,0 km/h (2 Bft) W-SW 257 0 min 0,000 mm 0,0 UV-I 67 W/m 13,5 C 14,2 C 11,3 km/h (2 Bft) 100,00 %
09.06.2016 08:44 14,6 C 94 % 1013,3 hPa 0,0 l/m 3,9 km/h (1 Bft) W-SW 243 0 min 0,000 mm 0,0 UV-I 67 W/m 13,6 C 14,6 C 4,8 km/h (1 Bft) 100,00 %
09.06.2016 08:45 14,5 C 95 % 1013,3 hPa 0,0 l/m 5,3 km/h (1 Bft) W 260 0 min 0,000 mm 0,0 UV-I 68 W/m 13,7 C 14,5 C 9,7 km/h (2 Bft) 100,00 %
09.06.2016 08:46 14,6 C 95 % 1013,2 hPa 0,0 l/m 6,8 km/h (2 Bft) W 259 0 min 0,000 mm 0,0 UV-I 69 W/m 13,8 C 14,4 C 9,7 km/h (2 Bft) 100,00 %
09.06.2016 08:47 14,6 C 95 % 1013,3 hPa 0,2 l/m 6,7 km/h (2 Bft) W 262 0 min 0,000 mm 0,0 UV-I 69 W/m 13,8 C 14,4 C 11,3 km/h (2 Bft) 100,00 %
09.06.2016 08:48 14,6 C 95 % 1013,3 hPa 0,0 l/m 4,6 km/h (1 Bft) W-SW 253 0 min 0,000 mm 0,0 UV-I 70 W/m 13,8 C 14,6 C 6,4 km/h (2 Bft) 100,00 %
09.06.2016 08:49 14,5 C 95 % 1013,3 hPa 0,0 l/m 5,9 km/h (2 Bft) W-SW 240 0 min 0,000 mm 0,0 UV-I 70 W/m 13,7 C 14,5 C 8,0 km/h (2 Bft) 100,00 %
09.06.2016 08:50 14,5 C 95 % 1013,3 hPa 0,0 l/m 5,3 km/h (1 Bft) W-SW 237 0 min 0,000 mm 0,0 UV-I 71 W/m 13,7 C 14,5 C 8,0 km/h (2 Bft) 100,00 %
09.06.2016 08:51 14,5 C 94 % 1013,2 hPa 0,0 l/m 5,2 km/h (1 Bft) W 260 0 min 0,000 mm 0,0 UV-I 72 W/m 13,5 C 14,5 C 9,7 km/h (2 Bft) 100,00 %
09.06.2016 08:52 14,5 C 94 % 1013,3 hPa 0,2 l/m 6,4 km/h (2 Bft) W-SW 255 0 min 0,000 mm 0,0 UV-I 74 W/m 13,5 C 14,5 C 11,3 km/h (2 Bft) 100,00 %
09.06.2016 08:53 14,5 C 94 % 1013,3 hPa 0,0 l/m 8,3 km/h (2 Bft) W 260 0 min 0,000 mm 0,0 UV-I 74 W/m 13,5 C 13,4 C 11,3 km/h (2 Bft) 100,00 %
09.06.2016 08:54 14,5 C 95 % 1013,3 hPa 0,0 l/m 6,7 km/h (2 Bft) SW 232 0 min 0,000 mm 0,0 UV-I 76 W/m 13,7 C 14,3 C 12,9 km/h (3 Bft) 100,00 %
09.06.2016 08:55 14,5 C 95 % 1013,3 hPa 0,0 l/m 4,1 km/h (1 Bft) W-SW 246 0 min 0,000 mm 0,0 UV-I 76 W/m 13,7 C 14,5 C 4,8 km/h (1 Bft) 100,00 %
09.06.2016 08:56 14,5 C 94 % 1013,3 hPa 0,0 l/m 5,7 km/h (1 Bft) W-SW 253 0 min 0,000 mm 0,0 UV-I 77 W/m 13,5 C 14,5 C 9,7 km/h (2 Bft) 100,00 %
09.06.2016 08:57 14,5 C 94 % 1013,3 hPa 0,0 l/m 6,1 km/h (2 Bft) S-SW 211 0 min 0,000 mm 0,0 UV-I 77 W/m 13,5 C 14,5 C 9,7 km/h (2 Bft) 100,00 %
09.06.2016 08:58 14,4 C 94 % 1013,3 hPa 0,0 l/m 5,7 km/h (1 Bft) W-SW 250 0 min 0,000 mm 0,0 UV-I 77 W/m 13,4 C 14,4 C 8,0 km/h (2 Bft) 100,00 %
09.06.2016 08:59 14,4 C 94 % 1013,3 hPa 0,2 l/m 6,4 km/h (2 Bft) W 259 0 min 0,000 mm 0,0 UV-I 77 W/m 13,4 C 14,4 C 9,7 km/h (2 Bft) 100,00 %
09.06.2016 09:00 14,4 C 94 % 1013,3 hPa 0,0 l/m 5,8 km/h (2 Bft) SW 217 0 min 0,050 mm 0,0 UV-I 79 W/m 13,4 C 14,4 C 9,7 km/h (2 Bft) 100,00 %
09.06.2016 09:01 14,4 C 94 % 1013,3 hPa 0,0 l/m 3,9 km/h (1 Bft) SW 234 0 min 0,000 mm 0,0 UV-I 79 W/m 13,4 C 14,4 C 4,8 km/h (1 Bft) 95,65 %
09.06.2016 09:02 14,5 C 95 % 1013,3 hPa 0,0 l/m 3,8 km/h (1 Bft) W 262 0 min 0,000 mm 0,0 UV-I 79 W/m 13,7 C 14,5 C 6,4 km/h (2 Bft) 100,00 %
09.06.2016 09:03 14,5 C 95 % 1013,3 hPa 0,0 l/m 5,5 km/h (1 Bft) W-SW 246 0 min 0,000 mm 0,0 UV-I 79 W/m 13,7 C 14,5 C 8,0 km/h (2 Bft) 100,00 %
09.06.2016 09:04 14,5 C 95 % 1013,3 hPa 0,2 l/m 6,0 km/h (2 Bft) W-SW 250 0 min 0,000 mm 0,0 UV-I 79 W/m 13,7 C 14,5 C 8,0 km/h (2 Bft) 100,00 %
09.06.2016 09:05 14,5 C 95 % 1013,3 hPa 0,0 l/m 6,0 km/h (2 Bft) W-SW 247 0 min 0,000 mm 0,0 UV-I 79 W/m 13,7 C 14,5 C 9,7 km/h (2 Bft) 100,00 %
09.06.2016 09:06 14,5 C 95 % 1013,3 hPa 0,0 l/m 6,6 km/h (2 Bft) W-SW 256 0 min 0,000 mm 0,0 UV-I 80 W/m 13,7 C 14,4 C 9,7 km/h (2 Bft) 100,00 %
09.06.2016 09:07 14,5 C 95 % 1013,3 hPa 0,0 l/m 4,7 km/h (1 Bft) SW 232 0 min 0,000 mm 0,0 UV-I 81 W/m 13,7 C 14,5 C 8,0 km/h (2 Bft) 100,00 %
09.06.2016 09:08 14,5 C 95 % 1013,3 hPa 0,0 l/m 4,9 km/h (1 Bft) SW 225 0 min 0,000 mm 0,0 UV-I 81 W/m 13,7 C 14,5 C 6,4 km/h (2 Bft) 100,00 %
09.06.2016 09:09 14,5 C 95 % 1013,3 hPa 0,0 l/m 3,1 km/h (1 Bft) SW 223 0 min 0,000 mm 0,0 UV-I 81 W/m 13,7 C 14,5 C 8,0 km/h (2 Bft) 100,00 %
09.06.2016 09:10 14,5 C 95 % 1013,3 hPa 0,0 l/m 4,2 km/h (1 Bft) SW 216 0 min 0,000 mm 0,0 UV-I 81 W/m 13,7 C 14,5 C 6,4 km/h (2 Bft) 95,65 %
09.06.2016 09:11 14,5 C 94 % 1013,3 hPa 0,0 l/m 3,6 km/h (1 Bft) SW 217 0 min 0,000 mm 0,0 UV-I 81 W/m 13,5 C 14,5 C 4,8 km/h (1 Bft) 95,83 %
09.06.2016 09:12 14,5 C 94 % 1013,4 hPa 0,0 l/m 6,6 km/h (2 Bft) W-SW 238 0 min 0,000 mm 0,0 UV-I 81 W/m 13,5 C 14,4 C 8,0 km/h (2 Bft) 100,00 %
09.06.2016 09:13 14,5 C 94 % 1013,3 hPa 0,0 l/m 6,4 km/h (2 Bft) W-SW 253 0 min 0,000 mm 0,0 UV-I 81 W/m 13,5 C 14,5 C 9,7 km/h (2 Bft) 100,00 %
09.06.2016 09:14 14,5 C 94 % 1013,3 hPa 0,2 l/m 5,0 km/h (1 Bft) SW 225 0 min 0,000 mm 0,0 UV-I 81 W/m 13,5 C 14,5 C 8,0 km/h (2 Bft) 100,00 %
09.06.2016 09:15 14,5 C 94 % 1013,3 hPa 0,0 l/m 5,7 km/h (1 Bft) W-SW 239 0 min 0,000 mm 0,0 UV-I 82 W/m 13,5 C 14,5 C 8,0 km/h (2 Bft) 100,00 %
09.06.2016 09:16 14,5 C 95 % 1013,3 hPa 0,0 l/m 5,4 km/h (1 Bft) SW 236 0 min 0,000 mm 0,0 UV-I 83 W/m 13,7 C 14,5 C 6,4 km/h (2 Bft) 100,00 %
09.06.2016 09:17 14,5 C 95 % 1013,3 hPa 0,0 l/m 5,8 km/h (2 Bft) SW 234 0 min 0,000 mm 0,0 UV-I 84 W/m 13,7 C 14,5 C 8,0 km/h (2 Bft) 100,00 %
09.06.2016 09:18 14,5 C 95 % 1013,3 hPa 0,0 l/m 6,0 km/h (2 Bft) W-SW 250 0 min 0,000 mm 0,0 UV-I 84 W/m 13,7 C 14,5 C 11,3 km/h (2 Bft) 95,65 %
09.06.2016 09:19 14,5 C 94 % 1013,3 hPa 0,2 l/m 8,2 km/h (2 Bft) SW 229 0 min 0,000 mm 0,0 UV-I 86 W/m 13,5 C 13,5 C 11,3 km/h (2 Bft) 91,67 %
09.06.2016 09:20 14,5 C 94 % 1013,3 hPa 0,0 l/m 4,2 km/h (1 Bft) S-SW 213 0 min 0,000 mm 0,0 UV-I 89 W/m 13,5 C 14,5 C 4,8 km/h (1 Bft) 100,00 %
09.06.2016 09:21 14,5 C 94 % 1013,3 hPa 0,0 l/m 7,1 km/h (2 Bft) SW 229 0 min 0,000 mm 0,3 UV-I 90 W/m 13,5 C 14,1 C 11,3 km/h (2 Bft) 100,00 %
09.06.2016 09:22 14,5 C 95 % 1013,3 hPa 0,0 l/m 5,2 km/h (1 Bft) SW 233 0 min 0,000 mm 0,5 UV-I 91 W/m 13,7 C 14,5 C 8,0 km/h (2 Bft) 95,65 %
09.06.2016 09:23 14,5 C 94 % 1013,3 hPa 0,0 l/m 4,8 km/h (1 Bft) SW 234 0 min 0,000 mm 0,5 UV-I 91 W/m 13,5 C 14,5 C 6,4 km/h (2 Bft) 100,00 %
09.06.2016 09:24 14,6 C 94 % 1013,3 hPa 0,0 l/m 4,7 km/h (1 Bft) W-SW 243 0 min 0,000 mm 0,5 UV-I 92 W/m 13,6 C 14,6 C 6,4 km/h (2 Bft) 95,83 %
09.06.2016 09:25 14,6 C 95 % 1013,3 hPa 0,2 l/m 4,6 km/h (1 Bft) SW 214 0 min 0,000 mm 0,5 UV-I 95 W/m 13,8 C 14,6 C 6,4 km/h (2 Bft) 100,00 %
09.06.2016 09:26 14,6 C 95 % 1013,3 hPa 0,0 l/m 5,0 km/h (1 Bft) W 264 0 min 0,000 mm 0,5 UV-I 95 W/m 13,8 C 14,6 C 9,7 km/h (2 Bft) 100,00 %
09.06.2016 09:27 14,6 C 95 % 1013,3 hPa 0,0 l/m 5,4 km/h (1 Bft) SW 223 0 min 0,000 mm 0,5 UV-I 95 W/m 13,8 C 14,6 C 8,0 km/h (2 Bft) 100,00 %
09.06.2016 09:28 14,6 C 95 % 1013,3 hPa 0,0 l/m 5,8 km/h (2 Bft) SW 228 0 min 0,000 mm 0,5 UV-I 95 W/m 13,8 C 14,6 C 9,7 km/h (2 Bft) 100,00 %
09.06.2016 09:29 14,6 C 95 % 1013,3 hPa 0,0 l/m 5,6 km/h (1 Bft) S-SW 209 0 min 0,000 mm 0,5 UV-I 95 W/m 13,8 C 14,6 C 8,0 km/h (2 Bft) 95,65 %
09.06.2016 09:30 14,6 C 95 % 1013,3 hPa 0,2 l/m 5,2 km/h (1 Bft) W-SW 250 0 min 0,000 mm 0,5 UV-I 95 W/m 13,8 C 14,6 C 6,4 km/h (2 Bft) 100,00 %
09.06.2016 09:31 14,6 C 95 % 1013,4 hPa 0,0 l/m 3,6 km/h (1 Bft) W-SW 248 0 min 0,000 mm 0,5 UV-I 95 W/m 13,8 C 14,6 C 6,4 km/h (2 Bft) 96,15 %
09.06.2016 09:32 14,6 C 95 % 1013,3 hPa 0,0 l/m 4,0 km/h (1 Bft) SW 221 0 min 0,000 mm 0,5 UV-I 95 W/m 13,8 C 14,6 C 6,4 km/h (2 Bft) 100,00 %
09.06.2016 09:33 14,6 C 95 % 1013,4 hPa 0,0 l/m 5,6 km/h (1 Bft) SW 234 0 min 0,000 mm 0,5 UV-I 97 W/m 13,8 C 14,6 C 8,0 km/h (2 Bft) 85,71 %
09.06.2016 09:34 14,6 C 95 % 1013,4 hPa 0,0 l/m 5,3 km/h (1 Bft) S-SW 212 0 min 0,000 mm 0,5 UV-I 97 W/m 13,8 C 14,6 C 6,4 km/h (2 Bft) 100,00 %
09.06.2016 09:35 14,6 C 95 % 1013,4 hPa 0,0 l/m 5,2 km/h (1 Bft) W 261 0 min 0,000 mm 0,5 UV-I 97 W/m 13,8 C 14,6 C 6,4 km/h (2 Bft) 91,30 %
09.06.2016 09:36 14,6 C 95 % 1013,4 hPa 0,0 l/m 3,4 km/h (1 Bft) SW 217 0 min 0,000 mm 0,5 UV-I 97 W/m 13,8 C 14,6 C 4,8 km/h (1 Bft) 96,30 %
09.06.2016 09:37 14,6 C 95 % 1013,4 hPa 0,0 l/m 4,9 km/h (1 Bft) W-SW 239 0 min 0,000 mm 0,5 UV-I 98 W/m 13,8 C 14,6 C 6,4 km/h (2 Bft) 100,00 %
09.06.2016 09:38 14,6 C 95 % 1013,4 hPa 0,2 l/m 5,8 km/h (2 Bft) SW 218 0 min 0,000 mm 0,5 UV-I 98 W/m 13,8 C 14,6 C 8,0 km/h (2 Bft) 95,83 %
09.06.2016 09:39 14,6 C 95 % 1013,4 hPa 0,0 l/m 5,3 km/h (1 Bft) SW 221 0 min 0,000 mm 0,5 UV-I 100 W/m 13,8 C 14,6 C 9,7 km/h (2 Bft) 100,00 %
09.06.2016 09:40 14,6 C 95 % 1013,4 hPa 0,0 l/m 7,0 km/h (2 Bft) SW 225 0 min 0,000 mm 0,5 UV-I 100 W/m 13,8 C 14,3 C 9,7 km/h (2 Bft) 95,83 %
09.06.2016 09:41 14,6 C 95 % 1013,3 hPa 0,0 l/m 5,4 km/h (1 Bft) W-SW 238 0 min 0,000 mm 0,5 UV-I 101 W/m 13,8 C 14,6 C 8,0 km/h (2 Bft) 100,00 %
09.06.2016 09:42 14,6 C 95 % 1013,3 hPa 0,0 l/m 4,0 km/h (1 Bft) S 190 0 min 0,000 mm 0,5 UV-I 102 W/m 13,8 C 14,6 C 6,4 km/h (2 Bft) 95,65 %
09.06.2016 09:43 14,6 C 95 % 1013,3 hPa 0,0 l/m 2,9 km/h (1 Bft) SW 223 0 min 0,000 mm 0,5 UV-I 102 W/m 13,8 C 14,6 C 6,4 km/h (2 Bft) 100,00 %
09.06.2016 09:44 14,6 C 95 % 1013,3 hPa 0,0 l/m 3,7 km/h (1 Bft) SW 227 0 min 0,000 mm 0,5 UV-I 102 W/m 13,8 C 14,6 C 6,4 km/h (2 Bft) 91,30 %
09.06.2016 09:45 14,6 C 95 % 1013,4 hPa 0,2 l/m 5,5 km/h (1 Bft) S-SW 211 0 min 0,000 mm 0,6 UV-I 104 W/m 13,8 C 14,6 C 8,0 km/h (2 Bft) 100,00 %
09.06.2016 09:46 14,6 C 94 % 1013,4 hPa 0,0 l/m 5,2 km/h (1 Bft) S-SW 210 0 min 0,000 mm 0,6 UV-I 104 W/m 13,6 C 14,6 C 8,0 km/h (2 Bft) 92,31 %
09.06.2016 09:47 14,6 C 94 % 1013,4 hPa 0,0 l/m 5,0 km/h (1 Bft) SW 224 0 min 0,000 mm 0,6 UV-I 104 W/m 13,6 C 14,6 C 6,4 km/h (2 Bft) 95,83 %
09.06.2016 09:48 14,6 C 94 % 1013,4 hPa 0,0 l/m 3,1 km/h (1 Bft) W-SW 238 0 min 0,000 mm 0,6 UV-I 105 W/m 13,6 C 14,6 C 4,8 km/h (1 Bft) 95,65 %
09.06.2016 09:49 14,6 C 94 % 1013,3 hPa 0,0 l/m 4,0 km/h (1 Bft) SW 219 0 min 0,000 mm 0,6 UV-I 105 W/m 13,6 C 14,6 C 8,0 km/h (2 Bft) 95,83 %
09.06.2016 09:50 14,6 C 94 % 1013,3 hPa 0,0 l/m 5,2 km/h (1 Bft) SW 229 0 min 0,000 mm 0,6 UV-I 106 W/m 13,6 C 14,6 C 8,0 km/h (2 Bft) 95,65 %
09.06.2016 09:51 14,6 C 94 % 1013,3 hPa 0,0 l/m 5,1 km/h (1 Bft) S-SW 200 0 min 0,000 mm 0,6 UV-I 107 W/m 13,6 C 14,6 C 6,4 km/h (2 Bft) 95,83 %
09.06.2016 09:52 14,6 C 94 % 1013,3 hPa 0,0 l/m 5,8 km/h (2 Bft) SW 224 0 min 0,000 mm 0,6 UV-I 107 W/m 13,6 C 14,6 C 8,0 km/h (2 Bft) 92,31 %
09.06.2016 09:53 14,6 C 94 % 1013,3 hPa 0,0 l/m 4,2 km/h (1 Bft) SW 222 0 min 0,000 mm 0,6 UV-I 109 W/m 13,6 C 14,6 C 9,7 km/h (2 Bft) 100,00 %
09.06.2016 09:54 14,6 C 94 % 1013,3 hPa 0,0 l/m 8,9 km/h (2 Bft) SW 217 0 min 0,000 mm 0,6 UV-I 109 W/m 13,6 C 13,2 C 12,9 km/h (3 Bft) 91,30 %
09.06.2016 09:55 14,6 C 94 % 1013,3 hPa 0,2 l/m 7,2 km/h (2 Bft) S-SW 199 0 min 0,000 mm 0,6 UV-I 109 W/m 13,6 C 14,1 C 9,7 km/h (2 Bft) 100,00 %
09.06.2016 09:56 14,6 C 95 % 1013,3 hPa 0,0 l/m 5,6 km/h (1 Bft) W-SW 242 0 min 0,000 mm 0,6 UV-I 109 W/m 13,8 C 14,6 C 8,0 km/h (2 Bft) 91,67 %
09.06.2016 09:57 14,6 C 95 % 1013,3 hPa 0,0 l/m 6,1 km/h (2 Bft) S-SW 197 0 min 0,000 mm 0,6 UV-I 109 W/m 13,8 C 14,6 C 8,0 km/h (2 Bft) 100,00 %
09.06.2016 09:58 14,6 C 94 % 1013,3 hPa 0,0 l/m 5,4 km/h (1 Bft) SW 227 0 min 0,000 mm 0,6 UV-I 109 W/m 13,6 C 14,6 C 8,0 km/h (2 Bft) 96,15 %
09.06.2016 09:59 14,6 C 94 % 1013,3 hPa 0,0 l/m 4,7 km/h (1 Bft) W-SW 245 0 min 0,000 mm 0,6 UV-I 109 W/m 13,6 C 14,6 C 8,0 km/h (2 Bft) 100,00 %
09.06.2016 10:00 14,7 C 94 % 1013,3 hPa 0,2 l/m 5,5 km/h (1 Bft) S 177 0 min 0,000 mm 0,6 UV-I 109 W/m 13,7 C 14,7 C 8,0 km/h (2 Bft) 95,65 %
09.06.2016 10:01 14,7 C 95 % 1013,3 hPa 0,0 l/m 5,2 km/h (1 Bft) S-SW 207 0 min 0,051 mm 0,6 UV-I 110 W/m 13,9 C 14,7 C 6,4 km/h (2 Bft) 95,83 %
09.06.2016 10:02 14,7 C 95 % 1013,3 hPa 0,0 l/m 4,4 km/h (1 Bft) SW 221 0 min 0,000 mm 0,6 UV-I 111 W/m 13,9 C 14,7 C 6,4 km/h (2 Bft) 100,00 %
09.06.2016 10:03 14,7 C 95 % 1013,3 hPa 0,0 l/m 4,8 km/h (1 Bft) SW 229 0 min 0,000 mm 0,6 UV-I 111 W/m 13,9 C 14,7 C 6,4 km/h (2 Bft) 95,83 %
09.06.2016 10:04 14,7 C 94 % 1013,3 hPa 0,0 l/m 5,0 km/h (1 Bft) SW 221 0 min 0,000 mm 0,6 UV-I 111 W/m 13,7 C 14,7 C 8,0 km/h (2 Bft) 95,65 %
09.06.2016 10:05 14,6 C 94 % 1013,3 hPa 0,0 l/m 4,9 km/h (1 Bft) S-SW 204 0 min 0,000 mm 0,6 UV-I 113 W/m 13,6 C 14,6 C 6,4 km/h (2 Bft) 95,83 %
09.06.2016 10:06 14,6 C 94 % 1013,3 hPa 0,0 l/m 3,2 km/h (1 Bft) S-SW 202 0 min 0,000 mm 0,6 UV-I 113 W/m 13,6 C 14,6 C 4,8 km/h (1 Bft) 100,00 %
09.06.2016 10:07 14,6 C 94 % 1013,3 hPa 0,2 l/m 3,5 km/h (1 Bft) SW 229 0 min 0,000 mm 0,6 UV-I 114 W/m 13,6 C 14,6 C 4,8 km/h (1 Bft) 100,00 %
09.06.2016 10:08 14,7 C 95 % 1013,3 hPa 0,0 l/m 4,1 km/h (1 Bft) SW 215 0 min 0,000 mm 0,7 UV-I 114 W/m 13,9 C 14,7 C 4,8 km/h (1 Bft) 100,00 %
09.06.2016 10:09 14,7 C 95 % 1013,3 hPa 0,0 l/m 4,2 km/h (1 Bft) S-SW 206 0 min 0,000 mm 0,7 UV-I 116 W/m 13,9 C 14,7 C 6,4 km/h (2 Bft) 95,65 %
09.06.2016 10:10 14,7 C 95 % 1013,4 hPa 0,0 l/m 5,0 km/h (1 Bft) S-SW 195 0 min 0,000 mm 0,7 UV-I 116 W/m 13,9 C 14,7 C 8,0 km/h (2 Bft) 100,00 %
09.06.2016 10:11 14,7 C 95 % 1013,4 hPa 0,0 l/m 3,9 km/h (1 Bft) S-SW 204 0 min 0,000 mm 0,7 UV-I 119 W/m 13,9 C 14,7 C 6,4 km/h (2 Bft) 100,00 %
09.06.2016 10:12 14,7 C 95 % 1013,3 hPa 0,2 l/m 5,2 km/h (1 Bft) S-SW 200 0 min 0,000 mm 0,7 UV-I 120 W/m 13,9 C 14,7 C 6,4 km/h (2 Bft) 100,00 %
09.06.2016 10:13 14,7 C 95 % 1013,3 hPa 0,0 l/m 3,6 km/h (1 Bft) S-SW 199 0 min 0,000 mm 0,7 UV-I 121 W/m 13,9 C 14,7 C 6,4 km/h (2 Bft) 100,00 %
09.06.2016 10:14 14,7 C 94 % 1013,3 hPa 0,0 l/m 4,5 km/h (1 Bft) S-SW 203 0 min 0,000 mm 0,7 UV-I 123 W/m 13,7 C 14,7 C 6,4 km/h (2 Bft) 100,00 %
09.06.2016 10:15 14,7 C 94 % 1013,3 hPa 0,0 l/m 5,2 km/h (1 Bft) SW 218 0 min 0,000 mm 0,7 UV-I 123 W/m 13,7 C 14,7 C 6,4 km/h (2 Bft) 100,00 %
09.06.2016 10:16 14,7 C 94 % 1013,3 hPa 0,0 l/m 5,0 km/h (1 Bft) S-SW 195 0 min 0,000 mm 0,7 UV-I 125 W/m 13,7 C 14,7 C 8,0 km/h (2 Bft) 100,00 %
09.06.2016 10:17 14,7 C 95 % 1013,3 hPa 0,0 l/m 3,5 km/h (1 Bft) S-SW 200 0 min 0,000 mm 0,7 UV-I 126 W/m 13,9 C 14,7 C 4,8 km/h (1 Bft) 91,67 %
09.06.2016 10:18 14,7 C 95 % 1013,3 hPa 0,0 l/m 5,5 km/h (1 Bft) S-SW 204 0 min 0,000 mm 0,8 UV-I 128 W/m 13,9 C 14,7 C 8,0 km/h (2 Bft) 96,15 %
09.06.2016 10:19 14,7 C 94 % 1013,3 hPa 0,2 l/m 4,4 km/h (1 Bft) W-SW 237 0 min 0,000 mm 0,8 UV-I 129 W/m 13,7 C 14,7 C 6,4 km/h (2 Bft) 100,00 %
09.06.2016 10:20 14,7 C 95 % 1013,3 hPa 0,0 l/m 4,5 km/h (1 Bft) S-SW 205 0 min 0,000 mm 0,8 UV-I 132 W/m 13,9 C 14,7 C 6,4 km/h (2 Bft) 100,00 %
09.06.2016 10:21 14,7 C 95 % 1013,3 hPa 0,0 l/m 5,6 km/h (1 Bft) SW 219 0 min 0,000 mm 0,8 UV-I 134 W/m 13,9 C 14,7 C 8,0 km/h (2 Bft) 95,83 %
09.06.2016 10:22 14,7 C 95 % 1013,3 hPa 0,0 l/m 4,3 km/h (1 Bft) W-SW 243 0 min 0,000 mm 0,8 UV-I 138 W/m 13,9 C 14,7 C 6,4 km/h (2 Bft) 100,00 %
09.06.2016 10:23 14,7 C 95 % 1013,2 hPa 0,0 l/m 5,2 km/h (1 Bft) SW 220 0 min 0,000 mm 0,8 UV-I 140 W/m 13,9 C 14,7 C 6,4 km/h (2 Bft) 100,00 %
09.06.2016 10:24 14,7 C 95 % 1013,3 hPa 0,2 l/m 4,8 km/h (1 Bft) SW 227 0 min 0,000 mm 0,9 UV-I 142 W/m 13,9 C 14,7 C 6,4 km/h (2 Bft) 100,00 %
09.06.2016 10:25 14,8 C 95 % 1013,2 hPa 0,0 l/m 3,1 km/h (1 Bft) W-SW 244 0 min 0,000 mm 0,9 UV-I 143 W/m 14,0 C 14,8 C 4,8 km/h (1 Bft) 100,00 %
09.06.2016 10:26 14,8 C 95 % 1013,2 hPa 0,0 l/m 2,8 km/h (1 Bft) W-SW 244 0 min 0,000 mm 0,9 UV-I 146 W/m 14,0 C 14,8 C 4,8 km/h (1 Bft) 100,00 %
09.06.2016 10:27 14,8 C 95 % 1013,3 hPa 0,0 l/m 1,8 km/h (1 Bft) S-SW 204 0 min 0,000 mm 0,9 UV-I 149 W/m 14,0 C 14,8 C 4,8 km/h (1 Bft) 100,00 %
09.06.2016 10:28 14,8 C 95 % 1013,3 hPa 0,0 l/m 4,7 km/h (1 Bft) SW 214 0 min 0,000 mm 0,9 UV-I 152 W/m 14,0 C 14,8 C 6,4 km/h (2 Bft) 100,00 %
09.06.2016 10:29 14,8 C 95 % 1013,3 hPa 0,2 l/m 4,1 km/h (1 Bft) S 175 0 min 0,000 mm 0,9 UV-I 154 W/m 14,0 C 14,8 C 6,4 km/h (2 Bft) 100,00 %
09.06.2016 10:30 14,8 C 95 % 1013,3 hPa 0,0 l/m 4,3 km/h (1 Bft) W-SW 240 0 min 0,000 mm 0,9 UV-I 156 W/m 14,0 C 14,8 C 8,0 km/h (2 Bft) 100,00 %
09.06.2016 10:31 14,8 C 95 % 1013,3 hPa 0,0 l/m 4,3 km/h (1 Bft) S-SW 211 0 min 0,000 mm 1,0 UV-I 157 W/m 14,0 C 14,8 C 6,4 km/h (2 Bft) 100,00 %
09.06.2016 10:32 14,8 C 94 % 1013,3 hPa 0,0 l/m 3,8 km/h (1 Bft) S-SW 211 0 min 0,000 mm 1,0 UV-I 158 W/m 13,8 C 14,8 C 6,4 km/h (2 Bft) 95,65 %
09.06.2016 10:33 14,8 C 94 % 1013,3 hPa 0,0 l/m 4,7 km/h (1 Bft) W-SW 237 0 min 0,000 mm 1,0 UV-I 161 W/m 13,8 C 14,8 C 6,4 km/h (2 Bft) 100,00 %
09.06.2016 10:34 14,8 C 94 % 1013,3 hPa 0,2 l/m 3,4 km/h (1 Bft) W-SW 237 0 min 0,000 mm 1,0 UV-I 164 W/m 13,8 C 14,8 C 4,8 km/h (1 Bft) 100,00 %
09.06.2016 10:35 14,9 C 95 % 1013,3 hPa 0,0 l/m 3,9 km/h (1 Bft) S-SW 202 0 min 0,000 mm 1,0 UV-I 166 W/m 14,1 C 14,9 C 4,8 km/h (1 Bft) 100,00 %
09.06.2016 10:36 14,9 C 95 % 1013,3 hPa 0,0 l/m 3,6 km/h (1 Bft) S-SW 202 0 min 0,000 mm 1,0 UV-I 167 W/m 14,1 C 14,9 C 4,8 km/h (1 Bft) 92,86 %
09.06.2016 10:37 14,9 C 95 % 1013,3 hPa 0,0 l/m 5,0 km/h (1 Bft) SW 232 0 min 0,000 mm 1,0 UV-I 166 W/m 14,1 C 14,9 C 6,4 km/h (2 Bft) 100,00 %
09.06.2016 10:38 14,9 C 95 % 1013,3 hPa 0,0 l/m 3,8 km/h (1 Bft) SW 221 0 min 0,000 mm 1,0 UV-I 167 W/m 14,1 C 14,9 C 6,4 km/h (2 Bft) 100,00 %
09.06.2016 10:39 14,9 C 95 % 1013,3 hPa 0,0 l/m 4,6 km/h (1 Bft) S-SW 204 0 min 0,000 mm 1,0 UV-I 169 W/m 14,1 C 14,9 C 6,4 km/h (2 Bft) 100,00 %
09.06.2016 10:40 14,9 C 95 % 1013,3 hPa 0,0 l/m 5,2 km/h (1 Bft) S-SW 193 0 min 0,000 mm 1,0 UV-I 166 W/m 14,1 C 14,9 C 6,4 km/h (2 Bft) 100,00 %
09.06.2016 10:41 14,9 C 94 % 1013,2 hPa 0,0 l/m 4,8 km/h (1 Bft) SW 225 0 min 0,000 mm 1,0 UV-I 165 W/m 13,9 C 14,9 C 8,0 km/h (2 Bft) 100,00 %
09.06.2016 10:42 14,9 C 94 % 1013,3 hPa 0,0 l/m 4,0 km/h (1 Bft) S-SW 204 0 min 0,000 mm 1,0 UV-I 166 W/m 13,9 C 14,9 C 6,4 km/h (2 Bft) 95,83 %
09.06.2016 10:43 14,9 C 94 % 1013,3 hPa 0,2 l/m 4,7 km/h (1 Bft) S-SW 200 0 min 0,000 mm 1,0 UV-I 167 W/m 13,9 C 14,9 C 8,0 km/h (2 Bft) 100,00 %
09.06.2016 10:44 14,9 C 94 % 1013,2 hPa 0,0 l/m 1,6 km/h (1 Bft) S-SW 197 0 min 0,000 mm 1,0 UV-I 165 W/m 13,9 C 14,9 C 3,2 km/h (1 Bft) 100,00 %
09.06.2016 10:45 14,9 C 95 % 1013,2 hPa 0,0 l/m 3,8 km/h (1 Bft) S-SW 195 0 min 0,000 mm 1,0 UV-I 163 W/m 14,1 C 14,9 C 4,8 km/h (1 Bft) 100,00 %
09.06.2016 10:46 14,9 C 94 % 1013,2 hPa 0,0 l/m 3,1 km/h (1 Bft) SW 217 0 min 0,000 mm 1,1 UV-I 168 W/m 13,9 C 14,9 C 4,8 km/h (1 Bft) 100,00 %
09.06.2016 10:47 14,9 C 94 % 1013,2 hPa 0,0 l/m 3,7 km/h (1 Bft) SW 227 0 min 0,000 mm 1,1 UV-I 170 W/m 13,9 C 14,9 C 6,4 km/h (2 Bft) 100,00 %
09.06.2016 10:48 15,0 C 95 % 1013,2 hPa 0,0 l/m 4,0 km/h (1 Bft) SW 223 0 min 0,000 mm 1,1 UV-I 174 W/m 14,2 C 15,0 C 4,8 km/h (1 Bft) 100,00 %
09.06.2016 10:49 15,1 C 95 % 1013,2 hPa 0,0 l/m 3,4 km/h (1 Bft) SW 236 0 min 0,000 mm 1,1 UV-I 178 W/m 14,3 C 15,1 C 4,8 km/h (1 Bft) 100,00 %
09.06.2016 10:50 15,0 C 94 % 1013,2 hPa 0,2 l/m 3,4 km/h (1 Bft) W 265 0 min 0,000 mm 1,1 UV-I 181 W/m 14,0 C 15,0 C 4,8 km/h (1 Bft) 100,00 %
09.06.2016 10:51 15,0 C 94 % 1013,2 hPa 0,0 l/m 3,9 km/h (1 Bft) W-SW 248 0 min 0,000 mm 1,1 UV-I 177 W/m 14,0 C 15,0 C 6,4 km/h (2 Bft) 100,00 %
09.06.2016 10:52 15,1 C 94 % 1013,2 hPa 0,0 l/m 5,0 km/h (1 Bft) W-SW 251 0 min 0,000 mm 1,1 UV-I 171 W/m 14,1 C 15,1 C 6,4 km/h (2 Bft) 100,00 %
09.06.2016 10:53 15,1 C 94 % 1013,2 hPa 0,0 l/m 5,9 km/h (2 Bft) W 269 0 min 0,000 mm 1,1 UV-I 172 W/m 14,1 C 15,1 C 8,0 km/h (2 Bft) 95,65 %
09.06.2016 10:54 15,1 C 95 % 1013,2 hPa 0,0 l/m 3,5 km/h (1 Bft) SW 234 0 min 0,000 mm 1,2 UV-I 180 W/m 14,3 C 15,1 C 4,8 km/h (1 Bft) 100,00 %
09.06.2016 10:55 15,1 C 95 % 1013,2 hPa 0,0 l/m 3,7 km/h (1 Bft) S-SW 213 0 min 0,000 mm 1,2 UV-I 187 W/m 14,3 C 15,1 C 4,8 km/h (1 Bft) 100,00 %
09.06.2016 10:56 15,2 C 95 % 1013,2 hPa 0,0 l/m 3,1 km/h (1 Bft) S-SW 209 0 min 0,000 mm 1,2 UV-I 193 W/m 14,4 C 15,2 C 4,8 km/h (1 Bft) 100,00 %
09.06.2016 10:57 15,1 C 94 % 1013,2 hPa 0,0 l/m 5,8 km/h (2 Bft) W-SW 241 0 min 0,000 mm 1,2 UV-I 193 W/m 14,1 C 15,1 C 8,0 km/h (2 Bft) 100,00 %
09.06.2016 10:58 15,1 C 94 % 1013,2 hPa 0,0 l/m 3,8 km/h (1 Bft) S-SW 205 0 min 0,000 mm 1,2 UV-I 191 W/m 14,1 C 15,1 C 4,8 km/h (1 Bft) 100,00 %
09.06.2016 10:59 15,1 C 94 % 1013,2 hPa 0,0 l/m 4,5 km/h (1 Bft) W-SW 241 0 min 0,000 mm 1,2 UV-I 189 W/m 14,1 C 15,1 C 6,4 km/h (2 Bft) 100,00 %
09.06.2016 11:00 15,1 C 94 % 1013,1 hPa 0,0 l/m 2,7 km/h (1 Bft) W-SW 240 0 min 0,076 mm 1,2 UV-I 185 W/m 14,1 C 15,1 C 6,4 km/h (2 Bft) 100,00 %
09.06.2016 11:01 15,1 C 94 % 1013,2 hPa 0,2 l/m 4,9 km/h (1 Bft) SW 222 0 min 0,000 mm 1,1 UV-I 181 W/m 14,1 C 15,1 C 6,4 km/h (2 Bft) 100,00 %
09.06.2016 11:02 15,1 C 94 % 1013,1 hPa 0,0 l/m 2,5 km/h (1 Bft) SW 222 0 min 0,000 mm 1,1 UV-I 178 W/m 14,1 C 15,1 C 4,8 km/h (1 Bft) 100,00 %
09.06.2016 11:03 15,1 C 94 % 1013,1 hPa 0,0 l/m 5,8 km/h (2 Bft) SW 219 0 min 0,000 mm 1,1 UV-I 178 W/m 14,1 C 15,1 C 9,7 km/h (2 Bft) 100,00 %
09.06.2016 11:04 15,1 C 94 % 1013,1 hPa 0,0 l/m 6,4 km/h (2 Bft) SW 221 0 min 0,000 mm 1,1 UV-I 178 W/m 14,1 C 15,1 C 8,0 km/h (2 Bft) 100,00 %
09.06.2016 11:05 15,1 C 94 % 1013,1 hPa 0,0 l/m 6,0 km/h (2 Bft) SW 224 0 min 0,000 mm 1,1 UV-I 177 W/m 14,1 C 15,1 C 8,0 km/h (2 Bft) 100,00 %
09.06.2016 11:06 15,1 C 94 % 1013,1 hPa 0,0 l/m 6,8 km/h (2 Bft) SW 222 0 min 0,000 mm 1,1 UV-I 176 W/m 14,1 C 14,9 C 8,0 km/h (2 Bft) 95,65 %
09.06.2016 11:07 15,1 C 94 % 1013,1 hPa 0,0 l/m 6,0 km/h (2 Bft) W-SW 238 0 min 0,000 mm 1,1 UV-I 174 W/m 14,1 C 15,1 C 9,7 km/h (2 Bft) 100,00 %
09.06.2016 11:08 15,1 C 94 % 1013,1 hPa 0,0 l/m 6,2 km/h (2 Bft) SW 227 0 min 0,000 mm 1,1 UV-I 172 W/m 14,1 C 15,1 C 8,0 km/h (2 Bft) 100,00 %
09.06.2016 11:09 15,1 C 94 % 1013,1 hPa 0,0 l/m 3,0 km/h (1 Bft) S-SW 209 0 min 0,000 mm 1,1 UV-I 168 W/m 14,1 C 15,1 C 4,8 km/h (1 Bft) 100,00 %
09.06.2016 11:10 15,1 C 94 % 1013,1 hPa 0,2 l/m 3,2 km/h (1 Bft) W-SW 238 0 min 0,000 mm 1,0 UV-I 164 W/m 14,1 C 15,1 C 6,4 km/h (2 Bft) 100,00 %
09.06.2016 11:11 15,1 C 94 % 1013,1 hPa 0,0 l/m 5,3 km/h (1 Bft) W-SW 242 0 min 0,000 mm 1,1 UV-I 166 W/m 14,1 C 15,1 C 8,0 km/h (2 Bft) 100,00 %
09.06.2016 11:12 15,2 C 94 % 1013,2 hPa 0,0 l/m 6,0 km/h (2 Bft) W-SW 255 0 min 0,000 mm 1,2 UV-I 173 W/m 14,2 C 15,2 C 11,3 km/h (2 Bft) 100,00 %
09.06.2016 11:13 15,1 C 93 % 1013,2 hPa 0,0 l/m 6,0 km/h (2 Bft) W 259 0 min 0,000 mm 1,2 UV-I 177 W/m 14,0 C 15,1 C 9,7 km/h (2 Bft) 100,00 %
09.06.2016 11:14 15,1 C 93 % 1013,2 hPa 0,0 l/m 5,1 km/h (1 Bft) W-SW 250 0 min 0,000 mm 1,2 UV-I 179 W/m 14,0 C 15,1 C 6,4 km/h (2 Bft) 95,65 %
09.06.2016 11:15 15,2 C 94 % 1013,2 hPa 0,0 l/m 2,9 km/h (1 Bft) W-SW 250 0 min 0,000 mm 1,2 UV-I 178 W/m 14,2 C 15,2 C 4,8 km/h (1 Bft) 100,00 %
09.06.2016 11:16 15,2 C 94 % 1013,2 hPa 0,0 l/m 4,4 km/h (1 Bft) W 277 0 min 0,000 mm 1,2 UV-I 178 W/m 14,2 C 15,2 C 6,4 km/h (2 Bft) 95,65 %
09.06.2016 11:17 15,2 C 94 % 1013,2 hPa 0,0 l/m 5,0 km/h (1 Bft) W 265 0 min 0,000 mm 1,2 UV-I 179 W/m 14,2 C 15,2 C 6,4 km/h (2 Bft) 100,00 %
09.06.2016 11:18 15,2 C 94 % 1013,2 hPa 0,0 l/m 5,3 km/h (1 Bft) W 263 0 min 0,000 mm 1,2 UV-I 180 W/m 14,2 C 15,2 C 9,7 km/h (2 Bft) 100,00 %
09.06.2016 11:19 15,2 C 93 % 1013,2 hPa 0,0 l/m 4,3 km/h (1 Bft) W 260 0 min 0,000 mm 1,2 UV-I 181 W/m 14,1 C 15,2 C 9,7 km/h (2 Bft) 100,00 %
09.06.2016 11:20 15,2 C 94 % 1013,1 hPa 0,0 l/m 6,3 km/h (2 Bft) SW 233 0 min 0,000 mm 1,2 UV-I 183 W/m 14,2 C 15,2 C 9,7 km/h (2 Bft) 95,65 %
09.06.2016 11:21 15,2 C 94 % 1013,1 hPa 0,0 l/m 6,4 km/h (2 Bft) W-SW 252 0 min 0,000 mm 1,2 UV-I 182 W/m 14,2 C 15,2 C 8,0 km/h (2 Bft) 95,83 %
09.06.2016 11:22 15,2 C 94 % 1013,2 hPa 0,0 l/m 5,0 km/h (1 Bft) W-SW 252 0 min 0,000 mm 1,2 UV-I 181 W/m 14,2 C 15,2 C 6,4 km/h (2 Bft) 100,00 %
09.06.2016 11:23 15,2 C 93 % 1013,2 hPa 0,0 l/m 5,6 km/h (1 Bft) W-SW 248 0 min 0,000 mm 1,2 UV-I 181 W/m 14,1 C 15,2 C 8,0 km/h (2 Bft) 100,00 %
09.06.2016 11:24 15,2 C 93 % 1013,2 hPa 0,0 l/m 4,0 km/h (1 Bft) W-SW 252 0 min 0,000 mm 1,2 UV-I 181 W/m 14,1 C 15,2 C 4,8 km/h (1 Bft) 100,00 %
09.06.2016 11:25 15,2 C 93 % 1013,2 hPa 0,0 l/m 3,2 km/h (1 Bft) W 261 0 min 0,000 mm 1,2 UV-I 181 W/m 14,1 C 15,2 C 4,8 km/h (1 Bft) 100,00 %
09.06.2016 11:26 15,2 C 93 % 1013,2 hPa 0,0 l/m 1,7 km/h (1 Bft) W 261 0 min 0,000 mm 1,2 UV-I 179 W/m 14,1 C 15,2 C 4,8 km/h (1 Bft) 100,00 %
09.06.2016 11:27 15,1 C 93 % 1013,2 hPa 0,0 l/m 2,9 km/h (1 Bft) W 260 0 min 0,000 mm 1,2 UV-I 179 W/m 14,0 C 15,1 C 4,8 km/h (1 Bft) 91,30 %
09.06.2016 11:28 15,1 C 93 % 1013,2 hPa 0,2 l/m 3,4 km/h (1 Bft) W-SW 246 0 min 0,000 mm 1,2 UV-I 178 W/m 14,0 C 15,1 C 4,8 km/h (1 Bft) 100,00 %
09.06.2016 11:29 15,1 C 92 % 1013,2 hPa 0,0 l/m 3,6 km/h (1 Bft) W-SW 254 0 min 0,000 mm 1,2 UV-I 178 W/m 13,8 C 15,1 C 6,4 km/h (2 Bft) 100,00 %
09.06.2016 11:30 15,1 C 92 % 1013,2 hPa 0,0 l/m 3,6 km/h (1 Bft) W 260 0 min 0,000 mm 1,2 UV-I 176 W/m 13,8 C 15,1 C 4,8 km/h (1 Bft) 100,00 %
09.06.2016 11:31 15,1 C 92 % 1013,2 hPa 0,0 l/m 2,9 km/h (1 Bft) W 269 0 min 0,000 mm 1,2 UV-I 174 W/m 13,8 C 15,1 C 4,8 km/h (1 Bft) 100,00 %
09.06.2016 11:32 15,1 C 93 % 1013,2 hPa 0,0 l/m 2,7 km/h (1 Bft) W 269 0 min 0,000 mm 1,2 UV-I 172 W/m 14,0 C 15,1 C 4,8 km/h (1 Bft) 100,00 %
09.06.2016 11:33 15,1 C 92 % 1013,3 hPa 0,0 l/m 3,0 km/h (1 Bft) W 269 0 min 0,000 mm 1,1 UV-I 170 W/m 13,8 C 15,1 C 4,8 km/h (1 Bft) 95,65 %
09.06.2016 11:34 15,1 C 92 % 1013,3 hPa 0,0 l/m 2,0 km/h (1 Bft) W 269 0 min 0,000 mm 1,1 UV-I 167 W/m 13,8 C 15,1 C 3,2 km/h (1 Bft) 100,00 %
09.06.2016 11:35 15,1 C 93 % 1013,3 hPa 0,0 l/m 1,0 km/h (0 Bft) W 269 0 min 0,000 mm 1,1 UV-I 167 W/m 14,0 C 15,1 C 1,6 km/h (1 Bft) 95,65 %
09.06.2016 11:36 15,2 C 93 % 1013,3 hPa 0,0 l/m 0,3 km/h (0 Bft) W 269 0 min 0,000 mm 1,1 UV-I 169 W/m 14,1 C 15,2 C 1,6 km/h (1 Bft) 95,83 %
09.06.2016 11:37 15,2 C 93 % 1013,3 hPa 0,0 l/m 1,9 km/h (1 Bft) W 269 0 min 0,000 mm 1,2 UV-I 171 W/m 14,1 C 15,2 C 3,2 km/h (1 Bft) 91,30 %
09.06.2016 11:38 15,2 C 93 % 1013,3 hPa 0,0 l/m 2,1 km/h (1 Bft) W 269 0 min 0,000 mm 1,2 UV-I 172 W/m 14,1 C 15,2 C 3,2 km/h (1 Bft) 95,83 %
09.06.2016 11:39 15,2 C 93 % 1013,3 hPa 0,0 l/m 0,3 km/h (0 Bft) W 269 0 min 0,000 mm 1,2 UV-I 175 W/m 14,1 C 15,2 C 1,6 km/h (1 Bft) 95,83 %
09.06.2016 11:40 15,2 C 92 % 1013,2 hPa 0,0 l/m 1,6 km/h (1 Bft) W 269 0 min 0,000 mm 1,2 UV-I 176 W/m 13,9 C 15,2 C 3,2 km/h (1 Bft) 95,65 %
09.06.2016 11:41 15,2 C 93 % 1013,2 hPa 0,2 l/m 3,4 km/h (1 Bft) W 269 0 min 0,000 mm 1,2 UV-I 177 W/m 14,1 C 15,2 C 4,8 km/h (1 Bft) 100,00 %
09.06.2016 11:42 15,2 C 93 % 1013,3 hPa 0,0 l/m 2,7 km/h (1 Bft) W 269 0 min 0,000 mm 1,2 UV-I 178 W/m 14,1 C 15,2 C 4,8 km/h (1 Bft) 95,65 %
09.06.2016 11:43 15,2 C 93 % 1013,3 hPa 0,0 l/m 2,5 km/h (1 Bft) W 269 0 min 0,000 mm 1,2 UV-I 178 W/m 14,1 C 15,2 C 4,8 km/h (1 Bft) 96,30 %
09.06.2016 11:44 15,2 C 92 % 1013,3 hPa 0,0 l/m 1,6 km/h (1 Bft) W 269 0 min 0,000 mm 1,2 UV-I 178 W/m 13,9 C 15,2 C 3,2 km/h (1 Bft) 92,31 %
09.06.2016 11:45 15,2 C 92 % 1013,2 hPa 0,0 l/m 1,2 km/h (1 Bft) W 269 0 min 0,000 mm 1,2 UV-I 179 W/m 13,9 C 15,2 C 1,6 km/h (1 Bft) 91,67 %
09.06.2016 11:46 15,3 C 92 % 1013,3 hPa 0,0 l/m 2,3 km/h (1 Bft) W-SW 237 0 min 0,000 mm 1,2 UV-I 180 W/m 14,0 C 15,3 C 3,2 km/h (1 Bft) 95,65 %
09.06.2016 11:47 15,3 C 92 % 1013,3 hPa 0,0 l/m 3,0 km/h (1 Bft) SW 214 0 min 0,000 mm 1,2 UV-I 182 W/m 14,0 C 15,3 C 4,8 km/h (1 Bft) 95,83 %
09.06.2016 11:48 15,2 C 92 % 1013,3 hPa 0,0 l/m 2,2 km/h (1 Bft) SW 214 0 min 0,000 mm 1,2 UV-I 183 W/m 13,9 C 15,2 C 3,2 km/h (1 Bft) 95,65 %
09.06.2016 11:49 15,2 C 92 % 1013,3 hPa 0,0 l/m 3,3 km/h (1 Bft) SW 214 0 min 0,000 mm 1,2 UV-I 185 W/m 13,9 C 15,2 C 4,8 km/h (1 Bft) 95,83 %
09.06.2016 11:50 15,2 C 92 % 1013,3 hPa 0,0 l/m 2,5 km/h (1 Bft) SW 214 0 min 0,000 mm 1,2 UV-I 183 W/m 13,9 C 15,2 C 3,2 km/h (1 Bft) 91,30 %
09.06.2016 11:51 15,2 C 92 % 1013,3 hPa 0,0 l/m 2,3 km/h (1 Bft) S-SW 205 0 min 0,000 mm 1,2 UV-I 184 W/m 13,9 C 15,2 C 4,8 km/h (1 Bft) 95,83 %
09.06.2016 11:52 15,2 C 92 % 1013,3 hPa 0,0 l/m 3,7 km/h (1 Bft) S-SW 203 0 min 0,000 mm 1,2 UV-I 186 W/m 13,9 C 15,2 C 4,8 km/h (1 Bft) 100,00 %
09.06.2016 11:53 15,3 C 92 % 1013,3 hPa 0,0 l/m 3,3 km/h (1 Bft) S-SW 201 0 min 0,000 mm 1,3 UV-I 189 W/m 14,0 C 15,3 C 6,4 km/h (2 Bft) 91,67 %
09.06.2016 11:54 15,3 C 91 % 1013,3 hPa 0,0 l/m 3,4 km/h (1 Bft) SW 228 0 min 0,000 mm 1,3 UV-I 193 W/m 13,8 C 15,3 C 6,4 km/h (2 Bft) 100,00 %
09.06.2016 11:55 15,3 C 91 % 1013,3 hPa 0,0 l/m 2,7 km/h (1 Bft) SW 226 0 min 0,000 mm 1,3 UV-I 200 W/m 13,8 C 15,3 C 3,2 km/h (1 Bft) 95,83 %
09.06.2016 11:56 15,3 C 91 % 1013,3 hPa 0,0 l/m 2,3 km/h (1 Bft) SW 226 0 min 0,000 mm 1,4 UV-I 205 W/m 13,8 C 15,3 C 3,2 km/h (1 Bft) 95,83 %
09.06.2016 11:57 15,3 C 92 % 1013,3 hPa 0,0 l/m 2,9 km/h (1 Bft) SW 226 0 min 0,000 mm 1,4 UV-I 211 W/m 14,0 C 15,3 C 3,2 km/h (1 Bft) 96,15 %
09.06.2016 11:58 15,3 C 92 % 1013,2 hPa 0,0 l/m 3,1 km/h (1 Bft) SW 226 0 min 0,000 mm 1,4 UV-I 214 W/m 14,0 C 15,3 C 4,8 km/h (1 Bft) 91,30 %
09.06.2016 11:59 15,4 C 92 % 1013,2 hPa 0,0 l/m 3,9 km/h (1 Bft) SW 226 0 min 0,000 mm 1,5 UV-I 219 W/m 14,1 C 15,4 C 4,8 km/h (1 Bft) 100,00 %
09.06.2016 12:00 15,4 C 92 % 1013,2 hPa 0,0 l/m 2,9 km/h (1 Bft) SW 226 0 min 0,102 mm 1,5 UV-I 224 W/m 14,1 C 15,4 C 4,8 km/h (1 Bft) 91,67 %
09.06.2016 12:01 15,4 C 92 % 1013,2 hPa 0,0 l/m 1,5 km/h (1 Bft) SW 226 0 min 0,000 mm 1,5 UV-I 226 W/m 14,1 C 15,4 C 3,2 km/h (1 Bft) 95,65 %
09.06.2016 12:02 15,4 C 91 % 1013,2 hPa 0,0 l/m 1,1 km/h (1 Bft) SW 226 0 min 0,000 mm 1,5 UV-I 235 W/m 13,9 C 15,4 C 3,2 km/h (1 Bft) 91,67 %
09.06.2016 12:03 15,3 C 91 % 1013,2 hPa 0,0 l/m 0,4 km/h (0 Bft) SW 226 0 min 0,000 mm 1,5 UV-I 240 W/m 13,8 C 15,3 C 1,6 km/h (1 Bft) 95,65 %
09.06.2016 12:04 15,4 C 92 % 1013,2 hPa 0,0 l/m 3,2 km/h (1 Bft) S-SW 210 0 min 0,000 mm 1,6 UV-I 246 W/m 14,1 C 15,4 C 4,8 km/h (1 Bft) 95,83 %
09.06.2016 12:05 15,4 C 91 % 1013,3 hPa 0,0 l/m 2,5 km/h (1 Bft) S-SW 205 0 min 0,000 mm 1,7 UV-I 252 W/m 13,9 C 15,4 C 3,2 km/h (1 Bft) 95,65 %
09.06.2016 12:06 15,4 C 91 % 1013,2 hPa 0,0 l/m 3,8 km/h (1 Bft) S-SW 205 0 min 0,000 mm 1,7 UV-I 258 W/m 13,9 C 15,4 C 4,8 km/h (1 Bft) 100,00 %
09.06.2016 12:07 15,4 C 91 % 1013,3 hPa 0,0 l/m 4,1 km/h (1 Bft) S 189 0 min 0,000 mm 1,8 UV-I 264 W/m 13,9 C 15,4 C 4,8 km/h (1 Bft) 100,00 %
09.06.2016 12:08 15,4 C 90 % 1013,3 hPa 0,0 l/m 3,9 km/h (1 Bft) S 189 0 min 0,000 mm 1,8 UV-I 270 W/m 13,8 C 15,4 C 4,8 km/h (1 Bft) 100,00 %
09.06.2016 12:09 15,4 C 90 % 1013,3 hPa 0,0 l/m 3,7 km/h (1 Bft) S-SW 206 0 min 0,000 mm 1,8 UV-I 276 W/m 13,8 C 15,4 C 4,8 km/h (1 Bft) 100,00 %
09.06.2016 12:10 15,4 C 90 % 1013,3 hPa 0,0 l/m 4,2 km/h (1 Bft) S-SW 205 0 min 0,000 mm 1,9 UV-I 283 W/m 13,8 C 15,4 C 6,4 km/h (2 Bft) 100,00 %
09.06.2016 12:11 15,4 C 89 % 1013,3 hPa 0,0 l/m 3,4 km/h (1 Bft) S-SW 208 0 min 0,000 mm 2,0 UV-I 289 W/m 13,6 C 15,4 C 4,8 km/h (1 Bft) 100,00 %
09.06.2016 12:12 15,4 C 90 % 1013,3 hPa 0,0 l/m 3,7 km/h (1 Bft) S-SW 207 0 min 0,000 mm 2,0 UV-I 299 W/m 13,8 C 15,4 C 4,8 km/h (1 Bft) 100,00 %
09.06.2016 12:13 15,5 C 91 % 1013,3 hPa 0,0 l/m 3,2 km/h (1 Bft) S-SW 207 0 min 0,000 mm 2,0 UV-I 307 W/m 14,0 C 15,5 C 4,8 km/h (1 Bft) 95,65 %
09.06.2016 12:14 15,6 C 91 % 1013,3 hPa 0,0 l/m 2,2 km/h (1 Bft) S-SW 207 0 min 0,000 mm 2,1 UV-I 315 W/m 14,1 C 15,6 C 3,2 km/h (1 Bft) 95,83 %
09.06.2016 12:15 15,6 C 90 % 1013,3 hPa 0,2 l/m 3,1 km/h (1 Bft) S-SW 207 0 min 0,000 mm 2,2 UV-I 323 W/m 14,0 C 15,6 C 4,8 km/h (1 Bft) 100,00 %
09.06.2016 12:16 15,6 C 90 % 1013,2 hPa 0,0 l/m 2,3 km/h (1 Bft) S-SW 204 0 min 0,000 mm 2,2 UV-I 328 W/m 14,0 C 15,6 C 4,8 km/h (1 Bft) 100,00 %
09.06.2016 12:17 15,6 C 90 % 1013,3 hPa 0,0 l/m 0,9 km/h (0 Bft) S-SW 204 0 min 0,000 mm 2,3 UV-I 333 W/m 14,0 C 15,6 C 1,6 km/h (1 Bft) 100,00 %
09.06.2016 12:18 15,6 C 90 % 1013,3 hPa 0,0 l/m 0,9 km/h (0 Bft) S-SW 204 0 min 0,000 mm 2,3 UV-I 338 W/m 14,0 C 15,6 C 1,6 km/h (1 Bft) 100,00 %
09.06.2016 12:19 15,6 C 90 % 1013,2 hPa 0,0 l/m 2,1 km/h (1 Bft) S-SW 204 0 min 0,000 mm 2,4 UV-I 339 W/m 14,0 C 15,6 C 3,2 km/h (1 Bft) 100,00 %
09.06.2016 12:20 15,7 C 91 % 1013,2 hPa 0,0 l/m 3,4 km/h (1 Bft) W-SW 248 0 min 0,000 mm 2,4 UV-I 340 W/m 14,2 C 15,7 C 4,8 km/h (1 Bft) 91,30 %
09.06.2016 12:21 15,7 C 92 % 1013,2 hPa 0,0 l/m 4,0 km/h (1 Bft) W 262 0 min 0,000 mm 2,4 UV-I 342 W/m 14,4 C 15,7 C 4,8 km/h (1 Bft) 100,00 %
09.06.2016 12:22 15,8 C 90 % 1013,2 hPa 0,0 l/m 4,0 km/h (1 Bft) W-SW 248 0 min 0,000 mm 2,4 UV-I 344 W/m 14,2 C 15,8 C 4,8 km/h (1 Bft) 100,00 %
09.06.2016 12:23 15,8 C 91 % 1013,2 hPa 0,0 l/m 3,4 km/h (1 Bft) W-SW 237 0 min 0,000 mm 2,4 UV-I 347 W/m 14,3 C 15,8 C 4,8 km/h (1 Bft) 100,00 %
09.06.2016 12:24 15,8 C 90 % 1013,2 hPa 0,0 l/m 1,4 km/h (1 Bft) W-SW 237 0 min 0,000 mm 2,5 UV-I 354 W/m 14,2 C 15,8 C 3,2 km/h (1 Bft) 95,65 %
09.06.2016 12:25 15,8 C 89 % 1013,2 hPa 0,0 l/m 1,5 km/h (1 Bft) SW 217 0 min 0,000 mm 2,5 UV-I 362 W/m 14,0 C 15,8 C 3,2 km/h (1 Bft) 100,00 %
09.06.2016 12:26 15,8 C 90 % 1013,2 hPa 0,0 l/m 2,4 km/h (1 Bft) SW 217 0 min 0,000 mm 2,6 UV-I 370 W/m 14,2 C 15,8 C 3,2 km/h (1 Bft) 95,65 %
09.06.2016 12:27 15,8 C 89 % 1013,2 hPa 0,0 l/m 2,0 km/h (1 Bft) SW 236 0 min 0,000 mm 2,6 UV-I 380 W/m 14,0 C 15,8 C 3,2 km/h (1 Bft) 100,00 %
09.06.2016 12:28 15,8 C 90 % 1013,2 hPa 0,0 l/m 2,5 km/h (1 Bft) W-SW 239 0 min 0,000 mm 2,7 UV-I 388 W/m 14,2 C 15,8 C 3,2 km/h (1 Bft) 100,00 %
09.06.2016 12:29 15,9 C 89 % 1013,2 hPa 0,0 l/m 2,3 km/h (1 Bft) W-SW 240 0 min 0,000 mm 2,8 UV-I 393 W/m 14,1 C 15,9 C 3,2 km/h (1 Bft) 95,83 %
09.06.2016 12:30 15,9 C 87 % 1013,2 hPa 0,0 l/m 3,7 km/h (1 Bft) W-SW 246 0 min 0,000 mm 2,8 UV-I 396 W/m 13,7 C 15,9 C 4,8 km/h (1 Bft) 95,65 %
09.06.2016 12:31 15,9 C 87 % 1013,1 hPa 0,0 l/m 4,4 km/h (1 Bft) W 259 0 min 0,000 mm 2,8 UV-I 393 W/m 13,7 C 15,9 C 6,4 km/h (2 Bft) 100,00 %
09.06.2016 12:32 15,9 C 87 % 1013,2 hPa 0,0 l/m 3,6 km/h (1 Bft) W 259 0 min 0,000 mm 2,8 UV-I 390 W/m 13,7 C 15,9 C 4,8 km/h (1 Bft) 95,65 %
09.06.2016 12:33 15,9 C 87 % 1013,2 hPa 0,0 l/m 2,5 km/h (1 Bft) W 259 0 min 0,000 mm 2,7 UV-I 386 W/m 13,7 C 15,9 C 3,2 km/h (1 Bft) 100,00 %
09.06.2016 12:34 16,0 C 89 % 1013,2 hPa 0,0 l/m 3,2 km/h (1 Bft) W-SW 256 0 min 0,000 mm 2,7 UV-I 381 W/m 14,2 C 16,0 C 4,8 km/h (1 Bft) 100,00 %
09.06.2016 12:35 16,0 C 89 % 1013,2 hPa 0,0 l/m 3,1 km/h (1 Bft) W-SW 237 0 min 0,000 mm 2,7 UV-I 377 W/m 14,2 C 16,0 C 4,8 km/h (1 Bft) 100,00 %
09.06.2016 12:36 16,1 C 87 % 1013,2 hPa 0,0 l/m 2,2 km/h (1 Bft) SW 236 0 min 0,000 mm 2,7 UV-I 372 W/m 13,9 C 16,1 C 3,2 km/h (1 Bft) 91,30 %
09.06.2016 12:37 16,1 C 86 % 1013,2 hPa 0,0 l/m 1,9 km/h (1 Bft) SW 236 0 min 0,000 mm 2,7 UV-I 366 W/m 13,8 C 16,1 C 3,2 km/h (1 Bft) 100,00 %
09.06.2016 12:38 16,1 C 86 % 1013,2 hPa 0,0 l/m 2,2 km/h (1 Bft) SW 235 0 min 0,000 mm 2,6 UV-I 362 W/m 13,8 C 16,1 C 3,2 km/h (1 Bft) 100,00 %
09.06.2016 12:39 16,0 C 85 % 1013,2 hPa 0,0 l/m 0,8 km/h (0 Bft) S 173 0 min 0,000 mm 2,6 UV-I 357 W/m 13,5 C 16,0 C 1,6 km/h (1 Bft) 100,00 %
09.06.2016 12:40 16,0 C 86 % 1013,2 hPa 0,0 l/m 4,3 km/h (1 Bft) S 176 0 min 0,000 mm 2,5 UV-I 353 W/m 13,7 C 16,0 C 8,0 km/h (2 Bft) 100,00 %
09.06.2016 12:41 16,0 C 86 % 1013,1 hPa 0,0 l/m 4,9 km/h (1 Bft) S-SW 203 0 min 0,000 mm 2,5 UV-I 346 W/m 13,7 C 16,0 C 6,4 km/h (2 Bft) 100,00 %
09.06.2016 12:42 16,0 C 88 % 1013,1 hPa 0,0 l/m 5,0 km/h (1 Bft) S 187 0 min 0,000 mm 2,5 UV-I 343 W/m 14,0 C 16,0 C 8,0 km/h (2 Bft) 100,00 %
09.06.2016 12:43 16,1 C 88 % 1013,2 hPa 0,0 l/m 1,5 km/h (1 Bft) S 187 0 min 0,000 mm 2,5 UV-I 341 W/m 14,1 C 16,1 C 4,8 km/h (1 Bft) 100,00 %
09.06.2016 12:44 16,1 C 86 % 1013,1 hPa 0,0 l/m 0,7 km/h (0 Bft) S 187 0 min 0,000 mm 2,5 UV-I 341 W/m 13,8 C 16,1 C 1,6 km/h (1 Bft) 100,00 %
09.06.2016 12:45 16,1 C 87 % 1013,1 hPa 0,0 l/m 2,7 km/h (1 Bft) S-SW 196 0 min 0,000 mm 2,5 UV-I 341 W/m 13,9 C 16,1 C 4,8 km/h (1 Bft) 95,65 %
09.06.2016 12:46 16,1 C 88 % 1013,1 hPa 0,0 l/m 3,8 km/h (1 Bft) S-SW 213 0 min 0,000 mm 2,5 UV-I 342 W/m 14,1 C 16,1 C 4,8 km/h (1 Bft) 100,00 %
09.06.2016 12:47 16,1 C 87 % 1013,1 hPa 0,0 l/m 1,7 km/h (1 Bft) S-SW 213 0 min 0,000 mm 2,5 UV-I 345 W/m 13,9 C 16,1 C 3,2 km/h (1 Bft) 100,00 %
09.06.2016 12:48 16,1 C 88 % 1013,1 hPa 0,0 l/m 1,3 km/h (1 Bft) W-SW 245 0 min 0,000 mm 2,5 UV-I 347 W/m 14,1 C 16,1 C 4,8 km/h (1 Bft) 100,00 %
09.06.2016 12:49 16,2 C 88 % 1013,1 hPa 0,0 l/m 4,0 km/h (1 Bft) W 262 0 min 0,000 mm 2,6 UV-I 351 W/m 14,2 C 16,2 C 4,8 km/h (1 Bft) 100,00 %
09.06.2016 12:50 16,2 C 89 % 1013,1 hPa 0,0 l/m 3,6 km/h (1 Bft) W 262 0 min 0,000 mm 2,6 UV-I 352 W/m 14,4 C 16,2 C 4,8 km/h (1 Bft) 100,00 %
09.06.2016 12:51 16,3 C 87 % 1013,1 hPa 0,0 l/m 1,8 km/h (1 Bft) W-SW 258 0 min 0,000 mm 2,6 UV-I 354 W/m 14,1 C 16,3 C 4,8 km/h (1 Bft) 100,00 %
09.06.2016 12:52 16,3 C 88 % 1013,1 hPa 0,0 l/m 3,4 km/h (1 Bft) W 259 0 min 0,000 mm 2,6 UV-I 357 W/m 14,3 C 16,3 C 6,4 km/h (2 Bft) 100,00 %
09.06.2016 12:53 16,3 C 88 % 1013,1 hPa 0,0 l/m 3,8 km/h (1 Bft) W-SW 253 0 min 0,000 mm 2,6 UV-I 357 W/m 14,3 C 16,3 C 4,8 km/h (1 Bft) 100,00 %
09.06.2016 12:54 16,4 C 89 % 1013,1 hPa 0,0 l/m 2,0 km/h (1 Bft) W-SW 253 0 min 0,000 mm 2,7 UV-I 360 W/m 14,6 C 16,4 C 3,2 km/h (1 Bft) 100,00 %
09.06.2016 12:55 16,5 C 89 % 1013,1 hPa 0,0 l/m 1,9 km/h (1 Bft) W-SW 253 0 min 0,000 mm 2,7 UV-I 365 W/m 14,7 C 16,5 C 3,2 km/h (1 Bft) 95,83 %
09.06.2016 12:56 16,4 C 86 % 1013,1 hPa 0,0 l/m 2,2 km/h (1 Bft) W-SW 253 0 min 0,000 mm 2,8 UV-I 372 W/m 14,1 C 16,4 C 4,8 km/h (1 Bft) 100,00 %
09.06.2016 12:57 16,4 C 87 % 1013,1 hPa 0,0 l/m 2,0 km/h (1 Bft) W-SW 253 0 min 0,000 mm 2,8 UV-I 381 W/m 14,2 C 16,4 C 4,8 km/h (1 Bft) 100,00 %
09.06.2016 12:58 16,4 C 86 % 1013,1 hPa 0,0 l/m 1,9 km/h (1 Bft) W-SW 257 0 min 0,000 mm 2,9 UV-I 388 W/m 14,1 C 16,4 C 3,2 km/h (1 Bft) 100,00 %
09.06.2016 12:59 16,5 C 88 % 1013,1 hPa 0,0 l/m 3,2 km/h (1 Bft) W 259 0 min 0,000 mm 2,9 UV-I 394 W/m 14,5 C 16,5 C 3,2 km/h (1 Bft) 100,00 %
09.06.2016 13:00 16,5 C 87 % 1013,1 hPa 0,0 l/m 2,2 km/h (1 Bft) W 259 0 min 0,000 mm 2,9 UV-I 397 W/m 14,3 C 16,5 C 4,8 km/h (1 Bft) 95,83 %
09.06.2016 13:01 16,6 C 89 % 1013,1 hPa 0,0 l/m 1,8 km/h (1 Bft) W-SW 250 0 min 0,178 mm 2,9 UV-I 393 W/m 14,8 C 16,6 C 3,2 km/h (1 Bft) 100,00 %
09.06.2016 13:02 16,6 C 87 % 1013,1 hPa 0,0 l/m 1,9 km/h (1 Bft) W-SW 250 0 min 0,000 mm 2,9 UV-I 386 W/m 14,4 C 16,6 C 3,2 km/h (1 Bft) 100,00 %
09.06.2016 13:03 16,6 C 88 % 1013,1 hPa 0,0 l/m 1,4 km/h (1 Bft) W-SW 248 0 min 0,000 mm 2,8 UV-I 376 W/m 14,6 C 16,6 C 3,2 km/h (1 Bft) 100,00 %
09.06.2016 13:04 16,6 C 86 % 1013,1 hPa 0,0 l/m 1,5 km/h (1 Bft) W-SW 247 0 min 0,000 mm 2,8 UV-I 368 W/m 14,2 C 16,6 C 3,2 km/h (1 Bft) 95,65 %
09.06.2016 13:05 16,6 C 87 % 1013,1 hPa 0,0 l/m 2,7 km/h (1 Bft) W-SW 238 0 min 0,000 mm 2,7 UV-I 359 W/m 14,4 C 16,6 C 4,8 km/h (1 Bft) 100,00 %
09.06.2016 13:06 16,6 C 87 % 1013,2 hPa 0,0 l/m 3,8 km/h (1 Bft) W-SW 251 0 min 0,000 mm 2,7 UV-I 351 W/m 14,4 C 16,6 C 6,4 km/h (2 Bft) 95,65 %
09.06.2016 13:07 16,5 C 86 % 1013,1 hPa 0,0 l/m 4,5 km/h (1 Bft) W-SW 255 0 min 0,000 mm 2,6 UV-I 342 W/m 14,1 C 16,5 C 4,8 km/h (1 Bft) 100,00 %
09.06.2016 13:08 16,5 C 86 % 1013,2 hPa 0,0 l/m 4,1 km/h (1 Bft) W 264 0 min 0,000 mm 2,6 UV-I 333 W/m 14,1 C 16,5 C 6,4 km/h (2 Bft) 100,00 %
09.06.2016 13:09 16,5 C 87 % 1013,1 hPa 0,0 l/m 3,0 km/h (1 Bft) W 267 0 min 0,000 mm 2,5 UV-I 323 W/m 14,3 C 16,5 C 4,8 km/h (1 Bft) 95,83 %
09.06.2016 13:10 16,5 C 87 % 1013,1 hPa 0,0 l/m 3,1 km/h (1 Bft) W 267 0 min 0,000 mm 2,4 UV-I 313 W/m 14,3 C 16,5 C 4,8 km/h (1 Bft) 100,00 %
09.06.2016 13:11 16,5 C 88 % 1013,1 hPa 0,0 l/m 3,2 km/h (1 Bft) W 273 0 min 0,000 mm 2,3 UV-I 303 W/m 14,5 C 16,5 C 4,8 km/h (1 Bft) 100,00 %
09.06.2016 13:12 16,4 C 86 % 1013,1 hPa 0,0 l/m 0,7 km/h (0 Bft) W 273 0 min 0,000 mm 2,3 UV-I 295 W/m 14,1 C 16,4 C 3,2 km/h (1 Bft) 91,30 %
09.06.2016 13:13 16,5 C 87 % 1013,2 hPa 0,0 l/m 0,7 km/h (0 Bft) W 273 0 min 0,000 mm 2,2 UV-I 288 W/m 14,3 C 16,5 C 3,2 km/h (1 Bft) 100,00 %
09.06.2016 13:14 16,6 C 89 % 1013,2 hPa 0,0 l/m 1,2 km/h (1 Bft) W 271 0 min 0,000 mm 2,2 UV-I 285 W/m 14,8 C 16,6 C 3,2 km/h (1 Bft) 100,00 %
09.06.2016 13:15 16,6 C 87 % 1013,1 hPa 0,0 l/m 2,3 km/h (1 Bft) SW 232 0 min 0,000 mm 2,2 UV-I 286 W/m 14,4 C 16,6 C 4,8 km/h (1 Bft) 100,00 %
09.06.2016 13:16 16,6 C 88 % 1013,1 hPa 0,0 l/m 2,3 km/h (1 Bft) SW 236 0 min 0,000 mm 2,2 UV-I 288 W/m 14,6 C 16,6 C 3,2 km/h (1 Bft) 100,00 %
09.06.2016 13:17 16,6 C 89 % 1013,1 hPa 0,0 l/m 1,7 km/h (1 Bft) SW 236 0 min 0,000 mm 2,2 UV-I 290 W/m 14,8 C 16,6 C 3,2 km/h (1 Bft) 100,00 %
09.06.2016 13:18 16,6 C 88 % 1013,0 hPa 0,0 l/m 4,9 km/h (1 Bft) SW 223 0 min 0,000 mm 2,2 UV-I 293 W/m 14,6 C 16,6 C 6,4 km/h (2 Bft) 100,00 %
09.06.2016 13:19 16,7 C 88 % 1013,0 hPa 0,0 l/m 4,3 km/h (1 Bft) W-SW 240 0 min 0,000 mm 2,2 UV-I 293 W/m 14,7 C 16,7 C 6,4 km/h (2 Bft) 100,00 %
09.06.2016 13:20 16,7 C 88 % 1013,1 hPa 0,0 l/m 3,2 km/h (1 Bft) W-SW 240 0 min 0,000 mm 2,2 UV-I 292 W/m 14,7 C 16,7 C 4,8 km/h (1 Bft) 95,65 %
09.06.2016 13:21 16,7 C 88 % 1013,1 hPa 0,0 l/m 2,5 km/h (1 Bft) W-SW 242 0 min 0,000 mm 2,2 UV-I 291 W/m 14,7 C 16,7 C 4,8 km/h (1 Bft) 95,83 %
09.06.2016 13:22 16,7 C 88 % 1013,1 hPa 0,0 l/m 3,4 km/h (1 Bft) W-SW 249 0 min 0,000 mm 2,2 UV-I 290 W/m 14,7 C 16,7 C 4,8 km/h (1 Bft) 100,00 %
09.06.2016 13:23 16,7 C 86 % 1013,1 hPa 0,0 l/m 3,8 km/h (1 Bft) W-SW 256 0 min 0,000 mm 2,2 UV-I 288 W/m 14,3 C 16,7 C 6,4 km/h (2 Bft) 100,00 %
09.06.2016 13:24 16,7 C 86 % 1013,0 hPa 0,0 l/m 3,1 km/h (1 Bft) W-SW 256 0 min 0,000 mm 2,2 UV-I 288 W/m 14,3 C 16,7 C 4,8 km/h (1 Bft) 100,00 %
09.06.2016 13:25 16,7 C 86 % 1013,1 hPa 0,0 l/m 2,3 km/h (1 Bft) W-SW 256 0 min 0,000 mm 2,2 UV-I 288 W/m 14,3 C 16,7 C 3,2 km/h (1 Bft) 100,00 %
09.06.2016 13:26 16,7 C 87 % 1013,1 hPa 0,0 l/m 2,0 km/h (1 Bft) W-SW 256 0 min 0,000 mm 2,2 UV-I 286 W/m 14,5 C 16,7 C 3,2 km/h (1 Bft) 100,00 %
09.06.2016 13:27 16,7 C 86 % 1013,1 hPa 0,0 l/m 0,6 km/h (0 Bft) W-SW 256 0 min 0,000 mm 2,2 UV-I 282 W/m 14,3 C 16,7 C 1,6 km/h (1 Bft) 90,91 %
09.06.2016 13:28 16,6 C 87 % 1013,1 hPa 0,0 l/m 3,5 km/h (1 Bft) W 275 0 min 0,000 mm 2,1 UV-I 278 W/m 14,4 C 16,6 C 6,4 km/h (2 Bft) 96,30 %
09.06.2016 13:29 16,7 C 88 % 1013,1 hPa 0,0 l/m 2,8 km/h (1 Bft) W 275 0 min 0,000 mm 2,1 UV-I 271 W/m 14,7 C 16,7 C 4,8 km/h (1 Bft) 96,00 %
09.06.2016 13:30 16,7 C 89 % 1013,1 hPa 0,0 l/m 3,3 km/h (1 Bft) W 275 0 min 0,000 mm 2,0 UV-I 265 W/m 14,9 C 16,7 C 4,8 km/h (1 Bft) 100,00 %
09.06.2016 13:31 16,7 C 88 % 1013,0 hPa 0,0 l/m 1,1 km/h (1 Bft) W 275 0 min 0,000 mm 2,0 UV-I 260 W/m 14,7 C 16,7 C 3,2 km/h (1 Bft) 95,65 %
09.06.2016 13:32 16,6 C 87 % 1013,1 hPa 0,0 l/m 2,3 km/h (1 Bft) W 275 0 min 0,000 mm 2,0 UV-I 256 W/m 14,4 C 16,6 C 3,2 km/h (1 Bft) 95,83 %
09.06.2016 13:33 16,6 C 86 % 1013,1 hPa 0,0 l/m 3,9 km/h (1 Bft) NW 305 0 min 0,000 mm 1,9 UV-I 255 W/m 14,2 C 16,6 C 4,8 km/h (1 Bft) 95,65 %
09.06.2016 13:34 16,7 C 87 % 1013,0 hPa 0,0 l/m 3,4 km/h (1 Bft) W-NW 302 0 min 0,000 mm 1,9 UV-I 253 W/m 14,5 C 16,7 C 4,8 km/h (1 Bft) 100,00 %
09.06.2016 13:35 16,6 C 85 % 1013,0 hPa 0,0 l/m 1,4 km/h (1 Bft) W-NW 302 0 min 0,000 mm 1,9 UV-I 255 W/m 14,1 C 16,6 C 3,2 km/h (1 Bft) 91,30 %
09.06.2016 13:36 16,6 C 85 % 1013,0 hPa 0,0 l/m 1,5 km/h (1 Bft) W-NW 302 0 min 0,000 mm 2,0 UV-I 257 W/m 14,1 C 16,6 C 3,2 km/h (1 Bft) 100,00 %
09.06.2016 13:37 16,6 C 86 % 1013,0 hPa 0,0 l/m 2,3 km/h (1 Bft) W-NW 300 0 min 0,000 mm 2,0 UV-I 257 W/m 14,2 C 16,6 C 4,8 km/h (1 Bft) 95,83 %
09.06.2016 13:38 16,6 C 85 % 1013,0 hPa 0,0 l/m 2,9 km/h (1 Bft) W-NW 294 0 min 0,000 mm 2,0 UV-I 257 W/m 14,1 C 16,6 C 4,8 km/h (1 Bft) 95,65 %
09.06.2016 13:39 16,6 C 86 % 1012,9 hPa 0,0 l/m 2,0 km/h (1 Bft) W-NW 292 0 min 0,000 mm 1,9 UV-I 255 W/m 14,2 C 16,6 C 4,8 km/h (1 Bft) 96,15 %
09.06.2016 13:40 16,6 C 86 % 1013,0 hPa 0,0 l/m 4,7 km/h (1 Bft) W-NW 288 0 min 0,000 mm 1,9 UV-I 251 W/m 14,2 C 16,6 C 6,4 km/h (2 Bft) 91,30 %
09.06.2016 13:41 16,6 C 85 % 1012,9 hPa 0,0 l/m 3,6 km/h (1 Bft) NW 306 0 min 0,000 mm 1,9 UV-I 247 W/m 14,1 C 16,6 C 4,8 km/h (1 Bft) 100,00 %
09.06.2016 13:42 16,6 C 86 % 1012,9 hPa 0,0 l/m 4,8 km/h (1 Bft) W-NW 284 0 min 0,000 mm 1,8 UV-I 243 W/m 14,2 C 16,6 C 6,4 km/h (2 Bft) 95,65 %
09.06.2016 13:43 16,6 C 88 % 1012,9 hPa 0,0 l/m 3,9 km/h (1 Bft) W 261 0 min 0,000 mm 1,8 UV-I 239 W/m 14,6 C 16,6 C 9,7 km/h (2 Bft) 95,83 %
09.06.2016 13:44 16,6 C 86 % 1012,9 hPa 0,0 l/m 5,6 km/h (1 Bft) W 259 0 min 0,000 mm 1,7 UV-I 237 W/m 14,2 C 16,6 C 6,4 km/h (2 Bft) 92,31 %
09.06.2016 13:45 16,6 C 86 % 1012,9 hPa 0,0 l/m 5,8 km/h (2 Bft) W-SW 250 0 min 0,000 mm 1,7 UV-I 236 W/m 14,2 C 16,6 C 6,4 km/h (2 Bft) 100,00 %
09.06.2016 13:46 16,6 C 84 % 1012,9 hPa 0,0 l/m 4,5 km/h (1 Bft) W 273 0 min 0,000 mm 1,8 UV-I 237 W/m 13,9 C 16,6 C 6,4 km/h (2 Bft) 91,30 %
09.06.2016 13:47 16,6 C 85 % 1012,9 hPa 0,0 l/m 5,0 km/h (1 Bft) W-SW 258 0 min 0,000 mm 1,8 UV-I 238 W/m 14,1 C 16,6 C 6,4 km/h (2 Bft) 95,83 %
09.06.2016 13:48 16,6 C 85 % 1012,9 hPa 0,0 l/m 4,5 km/h (1 Bft) W-SW 258 0 min 0,000 mm 1,8 UV-I 239 W/m 14,1 C 16,6 C 4,8 km/h (1 Bft) 100,00 %
09.06.2016 13:49 16,6 C 85 % 1012,9 hPa 0,0 l/m 2,3 km/h (1 Bft) W-SW 258 0 min 0,000 mm 1,8 UV-I 238 W/m 14,1 C 16,6 C 3,2 km/h (1 Bft) 95,83 %
09.06.2016 13:50 16,6 C 85 % 1012,9 hPa 0,0 l/m 3,3 km/h (1 Bft) W 269 0 min 0,000 mm 1,8 UV-I 237 W/m 14,1 C 16,6 C 4,8 km/h (1 Bft) 95,65 %
09.06.2016 13:51 16,6 C 85 % 1012,9 hPa 0,0 l/m 1,6 km/h (1 Bft) W 269 0 min 0,000 mm 1,8 UV-I 237 W/m 14,1 C 16,6 C 3,2 km/h (1 Bft) 95,83 %
09.06.2016 13:52 16,6 C 84 % 1012,9 hPa 0,0 l/m 0,4 km/h (0 Bft) W 269 0 min 0,000 mm 1,8 UV-I 237 W/m 13,9 C 16,6 C 1,6 km/h (1 Bft) 95,65 %
09.06.2016 13:53 16,6 C 86 % 1012,9 hPa 0,0 l/m 2,1 km/h (1 Bft) W 269 0 min 0,000 mm 1,8 UV-I 236 W/m 14,2 C 16,6 C 3,2 km/h (1 Bft) 95,83 %
09.06.2016 13:54 16,6 C 84 % 1012,9 hPa 0,0 l/m 2,0 km/h (1 Bft) W 269 0 min 0,000 mm 1,8 UV-I 235 W/m 13,9 C 16,6 C 4,8 km/h (1 Bft) 100,00 %
09.06.2016 13:55 16,6 C 87 % 1012,9 hPa 0,0 l/m 2,8 km/h (1 Bft) W 269 0 min 0,000 mm 1,8 UV-I 234 W/m 14,4 C 16,6 C 3,2 km/h (1 Bft) 94,29 %
09.06.2016 13:56 16,6 C 87 % 1012,9 hPa 0,0 l/m 1,5 km/h (1 Bft) W 269 0 min 0,000 mm 1,7 UV-I 233 W/m 14,4 C 16,6 C 3,2 km/h (1 Bft) 100,00 %
09.06.2016 13:57 16,6 C 87 % 1012,8 hPa 0,0 l/m 1,9 km/h (1 Bft) W 270 0 min 0,000 mm 1,7 UV-I 230 W/m 14,4 C 16,6 C 3,2 km/h (1 Bft) 95,65 %
09.06.2016 13:58 16,6 C 86 % 1012,8 hPa 0,0 l/m 0,5 km/h (0 Bft) W 270 0 min 0,000 mm 1,7 UV-I 229 W/m 14,2 C 16,6 C 3,2 km/h (1 Bft) 100,00 %
09.06.2016 13:59 16,7 C 87 % 1012,8 hPa 0,0 l/m 4,8 km/h (1 Bft) W 271 0 min 0,000 mm 1,7 UV-I 229 W/m 14,5 C 16,7 C 6,4 km/h (2 Bft) 96,15 %
09.06.2016 14:00 16,7 C 87 % 1012,8 hPa 0,0 l/m 3,6 km/h (1 Bft) W 273 0 min 0,152 mm 1,7 UV-I 229 W/m 14,5 C 16,7 C 4,8 km/h (1 Bft) 95,83 %
09.06.2016 14:01 16,7 C 89 % 1012,8 hPa 0,0 l/m 4,1 km/h (1 Bft) W 264 0 min 0,000 mm 1,7 UV-I 229 W/m 14,9 C 16,7 C 6,4 km/h (2 Bft) 100,00 %
09.06.2016 14:02 16,8 C 89 % 1012,8 hPa 0,0 l/m 3,8 km/h (1 Bft) W 264 0 min 0,000 mm 1,7 UV-I 229 W/m 15,0 C 16,8 C 6,4 km/h (2 Bft) 96,30 %
09.06.2016 14:03 16,8 C 89 % 1012,8 hPa 0,0 l/m 2,6 km/h (1 Bft) W 264 0 min 0,000 mm 1,7 UV-I 229 W/m 15,0 C 16,8 C 4,8 km/h (1 Bft) 95,65 %
09.06.2016 14:04 16,8 C 88 % 1012,8 hPa 0,0 l/m 2,3 km/h (1 Bft) W 264 0 min 0,000 mm 1,7 UV-I 229 W/m 14,8 C 16,8 C 3,2 km/h (1 Bft) 91,67 %
09.06.2016 14:05 16,8 C 88 % 1012,8 hPa 0,0 l/m 1,7 km/h (1 Bft) W 264 0 min 0,000 mm 1,7 UV-I 227 W/m 14,8 C 16,8 C 3,2 km/h (1 Bft) 95,65 %
09.06.2016 14:06 16,8 C 89 % 1012,8 hPa 0,0 l/m 1,7 km/h (1 Bft) W 264 0 min 0,000 mm 1,7 UV-I 226 W/m 15,0 C 16,8 C 3,2 km/h (1 Bft) 100,00 %
09.06.2016 14:07 16,7 C 87 % 1012,8 hPa 0,0 l/m 4,1 km/h (1 Bft) W 269 0 min 0,000 mm 1,6 UV-I 224 W/m 14,5 C 16,7 C 4,8 km/h (1 Bft) 95,65 %
09.06.2016 14:08 16,7 C 88 % 1012,8 hPa 0,0 l/m 3,9 km/h (1 Bft) W 269 0 min 0,000 mm 1,6 UV-I 222 W/m 14,7 C 16,7 C 4,8 km/h (1 Bft) 100,00 %
09.06.2016 14:09 16,7 C 87 % 1012,7 hPa 0,0 l/m 2,7 km/h (1 Bft) W-SW 250 0 min 0,000 mm 1,6 UV-I 218 W/m 14,5 C 16,7 C 4,8 km/h (1 Bft) 95,65 %
09.06.2016 14:10 16,7 C 88 % 1012,8 hPa 0,0 l/m 3,6 km/h (1 Bft) W-SW 240 0 min 0,000 mm 1,6 UV-I 216 W/m 14,7 C 16,7 C 6,4 km/h (2 Bft) 100,00 %
09.06.2016 14:11 16,6 C 88 % 1012,7 hPa 0,0 l/m 4,2 km/h (1 Bft) SW 219 0 min 0,000 mm 1,6 UV-I 214 W/m 14,6 C 16,6 C 6,4 km/h (2 Bft) 96,15 %
09.06.2016 14:12 16,6 C 87 % 1012,7 hPa 0,0 l/m 5,7 km/h (1 Bft) SW 226 0 min 0,000 mm 1,5 UV-I 211 W/m 14,4 C 16,6 C 8,0 km/h (2 Bft) 95,83 %
09.06.2016 14:13 16,6 C 87 % 1012,7 hPa 0,0 l/m 4,6 km/h (1 Bft) SW 225 0 min 0,000 mm 1,5 UV-I 207 W/m 14,4 C 16,6 C 8,0 km/h (2 Bft) 100,00 %
09.06.2016 14:14 16,5 C 87 % 1012,7 hPa 0,0 l/m 3,9 km/h (1 Bft) SW 234 0 min 0,000 mm 1,5 UV-I 204 W/m 14,3 C 16,5 C 6,4 km/h (2 Bft) 100,00 %
09.06.2016 14:15 16,5 C 88 % 1012,7 hPa 0,0 l/m 6,1 km/h (2 Bft) SW 218 0 min 0,000 mm 1,5 UV-I 202 W/m 14,5 C 16,5 C 8,0 km/h (2 Bft) 95,65 %
09.06.2016 14:16 16,5 C 88 % 1012,7 hPa 0,0 l/m 4,2 km/h (1 Bft) S-SW 211 0 min 0,000 mm 1,4 UV-I 199 W/m 14,5 C 16,5 C 6,4 km/h (2 Bft) 100,00 %
09.06.2016 14:17 16,5 C 88 % 1012,7 hPa 0,0 l/m 4,0 km/h (1 Bft) S-SW 208 0 min 0,000 mm 1,4 UV-I 196 W/m 14,5 C 16,5 C 6,4 km/h (2 Bft) 100,00 %
09.06.2016 14:18 16,4 C 88 % 1012,7 hPa 0,0 l/m 4,2 km/h (1 Bft) SW 227 0 min 0,000 mm 1,4 UV-I 194 W/m 14,4 C 16,4 C 6,4 km/h (2 Bft) 100,00 %
09.06.2016 14:19 16,4 C 88 % 1012,7 hPa 0,0 l/m 3,6 km/h (1 Bft) S-SW 198 0 min 0,000 mm 1,4 UV-I 192 W/m 14,4 C 16,4 C 6,4 km/h (2 Bft) 100,00 %
09.06.2016 14:20 16,4 C 88 % 1012,6 hPa 0,0 l/m 3,6 km/h (1 Bft) SW 229 0 min 0,000 mm 1,3 UV-I 190 W/m 14,4 C 16,4 C 4,8 km/h (1 Bft) 95,83 %
09.06.2016 14:21 16,4 C 88 % 1012,7 hPa 0,0 l/m 4,5 km/h (1 Bft) S-SW 200 0 min 0,000 mm 1,3 UV-I 188 W/m 14,4 C 16,4 C 6,4 km/h (2 Bft) 100,00 %
09.06.2016 14:22 16,4 C 88 % 1012,7 hPa 0,0 l/m 3,6 km/h (1 Bft) SW 222 0 min 0,000 mm 1,3 UV-I 186 W/m 14,4 C 16,4 C 4,8 km/h (1 Bft) 100,00 %
09.06.2016 14:23 16,4 C 89 % 1012,7 hPa 0,0 l/m 5,5 km/h (1 Bft) SW 221 0 min 0,000 mm 1,3 UV-I 184 W/m 14,6 C 16,4 C 8,0 km/h (2 Bft) 100,00 %
09.06.2016 14:24 16,4 C 89 % 1012,7 hPa 0,0 l/m 6,6 km/h (2 Bft) SW 220 0 min 0,000 mm 1,3 UV-I 182 W/m 14,6 C 16,3 C 8,0 km/h (2 Bft) 100,00 %
09.06.2016 14:25 16,4 C 89 % 1012,7 hPa 0,0 l/m 6,8 km/h (2 Bft) W-SW 243 0 min 0,000 mm 1,3 UV-I 181 W/m 14,6 C 16,2 C 9,7 km/h (2 Bft) 100,00 %
09.06.2016 14:26 16,4 C 89 % 1012,6 hPa 0,0 l/m 5,0 km/h (1 Bft) S-SW 207 0 min 0,000 mm 1,3 UV-I 181 W/m 14,6 C 16,4 C 8,0 km/h (2 Bft) 100,00 %
09.06.2016 14:27 16,3 C 89 % 1012,6 hPa 0,0 l/m 4,3 km/h (1 Bft) SW 224 0 min 0,000 mm 1,2 UV-I 179 W/m 14,5 C 16,3 C 6,4 km/h (2 Bft) 100,00 %
09.06.2016 14:28 16,3 C 89 % 1012,7 hPa 0,0 l/m 5,1 km/h (1 Bft) SW 229 0 min 0,000 mm 1,2 UV-I 181 W/m 14,5 C 16,3 C 6,4 km/h (2 Bft) 100,00 %
09.06.2016 14:29 16,3 C 89 % 1012,6 hPa 0,0 l/m 5,4 km/h (1 Bft) SW 224 0 min 0,000 mm 1,2 UV-I 181 W/m 14,5 C 16,3 C 6,4 km/h (2 Bft) 100,00 %
09.06.2016 14:30 16,3 C 89 % 1012,6 hPa 0,0 l/m 3,2 km/h (1 Bft) SW 230 0 min 0,000 mm 1,2 UV-I 181 W/m 14,5 C 16,3 C 4,8 km/h (1 Bft) 100,00 %
09.06.2016 14:31 16,3 C 89 % 1012,6 hPa 0,0 l/m 2,6 km/h (1 Bft) SW 217 0 min 0,000 mm 1,2 UV-I 182 W/m 14,5 C 16,3 C 4,8 km/h (1 Bft) 100,00 %
09.06.2016 14:32 16,3 C 90 % 1012,6 hPa 0,0 l/m 2,7 km/h (1 Bft) SW 215 0 min 0,000 mm 1,2 UV-I 183 W/m 14,7 C 16,3 C 4,8 km/h (1 Bft) 100,00 %
09.06.2016 14:33 16,3 C 90 % 1012,6 hPa 0,0 l/m 2,8 km/h (1 Bft) SW 214 0 min 0,000 mm 1,2 UV-I 185 W/m 14,7 C 16,3 C 4,8 km/h (1 Bft) 100,00 %
09.06.2016 14:34 16,3 C 90 % 1012,6 hPa 0,0 l/m 3,9 km/h (1 Bft) S-SW 205 0 min 0,000 mm 1,2 UV-I 185 W/m 14,7 C 16,3 C 6,4 km/h (2 Bft) 100,00 %
09.06.2016 14:35 16,3 C 90 % 1012,6 hPa 0,0 l/m 6,0 km/h (2 Bft) SW 232 0 min 0,000 mm 1,2 UV-I 186 W/m 14,7 C 16,3 C 8,0 km/h (2 Bft) 100,00 %
09.06.2016 14:36 16,3 C 89 % 1012,6 hPa 0,0 l/m 6,9 km/h (2 Bft) W-SW 242 0 min 0,000 mm 1,2 UV-I 186 W/m 14,5 C 16,0 C 8,0 km/h (2 Bft) 100,00 %
09.06.2016 14:37 16,3 C 89 % 1012,7 hPa 0,0 l/m 4,2 km/h (1 Bft) SW 229 0 min 0,000 mm 1,2 UV-I 186 W/m 14,5 C 16,3 C 8,0 km/h (2 Bft) 95,83 %
09.06.2016 14:38 16,3 C 89 % 1012,6 hPa 0,0 l/m 5,2 km/h (1 Bft) SW 235 0 min 0,000 mm 1,2 UV-I 188 W/m 14,5 C 16,3 C 6,4 km/h (2 Bft) 91,67 %
09.06.2016 14:39 16,3 C 89 % 1012,6 hPa 0,0 l/m 4,9 km/h (1 Bft) SW 225 0 min 0,000 mm 1,2 UV-I 188 W/m 14,5 C 16,3 C 6,4 km/h (2 Bft) 95,65 %
09.06.2016 14:40 16,3 C 90 % 1012,6 hPa 0,0 l/m 4,8 km/h (1 Bft) SW 231 0 min 0,000 mm 1,2 UV-I 188 W/m 14,7 C 16,3 C 6,4 km/h (2 Bft) 100,00 %
09.06.2016 14:41 16,4 C 89 % 1012,6 hPa 0,0 l/m 6,3 km/h (2 Bft) S-SW 209 0 min 0,000 mm 1,2 UV-I 188 W/m 14,6 C 16,4 C 9,7 km/h (2 Bft) 100,00 %
09.06.2016 14:42 16,4 C 90 % 1012,6 hPa 0,0 l/m 3,8 km/h (1 Bft) SW 214 0 min 0,000 mm 1,2 UV-I 188 W/m 14,8 C 16,4 C 6,4 km/h (2 Bft) 100,00 %
09.06.2016 14:43 16,4 C 90 % 1012,6 hPa 0,0 l/m 3,4 km/h (1 Bft) SW 228 0 min 0,000 mm 1,2 UV-I 188 W/m 14,8 C 16,4 C 4,8 km/h (1 Bft) 100,00 %
09.06.2016 14:44 16,4 C 89 % 1012,6 hPa 0,0 l/m 6,4 km/h (2 Bft) S-SO 162 0 min 0,000 mm 1,2 UV-I 188 W/m 14,6 C 16,4 C 8,0 km/h (2 Bft) 100,00 %
09.06.2016 14:45 16,4 C 90 % 1012,6 hPa 0,0 l/m 4,4 km/h (1 Bft) S 188 0 min 0,000 mm 1,2 UV-I 188 W/m 14,8 C 16,4 C 8,0 km/h (2 Bft) 100,00 %
09.06.2016 14:46 16,4 C 89 % 1012,6 hPa 0,0 l/m 4,5 km/h (1 Bft) S-SW 207 0 min 0,000 mm 1,2 UV-I 187 W/m 14,6 C 16,4 C 6,4 km/h (2 Bft) 100,00 %
09.06.2016 14:47 16,3 C 88 % 1012,6 hPa 0,0 l/m 3,8 km/h (1 Bft) S-SW 209 0 min 0,000 mm 1,1 UV-I 186 W/m 14,3 C 16,3 C 6,4 km/h (2 Bft) 100,00 %
09.06.2016 14:48 16,3 C 88 % 1012,6 hPa 0,0 l/m 4,6 km/h (1 Bft) S-SW 210 0 min 0,000 mm 1,1 UV-I 185 W/m 14,3 C 16,3 C 6,4 km/h (2 Bft) 100,00 %
09.06.2016 14:49 16,3 C 89 % 1012,6 hPa 0,0 l/m 4,4 km/h (1 Bft) SW 234 0 min 0,000 mm 1,1 UV-I 183 W/m 14,5 C 16,3 C 6,4 km/h (2 Bft) 95,65 %
09.06.2016 14:50 16,3 C 89 % 1012,6 hPa 0,0 l/m 4,1 km/h (1 Bft) S-SW 211 0 min 0,000 mm 1,1 UV-I 181 W/m 14,5 C 16,3 C 4,8 km/h (1 Bft) 100,00 %
09.06.2016 14:51 16,3 C 90 % 1012,6 hPa 0,0 l/m 5,8 km/h (2 Bft) SW 217 0 min 0,000 mm 1,1 UV-I 181 W/m 14,7 C 16,3 C 8,0 km/h (2 Bft) 95,65 %
09.06.2016 14:52 16,3 C 88 % 1012,6 hPa 0,0 l/m 4,5 km/h (1 Bft) S 175 0 min 0,000 mm 1,1 UV-I 179 W/m 14,3 C 16,3 C 6,4 km/h (2 Bft) 100,00 %
09.06.2016 14:53 16,3 C 88 % 1012,6 hPa 0,0 l/m 2,9 km/h (1 Bft) S 188 0 min 0,000 mm 1,1 UV-I 178 W/m 14,3 C 16,3 C 4,8 km/h (1 Bft) 100,00 %
09.06.2016 14:54 16,3 C 88 % 1012,6 hPa 0,0 l/m 4,4 km/h (1 Bft) SW 233 0 min 0,000 mm 1,1 UV-I 177 W/m 14,3 C 16,3 C 6,4 km/h (2 Bft) 100,00 %
09.06.2016 14:55 16,3 C 88 % 1012,6 hPa 0,0 l/m 4,4 km/h (1 Bft) S-SW 197 0 min 0,000 mm 1,1 UV-I 176 W/m 14,3 C 16,3 C 6,4 km/h (2 Bft) 95,83 %
09.06.2016 14:56 16,3 C 89 % 1012,6 hPa 0,0 l/m 4,0 km/h (1 Bft) S-SW 204 0 min 0,000 mm 1,1 UV-I 176 W/m 14,5 C 16,3 C 6,4 km/h (2 Bft) 100,00 %
09.06.2016 14:57 16,3 C 89 % 1012,6 hPa 0,0 l/m 4,6 km/h (1 Bft) S-SW 210 0 min 0,000 mm 1,1 UV-I 176 W/m 14,5 C 16,3 C 8,0 km/h (2 Bft) 100,00 %
09.06.2016 14:58 16,3 C 90 % 1012,5 hPa 0,0 l/m 5,2 km/h (1 Bft) S 186 0 min 0,000 mm 1,0 UV-I 176 W/m 14,7 C 16,3 C 6,4 km/h (2 Bft) 100,00 %
09.06.2016 14:59 16,3 C 89 % 1012,6 hPa 0,0 l/m 4,9 km/h (1 Bft) S-SW 195 0 min 0,000 mm 1,0 UV-I 175 W/m 14,5 C 16,3 C 6,4 km/h (2 Bft) 100,00 %
09.06.2016 15:00 16,3 C 89 % 1012,6 hPa 0,0 l/m 5,9 km/h (2 Bft) S 190 0 min 0,000 mm 1,0 UV-I 173 W/m 14,5 C 16,3 C 8,0 km/h (2 Bft) 100,00 %
09.06.2016 15:01 16,2 C 89 % 1012,6 hPa 0,0 l/m 5,0 km/h (1 Bft) S 176 0 min 0,102 mm 1,0 UV-I 172 W/m 14,4 C 16,2 C 6,4 km/h (2 Bft) 100,00 %
09.06.2016 15:02 16,3 C 90 % 1012,5 hPa 0,0 l/m 4,4 km/h (1 Bft) S-SW 196 0 min 0,000 mm 1,0 UV-I 171 W/m 14,7 C 16,3 C 8,0 km/h (2 Bft) 100,00 %
09.06.2016 15:03 16,3 C 89 % 1012,6 hPa 0,0 l/m 3,6 km/h (1 Bft) S-SW 195 0 min 0,000 mm 1,0 UV-I 168 W/m 14,5 C 16,3 C 8,0 km/h (2 Bft) 100,00 %
09.06.2016 15:04 16,3 C 90 % 1012,6 hPa 0,0 l/m 7,0 km/h (2 Bft) S-SW 205 0 min 0,000 mm 1,0 UV-I 166 W/m 14,7 C 16,0 C 9,7 km/h (2 Bft) 100,00 %
09.06.2016 15:05 16,2 C 89 % 1012,6 hPa 0,0 l/m 5,6 km/h (1 Bft) S-SW 192 0 min 0,000 mm 1,0 UV-I 162 W/m 14,4 C 16,2 C 8,0 km/h (2 Bft) 100,00 %
09.06.2016 15:06 16,2 C 89 % 1012,6 hPa 0,0 l/m 6,2 km/h (2 Bft) SW 226 0 min 0,000 mm 0,9 UV-I 161 W/m 14,4 C 16,2 C 8,0 km/h (2 Bft) 100,00 %
09.06.2016 15:07 16,2 C 89 % 1012,6 hPa 0,0 l/m 5,5 km/h (1 Bft) S 182 0 min 0,000 mm 0,9 UV-I 158 W/m 14,4 C 16,2 C 6,4 km/h (2 Bft) 100,00 %
09.06.2016 15:08 16,2 C 89 % 1012,6 hPa 0,0 l/m 5,0 km/h (1 Bft) S 186 0 min 0,000 mm 0,9 UV-I 158 W/m 14,4 C 16,2 C 6,4 km/h (2 Bft) 100,00 %
09.06.2016 15:09 16,2 C 90 % 1012,6 hPa 0,0 l/m 4,1 km/h (1 Bft) S 186 0 min 0,000 mm 0,9 UV-I 157 W/m 14,6 C 16,2 C 4,8 km/h (1 Bft) 100,00 %
09.06.2016 15:10 16,2 C 90 % 1012,6 hPa 0,0 l/m 5,1 km/h (1 Bft) SW 220 0 min 0,000 mm 0,9 UV-I 158 W/m 14,6 C 16,2 C 8,0 km/h (2 Bft) 100,00 %
09.06.2016 15:11 16,2 C 89 % 1012,6 hPa 0,2 l/m 3,1 km/h (1 Bft) S 179 0 min 0,000 mm 0,9 UV-I 158 W/m 14,4 C 16,2 C 6,4 km/h (2 Bft) 100,00 %
09.06.2016 15:12 16,2 C 90 % 1012,6 hPa 0,0 l/m 4,0 km/h (1 Bft) S-SW 194 0 min 0,000 mm 0,9 UV-I 159 W/m 14,6 C 16,2 C 4,8 km/h (1 Bft) 95,65 %
09.06.2016 15:13 16,2 C 90 % 1012,6 hPa 0,0 l/m 6,4 km/h (2 Bft) SW 218 0 min 0,000 mm 0,9 UV-I 160 W/m 14,6 C 16,2 C 8,0 km/h (2 Bft) 100,00 %
09.06.2016 15:14 16,2 C 90 % 1012,6 hPa 0,0 l/m 4,8 km/h (1 Bft) SW 219 0 min 0,000 mm 0,9 UV-I 162 W/m 14,6 C 16,2 C 6,4 km/h (2 Bft) 100,00 %
09.06.2016 15:15 16,2 C 90 % 1012,6 hPa 0,0 l/m 5,9 km/h (2 Bft) S-SW 204 0 min 0,000 mm 0,9 UV-I 162 W/m 14,6 C 16,2 C 9,7 km/h (2 Bft) 95,65 %
09.06.2016 15:16 16,2 C 90 % 1012,6 hPa 0,0 l/m 4,5 km/h (1 Bft) S-SW 195 0 min 0,000 mm 0,9 UV-I 163 W/m 14,6 C 16,2 C 6,4 km/h (2 Bft) 100,00 %
09.06.2016 15:17 16,1 C 90 % 1012,6 hPa 0,0 l/m 4,4 km/h (1 Bft) SW 221 0 min 0,000 mm 0,9 UV-I 163 W/m 14,5 C 16,1 C 6,4 km/h (2 Bft) 100,00 %
09.06.2016 15:18 16,1 C 90 % 1012,6 hPa 0,0 l/m 5,5 km/h (1 Bft) S-SW 208 0 min 0,000 mm 0,9 UV-I 164 W/m 14,5 C 16,1 C 6,4 km/h (2 Bft) 100,00 %
09.06.2016 15:19 16,1 C 90 % 1012,6 hPa 0,0 l/m 8,1 km/h (2 Bft) S-SW 203 0 min 0,000 mm 0,9 UV-I 165 W/m 14,5 C 15,2 C 9,7 km/h (2 Bft) 95,65 %
09.06.2016 15:20 16,1 C 90 % 1012,6 hPa 0,0 l/m 6,3 km/h (2 Bft) S-SW 202 0 min 0,000 mm 0,9 UV-I 165 W/m 14,5 C 16,1 C 9,7 km/h (2 Bft) 100,00 %
09.06.2016 15:21 16,1 C 90 % 1012,6 hPa 0,0 l/m 5,4 km/h (1 Bft) S-SW 205 0 min 0,000 mm 0,9 UV-I 166 W/m 14,5 C 16,1 C 8,0 km/h (2 Bft) 100,00 %
09.06.2016 15:22 16,1 C 90 % 1012,5 hPa 0,0 l/m 7,0 km/h (2 Bft) S-SW 198 0 min 0,000 mm 1,0 UV-I 167 W/m 14,5 C 15,8 C 8,0 km/h (2 Bft) 100,00 %
09.06.2016 15:23 16,0 C 90 % 1012,6 hPa 0,0 l/m 6,4 km/h (2 Bft) S 177 0 min 0,000 mm 1,0 UV-I 167 W/m 14,4 C 16,0 C 9,7 km/h (2 Bft) 100,00 %
09.06.2016 15:24 16,0 C 90 % 1012,6 hPa 0,0 l/m 6,0 km/h (2 Bft) S-SW 213 0 min 0,000 mm 1,0 UV-I 168 W/m 14,4 C 16,0 C 8,0 km/h (2 Bft) 100,00 %
09.06.2016 15:25 16,0 C 90 % 1012,6 hPa 0,0 l/m 5,4 km/h (1 Bft) S-SW 208 0 min 0,000 mm 1,0 UV-I 169 W/m 14,4 C 16,0 C 8,0 km/h (2 Bft) 100,00 %
09.06.2016 15:26 16,0 C 91 % 1012,6 hPa 0,0 l/m 7,0 km/h (2 Bft) S-SW 202 0 min 0,000 mm 1,0 UV-I 169 W/m 14,5 C 15,7 C 8,0 km/h (2 Bft) 100,00 %
09.06.2016 15:27 15,9 C 90 % 1012,6 hPa 0,0 l/m 6,6 km/h (2 Bft) S-SW 196 0 min 0,000 mm 1,0 UV-I 169 W/m 14,3 C 15,8 C 8,0 km/h (2 Bft) 95,65 %
09.06.2016 15:28 15,9 C 90 % 1012,6 hPa 0,0 l/m 5,8 km/h (2 Bft) S-SW 194 0 min 0,000 mm 1,0 UV-I 169 W/m 14,3 C 15,9 C 6,4 km/h (2 Bft) 100,00 %
09.06.2016 15:29 15,9 C 90 % 1012,6 hPa 0,0 l/m 6,2 km/h (2 Bft) S-SW 195 0 min 0,000 mm 1,0 UV-I 169 W/m 14,3 C 15,9 C 8,0 km/h (2 Bft) 100,00 %
09.06.2016 15:30 15,9 C 91 % 1012,6 hPa 0,0 l/m 5,7 km/h (1 Bft) S-SW 211 0 min 0,000 mm 1,0 UV-I 169 W/m 14,4 C 15,9 C 9,7 km/h (2 Bft) 100,00 %
09.06.2016 15:31 16,0 C 92 % 1012,6 hPa 0,0 l/m 6,8 km/h (2 Bft) S-SO 165 0 min 0,000 mm 1,0 UV-I 171 W/m 14,7 C 15,8 C 9,7 km/h (2 Bft) 100,00 %
09.06.2016 15:32 16,0 C 92 % 1012,6 hPa 0,0 l/m 7,1 km/h (2 Bft) SW 225 0 min 0,000 mm 1,0 UV-I 171 W/m 14,7 C 15,6 C 9,7 km/h (2 Bft) 95,83 %
09.06.2016 15:33 16,0 C 91 % 1012,6 hPa 0,0 l/m 4,8 km/h (1 Bft) SW 223 0 min 0,000 mm 1,0 UV-I 171 W/m 14,5 C 16,0 C 8,0 km/h (2 Bft) 100,00 %
09.06.2016 15:34 16,0 C 91 % 1012,6 hPa 0,0 l/m 6,0 km/h (2 Bft) S-SW 196 0 min 0,000 mm 1,0 UV-I 170 W/m 14,5 C 16,0 C 8,0 km/h (2 Bft) 100,00 %
09.06.2016 15:35 16,0 C 92 % 1012,6 hPa 0,0 l/m 5,3 km/h (1 Bft) S 189 0 min 0,000 mm 1,0 UV-I 169 W/m 14,7 C 16,0 C 8,0 km/h (2 Bft) 100,00 %
09.06.2016 15:36 16,0 C 91 % 1012,6 hPa 0,0 l/m 5,4 km/h (1 Bft) S-SW 211 0 min 0,000 mm 0,9 UV-I 169 W/m 14,5 C 16,0 C 8,0 km/h (2 Bft) 100,00 %
09.06.2016 15:37 16,0 C 91 % 1012,6 hPa 0,0 l/m 3,2 km/h (1 Bft) S 172 0 min 0,000 mm 0,9 UV-I 167 W/m 14,5 C 16,0 C 6,4 km/h (2 Bft) 100,00 %
09.06.2016 15:38 16,1 C 92 % 1012,6 hPa 0,0 l/m 3,0 km/h (1 Bft) SW 233 0 min 0,000 mm 0,9 UV-I 167 W/m 14,8 C 16,1 C 3,2 km/h (1 Bft) 100,00 %
09.06.2016 15:39 16,1 C 92 % 1012,6 hPa 0,0 l/m 3,7 km/h (1 Bft) S 173 0 min 0,000 mm 0,9 UV-I 166 W/m 14,8 C 16,1 C 8,0 km/h (2 Bft) 95,83 %
09.06.2016 15:40 16,1 C 92 % 1012,6 hPa 0,0 l/m 4,9 km/h (1 Bft) S 181 0 min 0,000 mm 0,9 UV-I 165 W/m 14,8 C 16,1 C 6,4 km/h (2 Bft) 95,65 %
09.06.2016 15:41 16,1 C 92 % 1012,6 hPa 0,0 l/m 4,0 km/h (1 Bft) W-SW 246 0 min 0,000 mm 0,9 UV-I 165 W/m 14,8 C 16,1 C 6,4 km/h (2 Bft) 100,00 %
09.06.2016 15:42 16,2 C 92 % 1012,6 hPa 0,0 l/m 3,9 km/h (1 Bft) S-SW 210 0 min 0,000 mm 0,9 UV-I 165 W/m 14,9 C 16,2 C 6,4 km/h (2 Bft) 91,30 %
09.06.2016 15:43 16,1 C 90 % 1012,5 hPa 0,0 l/m 6,5 km/h (2 Bft) S-SW 193 0 min 0,000 mm 0,9 UV-I 165 W/m 14,5 C 16,1 C 8,0 km/h (2 Bft) 100,00 %
09.06.2016 15:44 16,1 C 90 % 1012,6 hPa 0,0 l/m 5,3 km/h (1 Bft) S 184 0 min 0,000 mm 0,9 UV-I 165 W/m 14,5 C 16,1 C 8,0 km/h (2 Bft) 95,65 %
09.06.2016 15:45 16,1 C 90 % 1012,6 hPa 0,0 l/m 4,3 km/h (1 Bft) S-SW 207 0 min 0,000 mm 0,9 UV-I 165 W/m 14,5 C 16,1 C 6,4 km/h (2 Bft) 91,67 %
09.06.2016 15:46 16,1 C 90 % 1012,5 hPa 0,0 l/m 4,7 km/h (1 Bft) S-SW 202 0 min 0,000 mm 0,9 UV-I 165 W/m 14,5 C 16,1 C 8,0 km/h (2 Bft) 96,15 %
09.06.2016 15:47 16,0 C 90 % 1012,6 hPa 0,0 l/m 7,9 km/h (2 Bft) SW 215 0 min 0,000 mm 0,9 UV-I 165 W/m 14,4 C 15,2 C 9,7 km/h (2 Bft) 95,83 %
09.06.2016 15:48 16,0 C 91 % 1012,6 hPa 0,2 l/m 6,8 km/h (2 Bft) SW 215 0 min 0,000 mm 0,9 UV-I 163 W/m 14,5 C 15,8 C 8,0 km/h (2 Bft) 95,65 %
09.06.2016 15:49 16,0 C 90 % 1012,6 hPa 0,0 l/m 8,1 km/h (2 Bft) S 189 0 min 0,000 mm 0,9 UV-I 163 W/m 14,4 C 15,1 C 11,3 km/h (2 Bft) 95,83 %
09.06.2016 15:50 15,9 C 90 % 1012,5 hPa 0,0 l/m 8,1 km/h (2 Bft) S-SW 200 0 min 0,000 mm 0,9 UV-I 162 W/m 14,3 C 15,0 C 11,3 km/h (2 Bft) 95,65 %
09.06.2016 15:51 16,0 C 91 % 1012,5 hPa 0,0 l/m 8,9 km/h (2 Bft) S-SW 212 0 min 0,000 mm 0,9 UV-I 160 W/m 14,5 C 14,7 C 11,3 km/h (2 Bft) 95,83 %
09.06.2016 15:52 16,0 C 91 % 1012,5 hPa 0,0 l/m 7,0 km/h (2 Bft) S-SW 209 0 min 0,000 mm 0,9 UV-I 159 W/m 14,5 C 15,7 C 9,7 km/h (2 Bft) 100,00 %
09.06.2016 15:53 16,1 C 91 % 1012,5 hPa 0,0 l/m 7,6 km/h (2 Bft) S-SW 209 0 min 0,000 mm 0,9 UV-I 158 W/m 14,6 C 15,5 C 9,7 km/h (2 Bft) 95,83 %
09.06.2016 15:54 16,0 C 90 % 1012,5 hPa 0,0 l/m 6,3 km/h (2 Bft) S-SW 201 0 min 0,000 mm 0,9 UV-I 156 W/m 14,4 C 16,0 C 8,0 km/h (2 Bft) 100,00 %
09.06.2016 15:55 16,0 C 90 % 1012,5 hPa 0,0 l/m 6,3 km/h (2 Bft) S 188 0 min 0,000 mm 0,9 UV-I 156 W/m 14,4 C 16,0 C 8,0 km/h (2 Bft) 95,83 %
09.06.2016 15:56 16,0 C 90 % 1012,5 hPa 0,0 l/m 4,3 km/h (1 Bft) S 176 0 min 0,000 mm 0,9 UV-I 156 W/m 14,4 C 16,0 C 6,4 km/h (2 Bft) 91,30 %
09.06.2016 15:57 15,9 C 91 % 1012,5 hPa 0,0 l/m 8,0 km/h (2 Bft) S-SW 209 0 min 0,000 mm 0,9 UV-I 156 W/m 14,4 C 15,0 C 11,3 km/h (2 Bft) 100,00 %
09.06.2016 15:58 15,9 C 91 % 1012,5 hPa 0,0 l/m 7,0 km/h (2 Bft) S-SW 202 0 min 0,000 mm 0,9 UV-I 155 W/m 14,4 C 15,6 C 9,7 km/h (2 Bft) 100,00 %
09.06.2016 15:59 15,9 C 91 % 1012,5 hPa 0,0 l/m 8,9 km/h (2 Bft) S-SW 207 0 min 0,000 mm 0,9 UV-I 155 W/m 14,4 C 14,6 C 11,3 km/h (2 Bft) 96,15 %
09.06.2016 16:00 15,9 C 91 % 1012,5 hPa 0,0 l/m 6,1 km/h (2 Bft) SW 235 0 min 0,101 mm 0,9 UV-I 155 W/m 14,4 C 15,9 C 9,7 km/h (2 Bft) 95,83 %
09.06.2016 16:01 15,9 C 91 % 1012,5 hPa 0,0 l/m 8,1 km/h (2 Bft) S-SW 198 0 min 0,000 mm 0,9 UV-I 155 W/m 14,4 C 15,0 C 11,3 km/h (2 Bft) 95,65 %
09.06.2016 16:02 15,9 C 91 % 1012,5 hPa 0,0 l/m 5,8 km/h (2 Bft) S 179 0 min 0,000 mm 0,9 UV-I 155 W/m 14,4 C 15,9 C 8,0 km/h (2 Bft) 95,83 %
09.06.2016 16:03 15,9 C 91 % 1012,5 hPa 0,0 l/m 8,3 km/h (2 Bft) S 187 0 min 0,000 mm 0,9 UV-I 155 W/m 14,4 C 14,9 C 11,3 km/h (2 Bft) 100,00 %
09.06.2016 16:04 15,9 C 91 % 1012,5 hPa 0,0 l/m 8,0 km/h (2 Bft) S 190 0 min 0,000 mm 0,9 UV-I 156 W/m 14,4 C 15,0 C 11,3 km/h (2 Bft) 95,83 %
09.06.2016 16:05 15,9 C 91 % 1012,5 hPa 0,0 l/m 7,0 km/h (2 Bft) SW 219 0 min 0,000 mm 0,8 UV-I 156 W/m 14,4 C 15,6 C 9,7 km/h (2 Bft) 100,00 %
09.06.2016 16:06 15,9 C 91 % 1012,5 hPa 0,0 l/m 6,8 km/h (2 Bft) S 178 0 min 0,000 mm 0,8 UV-I 156 W/m 14,4 C 15,7 C 9,7 km/h (2 Bft) 95,83 %
09.06.2016 16:07 15,9 C 91 % 1012,5 hPa 0,0 l/m 6,8 km/h (2 Bft) S-SW 213 0 min 0,000 mm 0,8 UV-I 156 W/m 14,4 C 15,7 C 9,7 km/h (2 Bft) 88,46 %
09.06.2016 16:08 15,9 C 91 % 1012,5 hPa 0,0 l/m 6,1 km/h (2 Bft) S-SW 197 0 min 0,000 mm 0,8 UV-I 157 W/m 14,4 C 15,9 C 9,7 km/h (2 Bft) 100,00 %
09.06.2016 16:09 15,9 C 91 % 1012,5 hPa 0,0 l/m 8,8 km/h (2 Bft) S-SW 194 0 min 0,000 mm 0,8 UV-I 158 W/m 14,4 C 14,7 C 12,9 km/h (3 Bft) 96,15 %
09.06.2016 16:10 15,9 C 91 % 1012,5 hPa 0,0 l/m 8,1 km/h (2 Bft) S-SW 202 0 min 0,000 mm 0,8 UV-I 158 W/m 14,4 C 15,0 C 11,3 km/h (2 Bft) 100,00 %
09.06.2016 16:11 15,9 C 91 % 1012,5 hPa 0,0 l/m 7,8 km/h (2 Bft) S-SW 192 0 min 0,000 mm 0,8 UV-I 158 W/m 14,4 C 15,1 C 9,7 km/h (2 Bft) 95,65 %
09.06.2016 16:12 15,9 C 92 % 1012,5 hPa 0,0 l/m 6,6 km/h (2 Bft) SW 236 0 min 0,000 mm 0,8 UV-I 160 W/m 14,6 C 15,8 C 11,3 km/h (2 Bft) 100,00 %
09.06.2016 16:13 15,9 C 91 % 1012,5 hPa 0,0 l/m 7,1 km/h (2 Bft) S-SO 168 0 min 0,000 mm 0,8 UV-I 160 W/m 14,4 C 15,5 C 9,7 km/h (2 Bft) 95,65 %
09.06.2016 16:14 15,9 C 92 % 1012,5 hPa 0,0 l/m 7,9 km/h (2 Bft) SW 223 0 min 0,000 mm 0,8 UV-I 160 W/m 14,6 C 15,1 C 9,7 km/h (2 Bft) 100,00 %
09.06.2016 16:15 15,9 C 91 % 1012,6 hPa 0,0 l/m 7,2 km/h (2 Bft) S-SW 201 0 min 0,000 mm 0,8 UV-I 161 W/m 14,4 C 15,5 C 9,7 km/h (2 Bft) 100,00 %
09.06.2016 16:16 15,9 C 92 % 1012,5 hPa 0,0 l/m 7,3 km/h (2 Bft) S-SW 203 0 min 0,000 mm 0,8 UV-I 162 W/m 14,6 C 15,4 C 11,3 km/h (2 Bft) 95,83 %
09.06.2016 16:17 15,9 C 92 % 1012,6 hPa 0,2 l/m 7,4 km/h (2 Bft) SW 225 0 min 0,000 mm 0,8 UV-I 160 W/m 14,6 C 15,4 C 11,3 km/h (2 Bft) 100,00 %
09.06.2016 16:18 15,9 C 92 % 1012,6 hPa 0,0 l/m 7,9 km/h (2 Bft) S-SW 196 0 min 0,000 mm 0,8 UV-I 160 W/m 14,6 C 15,1 C 9,7 km/h (2 Bft) 100,00 %
09.06.2016 16:19 15,9 C 92 % 1012,6 hPa 0,0 l/m 6,8 km/h (2 Bft) SW 230 0 min 0,000 mm 0,8 UV-I 160 W/m 14,6 C 15,7 C 9,7 km/h (2 Bft) 91,67 %
09.06.2016 16:20 15,9 C 92 % 1012,6 hPa 0,0 l/m 8,5 km/h (2 Bft) S-SW 206 0 min 0,000 mm 0,8 UV-I 159 W/m 14,6 C 14,8 C 11,3 km/h (2 Bft) 96,15 %
09.06.2016 16:21 15,9 C 92 % 1012,6 hPa 0,0 l/m 7,5 km/h (2 Bft) S-SW 205 0 min 0,000 mm 0,8 UV-I 158 W/m 14,6 C 15,3 C 11,3 km/h (2 Bft) 100,00 %
09.06.2016 16:22 16,0 C 92 % 1012,6 hPa 0,0 l/m 8,2 km/h (2 Bft) S-SW 197 0 min 0,000 mm 0,8 UV-I 158 W/m 14,7 C 15,1 C 11,3 km/h (2 Bft) 96,15 %
09.06.2016 16:23 16,0 C 92 % 1012,6 hPa 0,0 l/m 10,3 km/h (2 Bft) S-SW 209 0 min 0,000 mm 0,8 UV-I 158 W/m 14,7 C 14,1 C 14,5 km/h (3 Bft) 100,00 %
09.06.2016 16:24 16,0 C 92 % 1012,6 hPa 0,0 l/m 8,7 km/h (2 Bft) S-SW 209 0 min 0,000 mm 0,8 UV-I 158 W/m 14,7 C 14,8 C 11,3 km/h (2 Bft) 100,00 %
09.06.2016 16:25 16,0 C 92 % 1012,6 hPa 0,0 l/m 7,5 km/h (2 Bft) S-SW 192 0 min 0,000 mm 0,8 UV-I 158 W/m 14,7 C 15,4 C 11,3 km/h (2 Bft) 95,83 %
09.06.2016 16:26 16,0 C 92 % 1012,6 hPa 0,0 l/m 7,0 km/h (2 Bft) S 178 0 min 0,000 mm 0,8 UV-I 156 W/m 14,7 C 15,7 C 9,7 km/h (2 Bft) 100,00 %
09.06.2016 16:27 16,0 C 92 % 1012,6 hPa 0,0 l/m 6,6 km/h (2 Bft) S-SW 192 0 min 0,000 mm 0,8 UV-I 156 W/m 14,7 C 15,9 C 9,7 km/h (2 Bft) 100,00 %
09.06.2016 16:28 16,0 C 92 % 1012,6 hPa 0,0 l/m 9,4 km/h (2 Bft) S-SW 213 0 min 0,000 mm 0,8 UV-I 155 W/m 14,7 C 14,5 C 11,3 km/h (2 Bft) 100,00 %
09.06.2016 16:29 15,9 C 91 % 1012,6 hPa 0,0 l/m 6,6 km/h (2 Bft) S-SW 199 0 min 0,000 mm 0,8 UV-I 155 W/m 14,4 C 15,8 C 9,7 km/h (2 Bft) 100,00 %
09.06.2016 16:30 15,9 C 92 % 1012,6 hPa 0,0 l/m 9,9 km/h (2 Bft) S 175 0 min 0,000 mm 0,8 UV-I 155 W/m 14,6 C 14,2 C 12,9 km/h (3 Bft) 100,00 %
09.06.2016 16:31 15,9 C 91 % 1012,6 hPa 0,0 l/m 7,1 km/h (2 Bft) S-SW 208 0 min 0,000 mm 0,8 UV-I 155 W/m 14,4 C 15,5 C 11,3 km/h (2 Bft) 100,00 %
09.06.2016 16:32 16,0 C 92 % 1012,6 hPa 0,0 l/m 9,0 km/h (2 Bft) S 175 0 min 0,000 mm 0,8 UV-I 155 W/m 14,7 C 14,7 C 11,3 km/h (2 Bft) 100,00 %
09.06.2016 16:33 15,9 C 91 % 1012,6 hPa 0,0 l/m 5,9 km/h (2 Bft) S 170 0 min 0,000 mm 0,8 UV-I 155 W/m 14,4 C 15,9 C 8,0 km/h (2 Bft) 100,00 %
09.06.2016 16:34 15,9 C 91 % 1012,6 hPa 0,0 l/m 6,7 km/h (2 Bft) S-SW 201 0 min 0,000 mm 0,8 UV-I 155 W/m 14,4 C 15,7 C 8,0 km/h (2 Bft) 95,65 %
09.06.2016 16:35 15,9 C 91 % 1012,6 hPa 0,0 l/m 7,4 km/h (2 Bft) S-SW 208 0 min 0,000 mm 0,8 UV-I 153 W/m 14,4 C 15,4 C 9,7 km/h (2 Bft) 100,00 %
09.06.2016 16:36 15,9 C 91 % 1012,6 hPa 0,0 l/m 5,8 km/h (2 Bft) S 188 0 min 0,000 mm 0,8 UV-I 153 W/m 14,4 C 15,9 C 8,0 km/h (2 Bft) 100,00 %
09.06.2016 16:37 15,9 C 92 % 1012,6 hPa 0,0 l/m 5,8 km/h (2 Bft) S 180 0 min 0,000 mm 0,7 UV-I 152 W/m 14,6 C 15,9 C 8,0 km/h (2 Bft) 100,00 %
09.06.2016 16:38 15,9 C 91 % 1012,6 hPa 0,0 l/m 6,6 km/h (2 Bft) S-SW 201 0 min 0,000 mm 0,7 UV-I 151 W/m 14,4 C 15,8 C 9,7 km/h (2 Bft) 100,00 %
09.06.2016 16:39 16,0 C 92 % 1012,6 hPa 0,0 l/m 4,6 km/h (1 Bft) S 188 0 min 0,000 mm 0,7 UV-I 150 W/m 14,7 C 16,0 C 6,4 km/h (2 Bft) 100,00 %
09.06.2016 16:40 16,0 C 92 % 1012,6 hPa 0,0 l/m 6,4 km/h (2 Bft) S 180 0 min 0,000 mm 0,7 UV-I 149 W/m 14,7 C 16,0 C 8,0 km/h (2 Bft) 100,00 %
09.06.2016 16:41 16,1 C 93 % 1012,6 hPa 0,0 l/m 6,9 km/h (2 Bft) S-SW 192 0 min 0,000 mm 0,7 UV-I 149 W/m 15,0 C 15,8 C 8,0 km/h (2 Bft) 100,00 %
09.06.2016 16:42 16,1 C 92 % 1012,6 hPa 0,0 l/m 5,7 km/h (1 Bft) S-SW 207 0 min 0,000 mm 0,7 UV-I 148 W/m 14,8 C 16,1 C 9,7 km/h (2 Bft) 95,83 %
09.06.2016 16:43 16,1 C 92 % 1012,6 hPa 0,0 l/m 6,3 km/h (2 Bft) SW 216 0 min 0,000 mm 0,7 UV-I 148 W/m 14,8 C 16,1 C 9,7 km/h (2 Bft) 95,65 %
09.06.2016 16:44 16,1 C 93 % 1012,6 hPa 0,0 l/m 5,9 km/h (2 Bft) SW 225 0 min 0,000 mm 0,7 UV-I 148 W/m 15,0 C 16,1 C 8,0 km/h (2 Bft) 100,00 %
09.06.2016 16:45 16,1 C 92 % 1012,6 hPa 0,0 l/m 4,7 km/h (1 Bft) S-SW 213 0 min 0,000 mm 0,7 UV-I 149 W/m 14,8 C 16,1 C 9,7 km/h (2 Bft) 100,00 %
09.06.2016 16:46 16,1 C 92 % 1012,6 hPa 0,0 l/m 7,2 km/h (2 Bft) S-SW 207 0 min 0,000 mm 0,7 UV-I 149 W/m 14,8 C 15,7 C 11,3 km/h (2 Bft) 100,00 %
09.06.2016 16:47 16,1 C 92 % 1012,6 hPa 0,0 l/m 7,1 km/h (2 Bft) S-SW 192 0 min 0,000 mm 0,7 UV-I 149 W/m 14,8 C 15,7 C 11,3 km/h (2 Bft) 95,65 %
09.06.2016 16:48 16,1 C 92 % 1012,5 hPa 0,0 l/m 5,2 km/h (1 Bft) S 188 0 min 0,000 mm 0,7 UV-I 149 W/m 14,8 C 16,1 C 8,0 km/h (2 Bft) 100,00 %
09.06.2016 16:49 16,1 C 92 % 1012,5 hPa 0,0 l/m 5,7 km/h (1 Bft) S 183 0 min 0,000 mm 0,7 UV-I 149 W/m 14,8 C 16,1 C 8,0 km/h (2 Bft) 100,00 %
09.06.2016 16:50 16,1 C 92 % 1012,5 hPa 0,0 l/m 6,4 km/h (2 Bft) S-SW 202 0 min 0,000 mm 0,7 UV-I 149 W/m 14,8 C 16,1 C 11,3 km/h (2 Bft) 100,00 %
09.06.2016 16:53 16,1 C 93 % 1012,6 hPa 0,0 l/m 10,0 km/h (2 Bft) S 190 0 min 0,000 mm 0,7 UV-I 148 W/m 15,0 C 14,3 C 11,3 km/h (2 Bft) 97,06 %
09.06.2016 16:54 16,1 C 92 % 1012,6 hPa 0,0 l/m 8,0 km/h (2 Bft) S 186 0 min 0,000 mm 0,7 UV-I 144 W/m 14,8 C 15,3 C 11,3 km/h (2 Bft) 100,00 %
09.06.2016 16:55 16,1 C 93 % 1012,6 hPa 0,0 l/m 7,3 km/h (2 Bft) SW 216 0 min 0,000 mm 0,7 UV-I 142 W/m 15,0 C 15,6 C 8,0 km/h (2 Bft) 100,00 %
09.06.2016 16:56 16,1 C 92 % 1012,6 hPa 0,0 l/m 7,2 km/h (2 Bft) S-SW 199 0 min 0,000 mm 0,7 UV-I 140 W/m 14,8 C 15,7 C 9,7 km/h (2 Bft) 100,00 %
09.06.2016 16:57 16,0 C 92 % 1012,6 hPa 0,0 l/m 7,9 km/h (2 Bft) SW 220 0 min 0,000 mm 0,7 UV-I 139 W/m 14,7 C 15,2 C 11,3 km/h (2 Bft) 100,00 %
09.06.2016 16:58 16,0 C 92 % 1012,6 hPa 0,0 l/m 7,5 km/h (2 Bft) S-SW 199 0 min 0,000 mm 0,6 UV-I 137 W/m 14,7 C 15,4 C 9,7 km/h (2 Bft) 100,00 %
09.06.2016 16:59 16,0 C 92 % 1012,6 hPa 0,0 l/m 6,0 km/h (2 Bft) S 190 0 min 0,000 mm 0,6 UV-I 137 W/m 14,7 C 16,0 C 9,7 km/h (2 Bft) 100,00 %
09.06.2016 17:00 16,0 C 92 % 1012,6 hPa 0,0 l/m 7,4 km/h (2 Bft) S-SW 205 0 min 0,000 mm 0,6 UV-I 139 W/m 14,7 C 15,5 C 11,3 km/h (2 Bft) 100,00 %
09.06.2016 17:03 16,0 C 92 % 1012,6 hPa 0,0 l/m 5,8 km/h (2 Bft) S-SW 194 0 min 0,077 mm 0,7 UV-I 140 W/m 14,7 C 16,0 C 6,4 km/h (2 Bft) 98,57 %
09.06.2016 17:04 16,0 C 92 % 1012,6 hPa 0,0 l/m 6,9 km/h (2 Bft) S 175 0 min 0,000 mm 0,7 UV-I 144 W/m 14,7 C 15,7 C 11,3 km/h (2 Bft) 100,00 %
09.06.2016 17:05 16,0 C 92 % 1012,6 hPa 0,0 l/m 5,6 km/h (1 Bft) S-SW 200 0 min 0,000 mm 0,7 UV-I 146 W/m 14,7 C 16,0 C 8,0 km/h (2 Bft) 100,00 %
09.06.2016 17:06 16,1 C 92 % 1012,6 hPa 0,0 l/m 5,8 km/h (2 Bft) S-SW 204 0 min 0,000 mm 0,7 UV-I 146 W/m 14,8 C 16,1 C 8,0 km/h (2 Bft) 100,00 %
09.06.2016 17:07 16,1 C 93 % 1012,6 hPa 0,0 l/m 4,4 km/h (1 Bft) S 190 0 min 0,000 mm 0,7 UV-I 146 W/m 15,0 C 16,1 C 6,4 km/h (2 Bft) 100,00 %
09.06.2016 17:08 16,1 C 92 % 1012,6 hPa 0,0 l/m 3,9 km/h (1 Bft) S 190 0 min 0,000 mm 0,7 UV-I 145 W/m 14,8 C 16,1 C 4,8 km/h (1 Bft) 100,00 %
09.06.2016 17:09 16,1 C 93 % 1012,6 hPa 0,0 l/m 3,9 km/h (1 Bft) S-SW 194 0 min 0,000 mm 0,7 UV-I 144 W/m 15,0 C 16,1 C 4,8 km/h (1 Bft) 100,00 %
09.06.2016 17:10 16,2 C 93 % 1012,6 hPa 0,0 l/m 3,3 km/h (1 Bft) SW 232 0 min 0,000 mm 0,6 UV-I 144 W/m 15,1 C 16,2 C 4,8 km/h (1 Bft) 95,83 %
09.06.2016 17:11 16,2 C 93 % 1012,6 hPa 0,0 l/m 3,9 km/h (1 Bft) S 181 0 min 0,000 mm 0,6 UV-I 142 W/m 15,1 C 16,2 C 6,4 km/h (2 Bft) 100,00 %
09.06.2016 17:12 16,1 C 93 % 1012,6 hPa 0,0 l/m 4,8 km/h (1 Bft) S 188 0 min 0,000 mm 0,6 UV-I 142 W/m 15,0 C 16,1 C 8,0 km/h (2 Bft) 100,00 %
09.06.2016 17:13 16,1 C 93 % 1012,5 hPa 0,0 l/m 7,7 km/h (2 Bft) SO 137 0 min 0,000 mm 0,6 UV-I 141 W/m 15,0 C 15,4 C 9,7 km/h (2 Bft) 95,65 %
09.06.2016 17:14 16,1 C 92 % 1012,5 hPa 0,0 l/m 6,6 km/h (2 Bft) SW 215 0 min 0,000 mm 0,6 UV-I 141 W/m 14,8 C 16,0 C 8,0 km/h (2 Bft) 100,00 %
09.06.2016 17:15 16,1 C 92 % 1012,5 hPa 0,0 l/m 9,8 km/h (2 Bft) S-SW 196 0 min 0,000 mm 0,6 UV-I 140 W/m 14,8 C 14,4 C 12,9 km/h (3 Bft) 95,65 %
09.06.2016 17:16 16,0 C 91 % 1012,5 hPa 0,0 l/m 6,6 km/h (2 Bft) S-SW 194 0 min 0,000 mm 0,6 UV-I 139 W/m 14,5 C 15,9 C 11,3 km/h (2 Bft) 100,00 %
09.06.2016 17:17 16,0 C 92 % 1012,5 hPa 0,0 l/m 9,6 km/h (2 Bft) SW 217 0 min 0,000 mm 0,6 UV-I 139 W/m 14,7 C 14,4 C 12,9 km/h (3 Bft) 100,00 %
09.06.2016 17:18 16,0 C 92 % 1012,5 hPa 0,0 l/m 8,2 km/h (2 Bft) SW 225 0 min 0,000 mm 0,6 UV-I 137 W/m 14,7 C 15,1 C 11,3 km/h (2 Bft) 100,00 %
09.06.2016 17:19 16,0 C 92 % 1012,5 hPa 0,0 l/m 5,5 km/h (1 Bft) SW 231 0 min 0,000 mm 0,6 UV-I 137 W/m 14,7 C 16,0 C 11,3 km/h (2 Bft) 100,00 %
09.06.2016 17:20 16,0 C 92 % 1012,5 hPa 0,0 l/m 7,6 km/h (2 Bft) S-SW 198 0 min 0,000 mm 0,6 UV-I 136 W/m 14,7 C 15,4 C 9,7 km/h (2 Bft) 95,65 %
09.06.2016 17:21 15,9 C 91 % 1012,5 hPa 0,0 l/m 8,6 km/h (2 Bft) S 189 0 min 0,000 mm 0,6 UV-I 135 W/m 14,4 C 14,8 C 11,3 km/h (2 Bft) 100,00 %
09.06.2016 17:22 15,9 C 91 % 1012,5 hPa 0,0 l/m 5,8 km/h (2 Bft) S 188 0 min 0,000 mm 0,6 UV-I 135 W/m 14,4 C 15,9 C 9,7 km/h (2 Bft) 100,00 %
09.06.2016 17:23 15,9 C 91 % 1012,5 hPa 0,0 l/m 7,6 km/h (2 Bft) S 172 0 min 0,000 mm 0,6 UV-I 134 W/m 14,4 C 15,3 C 12,9 km/h (3 Bft) 100,00 %
09.06.2016 17:24 15,9 C 91 % 1012,5 hPa 0,0 l/m 8,4 km/h (2 Bft) SW 234 0 min 0,000 mm 0,6 UV-I 134 W/m 14,4 C 14,8 C 11,3 km/h (2 Bft) 100,00 %
09.06.2016 17:25 16,0 C 91 % 1012,5 hPa 0,0 l/m 8,6 km/h (2 Bft) SW 216 0 min 0,000 mm 0,6 UV-I 133 W/m 14,5 C 14,9 C 11,3 km/h (2 Bft) 100,00 %
09.06.2016 17:26 15,9 C 90 % 1012,5 hPa 0,0 l/m 7,6 km/h (2 Bft) S-SW 199 0 min 0,000 mm 0,5 UV-I 132 W/m 14,3 C 15,3 C 11,3 km/h (2 Bft) 100,00 %
09.06.2016 17:27 15,9 C 91 % 1012,5 hPa 0,0 l/m 9,3 km/h (2 Bft) S-SW 210 0 min 0,000 mm 0,5 UV-I 130 W/m 14,4 C 14,4 C 14,5 km/h (3 Bft) 100,00 %
09.06.2016 17:28 16,0 C 91 % 1012,5 hPa 0,0 l/m 9,1 km/h (2 Bft) S-SW 192 0 min 0,000 mm 0,5 UV-I 130 W/m 14,5 C 14,6 C 12,9 km/h (3 Bft) 100,00 %
09.06.2016 17:29 16,0 C 91 % 1012,5 hPa 0,0 l/m 7,0 km/h (2 Bft) SW 232 0 min 0,000 mm 0,5 UV-I 128 W/m 14,5 C 15,7 C 9,7 km/h (2 Bft) 100,00 %
09.06.2016 17:30 15,9 C 91 % 1012,5 hPa 0,0 l/m 7,4 km/h (2 Bft) S-SW 192 0 min 0,000 mm 0,5 UV-I 127 W/m 14,4 C 15,4 C 9,7 km/h (2 Bft) 100,00 %
09.06.2016 17:31 15,9 C 91 % 1012,5 hPa 0,0 l/m 8,0 km/h (2 Bft) S 171 0 min 0,000 mm 0,5 UV-I 126 W/m 14,4 C 15,0 C 11,3 km/h (2 Bft) 95,83 %
09.06.2016 17:32 15,9 C 91 % 1012,5 hPa 0,0 l/m 7,4 km/h (2 Bft) S-SW 210 0 min 0,000 mm 0,5 UV-I 125 W/m 14,4 C 15,4 C 11,3 km/h (2 Bft) 100,00 %
09.06.2016 17:33 15,9 C 91 % 1012,5 hPa 0,0 l/m 7,9 km/h (2 Bft) S-SW 194 0 min 0,000 mm 0,5 UV-I 124 W/m 14,4 C 15,1 C 11,3 km/h (2 Bft) 95,83 %
09.06.2016 17:34 15,9 C 91 % 1012,4 hPa 0,0 l/m 8,7 km/h (2 Bft) S-SW 192 0 min 0,000 mm 0,5 UV-I 123 W/m 14,4 C 14,7 C 11,3 km/h (2 Bft) 95,65 %
09.06.2016 17:35 15,9 C 90 % 1012,5 hPa 0,0 l/m 8,4 km/h (2 Bft) SW 220 0 min 0,000 mm 0,5 UV-I 123 W/m 14,3 C 14,8 C 12,9 km/h (3 Bft) 100,00 %
09.06.2016 17:36 15,9 C 90 % 1012,5 hPa 0,0 l/m 9,1 km/h (2 Bft) S-SW 200 0 min 0,000 mm 0,5 UV-I 122 W/m 14,3 C 14,5 C 11,3 km/h (2 Bft) 100,00 %
09.06.2016 17:37 15,9 C 91 % 1012,4 hPa 0,0 l/m 6,1 km/h (2 Bft) S-SW 213 0 min 0,000 mm 0,5 UV-I 121 W/m 14,4 C 15,9 C 8,0 km/h (2 Bft) 100,00 %
09.06.2016 17:38 15,9 C 91 % 1012,5 hPa 0,0 l/m 8,1 km/h (2 Bft) S-SW 212 0 min 0,000 mm 0,5 UV-I 121 W/m 14,4 C 15,0 C 11,3 km/h (2 Bft) 95,65 %
09.06.2016 17:39 16,0 C 91 % 1012,5 hPa 0,0 l/m 9,0 km/h (2 Bft) S-SW 200 0 min 0,000 mm 0,5 UV-I 120 W/m 14,5 C 14,7 C 11,3 km/h (2 Bft) 95,83 %
09.06.2016 17:40 16,0 C 91 % 1012,5 hPa 0,0 l/m 7,5 km/h (2 Bft) S-SO 168 0 min 0,000 mm 0,5 UV-I 120 W/m 14,5 C 15,4 C 9,7 km/h (2 Bft) 100,00 %
09.06.2016 17:41 16,0 C 91 % 1012,5 hPa 0,2 l/m 9,7 km/h (2 Bft) S-SW 194 0 min 0,000 mm 0,1 UV-I 118 W/m 14,5 C 14,4 C 11,3 km/h (2 Bft) 96,30 %
09.06.2016 17:42 16,0 C 91 % 1012,5 hPa 0,0 l/m 9,0 km/h (2 Bft) S-SW 199 0 min 0,000 mm 0,0 UV-I 117 W/m 14,5 C 14,7 C 12,9 km/h (3 Bft) 91,30 %
09.06.2016 17:43 16,0 C 91 % 1012,4 hPa 0,0 l/m 8,7 km/h (2 Bft) SW 226 0 min 0,000 mm 0,0 UV-I 115 W/m 14,5 C 14,8 C 11,3 km/h (2 Bft) 100,00 %
09.06.2016 17:44 16,0 C 92 % 1012,5 hPa 0,0 l/m 6,7 km/h (2 Bft) S-SW 204 0 min 0,000 mm 0,0 UV-I 114 W/m 14,7 C 15,8 C 9,7 km/h (2 Bft) 96,15 %
09.06.2016 17:45 16,0 C 92 % 1012,5 hPa 0,0 l/m 7,8 km/h (2 Bft) S-SW 192 0 min 0,000 mm 0,0 UV-I 113 W/m 14,7 C 15,3 C 9,7 km/h (2 Bft) 100,00 %
09.06.2016 17:46 15,9 C 91 % 1012,5 hPa 0,0 l/m 7,4 km/h (2 Bft) SW 216 0 min 0,000 mm 0,0 UV-I 113 W/m 14,4 C 15,4 C 9,7 km/h (2 Bft) 95,65 %
09.06.2016 17:47 15,9 C 91 % 1012,5 hPa 0,0 l/m 7,3 km/h (2 Bft) S 185 0 min 0,000 mm 0,0 UV-I 113 W/m 14,4 C 15,4 C 9,7 km/h (2 Bft) 100,00 %
09.06.2016 17:48 16,0 C 91 % 1012,5 hPa 0,0 l/m 7,1 km/h (2 Bft) S-SW 196 0 min 0,000 mm 0,0 UV-I 111 W/m 14,5 C 15,6 C 9,7 km/h (2 Bft) 95,83 %
09.06.2016 17:49 15,9 C 91 % 1012,5 hPa 0,0 l/m 6,8 km/h (2 Bft) S-SW 196 0 min 0,000 mm 0,0 UV-I 111 W/m 14,4 C 15,7 C 11,3 km/h (2 Bft) 95,65 %
09.06.2016 17:50 16,0 C 91 % 1012,5 hPa 0,0 l/m 7,5 km/h (2 Bft) S-SW 212 0 min 0,000 mm 0,0 UV-I 110 W/m 14,5 C 15,4 C 9,7 km/h (2 Bft) 95,83 %
09.06.2016 17:51 15,9 C 91 % 1012,5 hPa 0,0 l/m 5,4 km/h (1 Bft) S 186 0 min 0,000 mm 0,0 UV-I 109 W/m 14,4 C 15,9 C 6,4 km/h (2 Bft) 100,00 %
09.06.2016 17:52 16,0 C 91 % 1012,5 hPa 0,0 l/m 5,0 km/h (1 Bft) S-SW 197 0 min 0,000 mm 0,0 UV-I 109 W/m 14,5 C 16,0 C 8,0 km/h (2 Bft) 95,83 %
09.06.2016 17:53 16,0 C 91 % 1012,5 hPa 0,0 l/m 5,1 km/h (1 Bft) S-SW 204 0 min 0,000 mm 0,0 UV-I 108 W/m 14,5 C 16,0 C 8,0 km/h (2 Bft) 92,31 %
09.06.2016 17:54 15,9 C 92 % 1012,5 hPa 0,0 l/m 4,3 km/h (1 Bft) S 191 0 min 0,000 mm 0,0 UV-I 107 W/m 14,6 C 15,9 C 6,4 km/h (2 Bft) 100,00 %
09.06.2016 17:55 16,0 C 92 % 1012,5 hPa 0,0 l/m 5,6 km/h (1 Bft) S-SW 197 0 min 0,000 mm 0,0 UV-I 107 W/m 14,7 C 16,0 C 8,0 km/h (2 Bft) 92,31 %
09.06.2016 17:56 15,9 C 92 % 1012,5 hPa 0,0 l/m 5,8 km/h (2 Bft) S-SW 200 0 min 0,000 mm 0,0 UV-I 107 W/m 14,6 C 15,9 C 11,3 km/h (2 Bft) 100,00 %
09.06.2016 17:57 15,9 C 91 % 1012,5 hPa 0,0 l/m 6,4 km/h (2 Bft) SW 223 0 min 0,000 mm 0,0 UV-I 105 W/m 14,4 C 15,9 C 9,7 km/h (2 Bft) 91,30 %
09.06.2016 17:58 15,9 C 92 % 1012,5 hPa 0,0 l/m 6,1 km/h (2 Bft) S-SO 163 0 min 0,000 mm 0,0 UV-I 105 W/m 14,6 C 15,9 C 8,0 km/h (2 Bft) 100,00 %
09.06.2016 17:59 15,9 C 91 % 1012,5 hPa 0,0 l/m 6,2 km/h (2 Bft) S-SW 192 0 min 0,000 mm 0,0 UV-I 105 W/m 14,4 C 15,9 C 8,0 km/h (2 Bft) 95,65 %
09.06.2016 18:00 15,9 C 91 % 1012,5 hPa 0,0 l/m 6,8 km/h (2 Bft) SW 228 0 min 0,000 mm 0,0 UV-I 104 W/m 14,4 C 15,7 C 9,7 km/h (2 Bft) 95,83 %
09.06.2016 18:01 15,9 C 91 % 1012,4 hPa 0,0 l/m 4,8 km/h (1 Bft) SW 215 0 min 0,076 mm 0,0 UV-I 104 W/m 14,4 C 15,9 C 9,7 km/h (2 Bft) 95,65 %
09.06.2016 18:02 15,9 C 92 % 1012,5 hPa 0,0 l/m 6,3 km/h (2 Bft) S-SW 196 0 min 0,000 mm 0,0 UV-I 103 W/m 14,6 C 15,9 C 8,0 km/h (2 Bft) 91,67 %
09.06.2016 18:03 15,9 C 92 % 1012,4 hPa 0,0 l/m 6,6 km/h (2 Bft) S-SW 198 0 min 0,000 mm 0,0 UV-I 102 W/m 14,6 C 15,8 C 8,0 km/h (2 Bft) 100,00 %
09.06.2016 18:04 15,9 C 92 % 1012,4 hPa 0,0 l/m 9,1 km/h (2 Bft) S-SW 204 0 min 0,000 mm 0,0 UV-I 102 W/m 14,6 C 14,5 C 11,3 km/h (2 Bft) 95,65 %
09.06.2016 18:05 15,9 C 92 % 1012,4 hPa 0,0 l/m 9,3 km/h (2 Bft) S-SO 163 0 min 0,000 mm 0,0 UV-I 100 W/m 14,6 C 14,4 C 14,5 km/h (3 Bft) 95,83 %
09.06.2016 18:06 15,9 C 92 % 1012,4 hPa 0,0 l/m 6,2 km/h (2 Bft) S 172 0 min 0,000 mm 0,0 UV-I 99 W/m 14,6 C 15,9 C 9,7 km/h (2 Bft) 95,65 %
09.06.2016 18:07 15,9 C 91 % 1012,5 hPa 0,0 l/m 4,4 km/h (1 Bft) SW 217 0 min 0,000 mm 0,0 UV-I 98 W/m 14,4 C 15,9 C 6,4 km/h (2 Bft) 95,83 %
09.06.2016 18:08 15,9 C 92 % 1012,4 hPa 0,0 l/m 9,7 km/h (2 Bft) S 177 0 min 0,000 mm 0,0 UV-I 98 W/m 14,6 C 14,2 C 11,3 km/h (2 Bft) 95,65 %
09.06.2016 18:09 15,9 C 91 % 1012,4 hPa 0,0 l/m 8,2 km/h (2 Bft) S-SW 208 0 min 0,000 mm 0,0 UV-I 98 W/m 14,4 C 14,9 C 12,9 km/h (3 Bft) 95,83 %
09.06.2016 18:10 15,9 C 92 % 1012,5 hPa 0,0 l/m 8,8 km/h (2 Bft) S 184 0 min 0,000 mm 0,0 UV-I 98 W/m 14,6 C 14,7 C 11,3 km/h (2 Bft) 100,00 %
09.06.2016 18:11 15,9 C 92 % 1012,5 hPa 0,0 l/m 10,0 km/h (2 Bft) S-SW 198 0 min 0,000 mm 0,0 UV-I 98 W/m 14,6 C 14,1 C 12,9 km/h (3 Bft) 100,00 %
09.06.2016 18:12 15,9 C 91 % 1012,4 hPa 0,0 l/m 8,3 km/h (2 Bft) S 186 0 min 0,000 mm 0,0 UV-I 97 W/m 14,4 C 14,9 C 12,9 km/h (3 Bft) 95,65 %
09.06.2016 18:13 15,9 C 92 % 1012,4 hPa 0,0 l/m 10,0 km/h (2 Bft) S-SW 200 0 min 0,000 mm 0,0 UV-I 98 W/m 14,6 C 14,1 C 14,5 km/h (3 Bft) 96,15 %
09.06.2016 18:14 15,9 C 91 % 1012,4 hPa 0,0 l/m 7,0 km/h (2 Bft) SW 217 0 min 0,000 mm 0,0 UV-I 98 W/m 14,4 C 15,6 C 11,3 km/h (2 Bft) 95,65 %
09.06.2016 18:15 15,9 C 92 % 1012,5 hPa 0,0 l/m 8,4 km/h (2 Bft) S-SW 196 0 min 0,000 mm 0,0 UV-I 98 W/m 14,6 C 14,8 C 11,3 km/h (2 Bft) 100,00 %
09.06.2016 18:16 15,9 C 92 % 1012,5 hPa 0,0 l/m 9,3 km/h (2 Bft) S-SW 198 0 min 0,000 mm 0,0 UV-I 98 W/m 14,6 C 14,4 C 11,3 km/h (2 Bft) 100,00 %
09.06.2016 18:17 15,9 C 92 % 1012,4 hPa 0,0 l/m 7,4 km/h (2 Bft) S-SW 202 0 min 0,000 mm 0,0 UV-I 98 W/m 14,6 C 15,4 C 9,7 km/h (2 Bft) 100,00 %
09.06.2016 18:18 15,9 C 92 % 1012,5 hPa 0,0 l/m 8,7 km/h (2 Bft) S-SW 209 0 min 0,000 mm 0,0 UV-I 98 W/m 14,6 C 14,7 C 11,3 km/h (2 Bft) 95,65 %
09.06.2016 18:19 15,9 C 92 % 1012,4 hPa 0,0 l/m 6,9 km/h (2 Bft) S 185 0 min 0,000 mm 0,0 UV-I 98 W/m 14,6 C 15,6 C 9,7 km/h (2 Bft) 100,00 %
09.06.2016 18:20 15,8 C 92 % 1012,5 hPa 0,0 l/m 7,2 km/h (2 Bft) S-SW 210 0 min 0,000 mm 0,0 UV-I 98 W/m 14,5 C 15,4 C 9,7 km/h (2 Bft) 95,65 %
09.06.2016 18:21 15,8 C 92 % 1012,5 hPa 0,0 l/m 5,4 km/h (1 Bft) S-SW 192 0 min 0,000 mm 0,0 UV-I 98 W/m 14,5 C 15,8 C 6,4 km/h (2 Bft) 100,00 %
09.06.2016 18:22 15,8 C 93 % 1012,5 hPa 0,0 l/m 7,4 km/h (2 Bft) S-SW 200 0 min 0,000 mm 0,0 UV-I 98 W/m 14,7 C 15,3 C 12,9 km/h (3 Bft) 95,83 %
09.06.2016 18:23 15,8 C 92 % 1012,5 hPa 0,0 l/m 7,7 km/h (2 Bft) S-SW 200 0 min 0,000 mm 0,0 UV-I 99 W/m 14,5 C 15,1 C 11,3 km/h (2 Bft) 95,65 %
09.06.2016 18:24 15,8 C 92 % 1012,5 hPa 0,2 l/m 9,3 km/h (2 Bft) S-SW 200 0 min 0,000 mm 0,0 UV-I 100 W/m 14,5 C 14,3 C 12,9 km/h (3 Bft) 100,00 %
09.06.2016 18:25 15,8 C 92 % 1012,5 hPa 0,0 l/m 8,4 km/h (2 Bft) S-SW 205 0 min 0,000 mm 0,0 UV-I 101 W/m 14,5 C 14,7 C 11,3 km/h (2 Bft) 100,00 %
09.06.2016 18:26 15,8 C 92 % 1012,5 hPa 0,0 l/m 8,0 km/h (2 Bft) S-SW 200 0 min 0,000 mm 0,0 UV-I 102 W/m 14,5 C 14,9 C 9,7 km/h (2 Bft) 100,00 %
09.06.2016 18:27 15,8 C 92 % 1012,5 hPa 0,0 l/m 5,2 km/h (1 Bft) S-SW 202 0 min 0,000 mm 0,0 UV-I 102 W/m 14,5 C 15,8 C 8,0 km/h (2 Bft) 92,86 %
09.06.2016 18:28 15,8 C 92 % 1012,5 hPa 0,0 l/m 6,0 km/h (2 Bft) SW 218 0 min 0,000 mm 0,0 UV-I 102 W/m 14,5 C 15,8 C 9,7 km/h (2 Bft) 100,00 %
09.06.2016 18:29 15,8 C 92 % 1012,5 hPa 0,0 l/m 6,6 km/h (2 Bft) S-SW 207 0 min 0,000 mm 0,0 UV-I 102 W/m 14,5 C 15,7 C 9,7 km/h (2 Bft) 100,00 %
09.06.2016 18:30 15,8 C 92 % 1012,5 hPa 0,0 l/m 6,1 km/h (2 Bft) SW 219 0 min 0,000 mm 0,0 UV-I 102 W/m 14,5 C 15,8 C 9,7 km/h (2 Bft) 100,00 %
09.06.2016 18:31 15,8 C 92 % 1012,6 hPa 0,0 l/m 6,7 km/h (2 Bft) S-SW 205 0 min 0,000 mm 0,0 UV-I 102 W/m 14,5 C 15,6 C 9,7 km/h (2 Bft) 100,00 %
09.06.2016 18:32 15,8 C 92 % 1012,5 hPa 0,0 l/m 6,0 km/h (2 Bft) S-SW 207 0 min 0,000 mm 0,0 UV-I 102 W/m 14,5 C 15,8 C 9,7 km/h (2 Bft) 100,00 %
09.06.2016 18:33 15,8 C 92 % 1012,5 hPa 0,0 l/m 9,4 km/h (2 Bft) S-SW 202 0 min 0,000 mm 0,0 UV-I 102 W/m 14,5 C 14,3 C 12,9 km/h (3 Bft) 95,65 %
09.06.2016 18:34 15,8 C 91 % 1012,5 hPa 0,0 l/m 7,3 km/h (2 Bft) S-SW 196 0 min 0,000 mm 0,0 UV-I 102 W/m 14,3 C 15,3 C 8,0 km/h (2 Bft) 100,00 %
09.06.2016 18:35 15,8 C 92 % 1012,5 hPa 0,0 l/m 6,9 km/h (2 Bft) S-SW 207 0 min 0,000 mm 0,0 UV-I 102 W/m 14,5 C 15,5 C 9,7 km/h (2 Bft) 100,00 %
09.06.2016 18:36 15,8 C 92 % 1012,6 hPa 0,0 l/m 6,4 km/h (2 Bft) S 180 0 min 0,000 mm 0,0 UV-I 102 W/m 14,5 C 15,8 C 9,7 km/h (2 Bft) 100,00 %
09.06.2016 18:37 15,8 C 92 % 1012,6 hPa 0,0 l/m 4,8 km/h (1 Bft) S 190 0 min 0,000 mm 0,0 UV-I 102 W/m 14,5 C 15,8 C 8,0 km/h (2 Bft) 100,00 %
09.06.2016 18:38 15,8 C 92 % 1012,6 hPa 0,0 l/m 8,0 km/h (2 Bft) S 173 0 min 0,000 mm 0,0 UV-I 102 W/m 14,5 C 14,9 C 11,3 km/h (2 Bft) 100,00 %
09.06.2016 18:39 15,8 C 93 % 1012,6 hPa 0,0 l/m 5,8 km/h (2 Bft) S-SW 209 0 min 0,000 mm 0,0 UV-I 102 W/m 14,7 C 15,8 C 8,0 km/h (2 Bft) 100,00 %
09.06.2016 18:40 15,8 C 92 % 1012,6 hPa 0,0 l/m 6,6 km/h (2 Bft) S 170 0 min 0,000 mm 0,0 UV-I 103 W/m 14,5 C 15,7 C 9,7 km/h (2 Bft) 100,00 %
09.06.2016 18:41 15,8 C 93 % 1012,6 hPa 0,0 l/m 4,7 km/h (1 Bft) S-SW 200 0 min 0,000 mm 0,0 UV-I 104 W/m 14,7 C 15,8 C 6,4 km/h (2 Bft) 100,00 %
09.06.2016 18:42 15,7 C 92 % 1012,6 hPa 0,0 l/m 4,3 km/h (1 Bft) S-SW 197 0 min 0,000 mm 0,0 UV-I 104 W/m 14,4 C 15,7 C 6,4 km/h (2 Bft) 100,00 %
09.06.2016 18:43 15,8 C 92 % 1012,6 hPa 0,0 l/m 5,4 km/h (1 Bft) SW 215 0 min 0,000 mm 0,0 UV-I 104 W/m 14,5 C 15,8 C 8,0 km/h (2 Bft) 95,83 %
09.06.2016 18:44 15,8 C 92 % 1012,6 hPa 0,0 l/m 6,5 km/h (2 Bft) SW 219 0 min 0,000 mm 0,0 UV-I 104 W/m 14,5 C 15,8 C 9,7 km/h (2 Bft) 95,65 %
09.06.2016 18:45 15,7 C 92 % 1012,6 hPa 0,0 l/m 5,4 km/h (1 Bft) S 191 0 min 0,000 mm 0,0 UV-I 104 W/m 14,4 C 15,7 C 9,7 km/h (2 Bft) 100,00 %
09.06.2016 18:46 15,7 C 92 % 1012,7 hPa 0,0 l/m 4,1 km/h (1 Bft) S 182 0 min 0,000 mm 0,0 UV-I 104 W/m 14,4 C 15,7 C 6,4 km/h (2 Bft) 100,00 %
09.06.2016 18:47 15,7 C 92 % 1012,6 hPa 0,0 l/m 5,8 km/h (2 Bft) S 186 0 min 0,000 mm 0,0 UV-I 104 W/m 14,4 C 15,7 C 8,0 km/h (2 Bft) 100,00 %
09.06.2016 18:48 15,7 C 91 % 1012,6 hPa 0,0 l/m 6,7 km/h (2 Bft) S 191 0 min 0,000 mm 0,0 UV-I 104 W/m 14,2 C 15,5 C 11,3 km/h (2 Bft) 95,65 %
09.06.2016 18:49 15,7 C 92 % 1012,6 hPa 0,0 l/m 5,2 km/h (1 Bft) S-SW 205 0 min 0,000 mm 0,0 UV-I 102 W/m 14,4 C 15,7 C 6,4 km/h (2 Bft) 100,00 %
09.06.2016 18:50 15,7 C 92 % 1012,7 hPa 0,0 l/m 4,9 km/h (1 Bft) S 179 0 min 0,000 mm 0,0 UV-I 102 W/m 14,4 C 15,7 C 8,0 km/h (2 Bft) 95,65 %
09.06.2016 18:51 15,7 C 92 % 1012,6 hPa 0,0 l/m 5,0 km/h (1 Bft) S 190 0 min 0,000 mm 0,0 UV-I 100 W/m 14,4 C 15,7 C 6,4 km/h (2 Bft) 100,00 %
09.06.2016 18:52 15,7 C 92 % 1012,7 hPa 0,0 l/m 6,6 km/h (2 Bft) SW 216 0 min 0,000 mm 0,0 UV-I 98 W/m 14,4 C 15,6 C 11,3 km/h (2 Bft) 95,65 %
09.06.2016 18:53 15,7 C 92 % 1012,7 hPa 0,0 l/m 7,4 km/h (2 Bft) S-SW 201 0 min 0,000 mm 0,0 UV-I 96 W/m 14,4 C 15,2 C 9,7 km/h (2 Bft) 100,00 %
09.06.2016 18:54 15,7 C 92 % 1012,7 hPa 0,0 l/m 7,7 km/h (2 Bft) S-SO 157 0 min 0,000 mm 0,0 UV-I 94 W/m 14,4 C 15,0 C 11,3 km/h (2 Bft) 100,00 %
09.06.2016 18:55 15,7 C 92 % 1012,7 hPa 0,0 l/m 7,3 km/h (2 Bft) S-SW 212 0 min 0,000 mm 0,0 UV-I 92 W/m 14,4 C 15,2 C 11,3 km/h (2 Bft) 100,00 %
09.06.2016 18:56 15,7 C 91 % 1012,7 hPa 0,0 l/m 6,5 km/h (2 Bft) S 190 0 min 0,000 mm 0,0 UV-I 90 W/m 14,2 C 15,7 C 8,0 km/h (2 Bft) 96,15 %
09.06.2016 19:00 15,7 C 92 % 1012,7 hPa 0,0 l/m 6,4 km/h (2 Bft) S-SW 202 0 min 0,051 mm 0,0 UV-I 86 W/m 14,4 C 15,7 C 9,7 km/h (2 Bft) 100,00 %
09.06.2016 19:03 15,7 C 92 % 1012,7 hPa 0,0 l/m 8,6 km/h (2 Bft) S 191 0 min 0,000 mm 0,0 UV-I 84 W/m 14,4 C 14,5 C 9,7 km/h (2 Bft) 99,39 %
09.06.2016 19:04 15,7 C 92 % 1012,7 hPa 0,0 l/m 7,6 km/h (2 Bft) S-SW 196 0 min 0,000 mm 0,0 UV-I 77 W/m 14,4 C 15,0 C 9,7 km/h (2 Bft) 95,65 %
09.06.2016 19:05 15,7 C 92 % 1012,7 hPa 0,0 l/m 7,4 km/h (2 Bft) S-SW 200 0 min 0,000 mm 0,0 UV-I 77 W/m 14,4 C 15,2 C 9,7 km/h (2 Bft) 100,00 %
09.06.2016 19:06 15,7 C 92 % 1012,7 hPa 0,0 l/m 7,7 km/h (2 Bft) S-SW 207 0 min 0,000 mm 0,0 UV-I 76 W/m 14,4 C 15,0 C 11,3 km/h (2 Bft) 100,00 %
09.06.2016 19:07 15,7 C 92 % 1012,7 hPa 0,0 l/m 8,5 km/h (2 Bft) S-SW 196 0 min 0,000 mm 0,0 UV-I 76 W/m 14,4 C 14,6 C 11,3 km/h (2 Bft) 100,00 %
09.06.2016 19:08 15,7 C 92 % 1012,7 hPa 0,0 l/m 8,4 km/h (2 Bft) S-SW 211 0 min 0,000 mm 0,0 UV-I 76 W/m 14,4 C 14,6 C 11,3 km/h (2 Bft) 100,00 %
09.06.2016 19:09 15,7 C 92 % 1012,8 hPa 0,0 l/m 9,2 km/h (2 Bft) S 179 0 min 0,000 mm 0,0 UV-I 74 W/m 14,4 C 14,3 C 11,3 km/h (2 Bft) 100,00 %
09.06.2016 19:10 15,7 C 92 % 1012,7 hPa 0,0 l/m 7,5 km/h (2 Bft) S-SW 213 0 min 0,000 mm 0,0 UV-I 74 W/m 14,4 C 15,1 C 9,7 km/h (2 Bft) 100,00 %
09.06.2016 19:11 15,7 C 92 % 1012,7 hPa 0,0 l/m 5,7 km/h (1 Bft) W-SW 245 0 min 0,000 mm 0,0 UV-I 73 W/m 14,4 C 15,7 C 8,0 km/h (2 Bft) 100,00 %
09.06.2016 19:12 15,7 C 92 % 1012,7 hPa 0,0 l/m 6,4 km/h (2 Bft) S-SO 168 0 min 0,000 mm 0,0 UV-I 72 W/m 14,4 C 15,7 C 9,7 km/h (2 Bft) 100,00 %
09.06.2016 19:14 15,7 C 92 % 1012,8 hPa 0,0 l/m 7,0 km/h (2 Bft) S 182 0 min 0,000 mm 0,0 UV-I 72 W/m 14,4 C 15,4 C 8,0 km/h (2 Bft) 100,00 %
09.06.2016 19:15 15,7 C 92 % 1012,8 hPa 0,0 l/m 6,3 km/h (2 Bft) S 185 0 min 0,000 mm 0,0 UV-I 70 W/m 14,4 C 15,7 C 8,0 km/h (2 Bft) 100,00 %
09.06.2016 19:16 15,6 C 92 % 1012,8 hPa 0,0 l/m 7,3 km/h (2 Bft) S 176 0 min 0,000 mm 0,0 UV-I 70 W/m 14,3 C 15,1 C 9,7 km/h (2 Bft) 100,00 %
09.06.2016 19:17 15,6 C 92 % 1012,8 hPa 0,0 l/m 6,7 km/h (2 Bft) S 188 0 min 0,000 mm 0,0 UV-I 69 W/m 14,3 C 15,4 C 11,3 km/h (2 Bft) 100,00 %
09.06.2016 19:18 15,6 C 92 % 1012,9 hPa 0,0 l/m 5,5 km/h (1 Bft) S 189 0 min 0,000 mm 0,0 UV-I 69 W/m 14,3 C 15,6 C 9,7 km/h (2 Bft) 96,30 %
09.06.2016 19:19 15,6 C 92 % 1012,8 hPa 0,0 l/m 8,4 km/h (2 Bft) S 188 0 min 0,000 mm 0,0 UV-I 69 W/m 14,3 C 14,5 C 11,3 km/h (2 Bft) 100,00 %
09.06.2016 19:20 15,6 C 92 % 1012,8 hPa 0,0 l/m 8,3 km/h (2 Bft) S-SW 203 0 min 0,000 mm 0,0 UV-I 67 W/m 14,3 C 14,6 C 12,9 km/h (3 Bft) 100,00 %
09.06.2016 19:21 15,6 C 92 % 1012,8 hPa 0,0 l/m 7,6 km/h (2 Bft) S 180 0 min 0,000 mm 0,0 UV-I 66 W/m 14,3 C 14,9 C 11,3 km/h (2 Bft) 100,00 %
09.06.2016 19:22 15,6 C 92 % 1012,8 hPa 0,0 l/m 6,4 km/h (2 Bft) SW 219 0 min 0,000 mm 0,0 UV-I 64 W/m 14,3 C 15,6 C 8,0 km/h (2 Bft) 100,00 %
09.06.2016 19:23 15,6 C 91 % 1012,8 hPa 0,0 l/m 9,3 km/h (2 Bft) S-SW 196 0 min 0,000 mm 0,0 UV-I 63 W/m 14,1 C 14,1 C 11,3 km/h (2 Bft) 100,00 %
09.06.2016 19:24 15,6 C 91 % 1012,8 hPa 0,0 l/m 6,6 km/h (2 Bft) S 171 0 min 0,000 mm 0,0 UV-I 62 W/m 14,1 C 15,5 C 11,3 km/h (2 Bft) 100,00 %
09.06.2016 19:25 15,6 C 91 % 1012,8 hPa 0,0 l/m 8,6 km/h (2 Bft) S 182 0 min 0,000 mm 0,0 UV-I 62 W/m 14,1 C 14,4 C 11,3 km/h (2 Bft) 100,00 %
09.06.2016 19:26 15,6 C 91 % 1012,8 hPa 0,0 l/m 5,2 km/h (1 Bft) S-SW 201 0 min 0,000 mm 0,0 UV-I 60 W/m 14,1 C 15,6 C 8,0 km/h (2 Bft) 100,00 %
09.06.2016 19:27 15,6 C 91 % 1012,8 hPa 0,0 l/m 4,4 km/h (1 Bft) S-SW 196 0 min 0,000 mm 0,0 UV-I 59 W/m 14,1 C 15,6 C 9,7 km/h (2 Bft) 95,65 %
09.06.2016 19:28 15,6 C 91 % 1012,9 hPa 0,0 l/m 5,5 km/h (1 Bft) S-SO 158 0 min 0,000 mm 0,0 UV-I 58 W/m 14,1 C 15,6 C 8,0 km/h (2 Bft) 100,00 %
09.06.2016 19:29 15,6 C 91 % 1012,9 hPa 0,0 l/m 5,6 km/h (1 Bft) S-SW 194 0 min 0,000 mm 0,0 UV-I 58 W/m 14,1 C 15,6 C 8,0 km/h (2 Bft) 95,65 %
09.06.2016 19:30 15,6 C 91 % 1012,9 hPa 0,0 l/m 6,4 km/h (2 Bft) S-SW 210 0 min 0,000 mm 0,0 UV-I 58 W/m 14,1 C 15,6 C 9,7 km/h (2 Bft) 100,00 %
09.06.2016 19:31 15,6 C 92 % 1012,9 hPa 0,0 l/m 6,7 km/h (2 Bft) S 171 0 min 0,000 mm 0,0 UV-I 58 W/m 14,3 C 15,4 C 8,0 km/h (2 Bft) 92,31 %
09.06.2016 19:32 15,6 C 92 % 1012,9 hPa 0,0 l/m 8,0 km/h (2 Bft) SW 230 0 min 0,000 mm 0,0 UV-I 58 W/m 14,3 C 14,7 C 11,3 km/h (2 Bft) 100,00 %
09.06.2016 19:33 15,6 C 92 % 1012,9 hPa 0,0 l/m 5,8 km/h (2 Bft) S-SW 210 0 min 0,000 mm 0,0 UV-I 58 W/m 14,3 C 15,6 C 8,0 km/h (2 Bft) 100,00 %
09.06.2016 19:34 15,6 C 92 % 1012,9 hPa 0,0 l/m 5,6 km/h (1 Bft) S-SW 203 0 min 0,000 mm 0,0 UV-I 58 W/m 14,3 C 15,6 C 8,0 km/h (2 Bft) 95,83 %
09.06.2016 19:35 15,6 C 91 % 1012,9 hPa 0,0 l/m 6,3 km/h (2 Bft) S-SW 196 0 min 0,000 mm 0,0 UV-I 58 W/m 14,1 C 15,6 C 8,0 km/h (2 Bft) 96,15 %
09.06.2016 19:36 15,6 C 92 % 1012,9 hPa 0,0 l/m 7,0 km/h (2 Bft) S-SW 199 0 min 0,000 mm 0,0 UV-I 58 W/m 14,3 C 15,3 C 9,7 km/h (2 Bft) 100,00 %
09.06.2016 19:37 15,5 C 91 % 1012,9 hPa 0,0 l/m 7,1 km/h (2 Bft) S-SW 196 0 min 0,000 mm 0,0 UV-I 58 W/m 14,0 C 15,1 C 9,7 km/h (2 Bft) 91,30 %
09.06.2016 19:38 15,5 C 91 % 1012,9 hPa 0,0 l/m 7,3 km/h (2 Bft) S-SW 207 0 min 0,000 mm 0,0 UV-I 58 W/m 14,0 C 15,0 C 9,7 km/h (2 Bft) 100,00 %
09.06.2016 19:39 15,5 C 91 % 1012,9 hPa 0,0 l/m 7,6 km/h (2 Bft) S-SW 193 0 min 0,000 mm 0,0 UV-I 58 W/m 14,0 C 14,8 C 9,7 km/h (2 Bft) 96,00 %
09.06.2016 19:40 15,5 C 92 % 1012,9 hPa 0,0 l/m 6,3 km/h (2 Bft) SW 217 0 min 0,000 mm 0,0 UV-I 58 W/m 14,2 C 15,5 C 9,7 km/h (2 Bft) 100,00 %
09.06.2016 19:41 15,5 C 92 % 1012,9 hPa 0,0 l/m 7,6 km/h (2 Bft) S-SW 200 0 min 0,000 mm 0,0 UV-I 58 W/m 14,2 C 14,8 C 9,7 km/h (2 Bft) 95,83 %
09.06.2016 19:42 15,5 C 91 % 1012,9 hPa 0,0 l/m 6,6 km/h (2 Bft) S-SW 192 0 min 0,000 mm 0,0 UV-I 58 W/m 14,0 C 15,4 C 8,0 km/h (2 Bft) 95,65 %
09.06.2016 19:43 15,5 C 91 % 1012,9 hPa 0,0 l/m 6,3 km/h (2 Bft) S-SW 213 0 min 0,000 mm 0,0 UV-I 58 W/m 14,0 C 15,5 C 8,0 km/h (2 Bft) 100,00 %
09.06.2016 19:44 15,5 C 91 % 1012,9 hPa 0,0 l/m 6,8 km/h (2 Bft) S-SW 193 0 min 0,000 mm 0,0 UV-I 58 W/m 14,0 C 15,3 C 11,3 km/h (2 Bft) 91,30 %
09.06.2016 19:45 15,5 C 91 % 1012,9 hPa 0,0 l/m 6,3 km/h (2 Bft) S-SW 210 0 min 0,000 mm 0,0 UV-I 56 W/m 14,0 C 15,5 C 8,0 km/h (2 Bft) 100,00 %
09.06.2016 19:46 15,5 C 92 % 1012,9 hPa 0,0 l/m 7,2 km/h (2 Bft) S-SW 194 0 min 0,000 mm 0,0 UV-I 56 W/m 14,2 C 15,1 C 9,7 km/h (2 Bft) 97,06 %
09.06.2016 19:47 15,5 C 92 % 1012,9 hPa 0,0 l/m 6,6 km/h (2 Bft) S-SW 195 0 min 0,000 mm 0,0 UV-I 55 W/m 14,2 C 15,4 C 9,7 km/h (2 Bft) 100,00 %
09.06.2016 19:48 15,4 C 91 % 1013,0 hPa 0,0 l/m 5,2 km/h (1 Bft) S 190 0 min 0,000 mm 0,0 UV-I 54 W/m 13,9 C 15,4 C 6,4 km/h (2 Bft) 92,86 %
09.06.2016 19:49 15,4 C 92 % 1012,9 hPa 0,0 l/m 5,9 km/h (2 Bft) S-SW 205 0 min 0,000 mm 0,0 UV-I 53 W/m 14,1 C 15,4 C 8,0 km/h (2 Bft) 100,00 %
09.06.2016 19:50 15,4 C 92 % 1012,9 hPa 0,0 l/m 4,8 km/h (1 Bft) S 182 0 min 0,000 mm 0,0 UV-I 51 W/m 14,1 C 15,4 C 6,4 km/h (2 Bft) 91,30 %
09.06.2016 19:51 15,5 C 92 % 1013,0 hPa 0,0 l/m 5,4 km/h (1 Bft) S 180 0 min 0,000 mm 0,0 UV-I 50 W/m 14,2 C 15,5 C 6,4 km/h (2 Bft) 100,00 %
09.06.2016 19:52 15,5 C 92 % 1013,0 hPa 0,0 l/m 4,6 km/h (1 Bft) S-SW 199 0 min 0,000 mm 0,0 UV-I 48 W/m 14,2 C 15,5 C 6,4 km/h (2 Bft) 91,30 %
09.06.2016 19:53 15,4 C 92 % 1013,0 hPa 0,0 l/m 3,8 km/h (1 Bft) S-SW 199 0 min 0,000 mm 0,0 UV-I 47 W/m 14,1 C 15,4 C 4,8 km/h (1 Bft) 95,83 %
09.06.2016 19:54 15,5 C 92 % 1012,9 hPa 0,0 l/m 4,3 km/h (1 Bft) S 184 0 min 0,000 mm 0,0 UV-I 46 W/m 14,2 C 15,5 C 6,4 km/h (2 Bft) 100,00 %
09.06.2016 19:55 15,5 C 92 % 1013,0 hPa 0,0 l/m 5,2 km/h (1 Bft) S-SW 213 0 min 0,000 mm 0,0 UV-I 44 W/m 14,2 C 15,5 C 6,4 km/h (2 Bft) 95,83 %
09.06.2016 19:56 15,5 C 92 % 1013,0 hPa 0,0 l/m 3,9 km/h (1 Bft) S-SW 211 0 min 0,000 mm 0,0 UV-I 44 W/m 14,2 C 15,5 C 4,8 km/h (1 Bft) 95,83 %
09.06.2016 19:57 15,5 C 92 % 1013,0 hPa 0,0 l/m 4,4 km/h (1 Bft) S-SW 196 0 min 0,000 mm 0,0 UV-I 43 W/m 14,2 C 15,5 C 6,4 km/h (2 Bft) 95,65 %
09.06.2016 19:58 15,5 C 93 % 1013,0 hPa 0,0 l/m 4,8 km/h (1 Bft) SW 216 0 min 0,000 mm 0,0 UV-I 42 W/m 14,4 C 15,5 C 6,4 km/h (2 Bft) 100,00 %
09.06.2016 19:59 15,5 C 92 % 1012,9 hPa 0,0 l/m 4,4 km/h (1 Bft) S 188 0 min 0,000 mm 0,0 UV-I 42 W/m 14,2 C 15,5 C 6,4 km/h (2 Bft) 92,00 %
09.06.2016 20:00 15,5 C 92 % 1013,0 hPa 0,0 l/m 3,4 km/h (1 Bft) S 191 0 min 0,000 mm 0,0 UV-I 40 W/m 14,2 C 15,5 C 4,8 km/h (1 Bft) 96,30 %
09.06.2016 20:01 15,5 C 92 % 1013,0 hPa 0,0 l/m 4,2 km/h (1 Bft) S 190 0 min 0,050 mm 0,0 UV-I 40 W/m 14,2 C 15,5 C 4,8 km/h (1 Bft) 100,00 %
09.06.2016 20:02 15,5 C 92 % 1013,0 hPa 0,0 l/m 3,9 km/h (1 Bft) S-SW 196 0 min 0,000 mm 0,0 UV-I 40 W/m 14,2 C 15,5 C 4,8 km/h (1 Bft) 95,83 %
09.06.2016 20:03 15,5 C 92 % 1012,9 hPa 0,0 l/m 3,4 km/h (1 Bft) S-SW 208 0 min 0,000 mm 0,0 UV-I 40 W/m 14,2 C 15,5 C 4,8 km/h (1 Bft) 100,00 %
09.06.2016 20:04 15,5 C 93 % 1013,0 hPa 0,0 l/m 3,4 km/h (1 Bft) S-SW 208 0 min 0,000 mm 0,0 UV-I 39 W/m 14,4 C 15,5 C 4,8 km/h (1 Bft) 95,83 %
09.06.2016 20:05 15,6 C 93 % 1013,0 hPa 0,0 l/m 3,4 km/h (1 Bft) S-SW 199 0 min 0,000 mm 0,0 UV-I 38 W/m 14,5 C 15,6 C 4,8 km/h (1 Bft) 95,65 %
09.06.2016 20:06 15,6 C 93 % 1013,0 hPa 0,0 l/m 2,7 km/h (1 Bft) S-SW 213 0 min 0,000 mm 0,0 UV-I 37 W/m 14,5 C 15,6 C 4,8 km/h (1 Bft) 95,83 %
09.06.2016 20:07 15,6 C 93 % 1013,0 hPa 0,0 l/m 2,8 km/h (1 Bft) SW 215 0 min 0,000 mm 0,0 UV-I 35 W/m 14,5 C 15,6 C 4,8 km/h (1 Bft) 91,30 %
09.06.2016 20:08 15,5 C 93 % 1013,0 hPa 0,0 l/m 2,5 km/h (1 Bft) SW 215 0 min 0,000 mm 0,0 UV-I 34 W/m 14,4 C 15,5 C 3,2 km/h (1 Bft) 95,83 %
09.06.2016 20:09 15,6 C 93 % 1013,0 hPa 0,0 l/m 1,4 km/h (1 Bft) SW 215 0 min 0,000 mm 0,0 UV-I 32 W/m 14,5 C 15,6 C 3,2 km/h (1 Bft) 100,00 %
09.06.2016 20:10 15,6 C 93 % 1013,0 hPa 0,0 l/m 3,4 km/h (1 Bft) SW 215 0 min 0,000 mm 0,0 UV-I 32 W/m 14,5 C 15,6 C 4,8 km/h (1 Bft) 95,83 %
09.06.2016 20:11 15,6 C 93 % 1013,0 hPa 0,0 l/m 3,5 km/h (1 Bft) SW 215 0 min 0,000 mm 0,0 UV-I 31 W/m 14,5 C 15,6 C 4,8 km/h (1 Bft) 100,00 %
09.06.2016 20:12 15,6 C 93 % 1013,0 hPa 0,0 l/m 1,7 km/h (1 Bft) SW 215 0 min 0,000 mm 0,0 UV-I 28 W/m 14,5 C 15,6 C 3,2 km/h (1 Bft) 100,00 %
09.06.2016 20:13 15,6 C 94 % 1013,0 hPa 0,0 l/m 3,9 km/h (1 Bft) SW 215 0 min 0,000 mm 0,0 UV-I 26 W/m 14,6 C 15,6 C 4,8 km/h (1 Bft) 100,00 %
09.06.2016 20:14 15,6 C 94 % 1013,1 hPa 0,0 l/m 2,4 km/h (1 Bft) SW 215 0 min 0,000 mm 0,0 UV-I 24 W/m 14,6 C 15,6 C 4,8 km/h (1 Bft) 100,00 %
09.06.2016 20:15 15,6 C 94 % 1013,0 hPa 0,0 l/m 2,0 km/h (1 Bft) SW 215 0 min 0,000 mm 0,0 UV-I 22 W/m 14,6 C 15,6 C 3,2 km/h (1 Bft) 95,65 %
09.06.2016 20:16 15,6 C 94 % 1013,0 hPa 0,0 l/m 2,5 km/h (1 Bft) SW 215 0 min 0,000 mm 0,0 UV-I 20 W/m 14,6 C 15,6 C 4,8 km/h (1 Bft) 95,83 %
09.06.2016 20:17 15,6 C 94 % 1013,0 hPa 0,0 l/m 2,2 km/h (1 Bft) SW 215 0 min 0,000 mm 0,0 UV-I 18 W/m 14,6 C 15,6 C 4,8 km/h (1 Bft) 100,00 %
09.06.2016 20:18 15,6 C 94 % 1013,1 hPa 0,0 l/m 2,2 km/h (1 Bft) SW 215 0 min 0,000 mm 0,0 UV-I 16 W/m 14,6 C 15,6 C 3,2 km/h (1 Bft) 95,65 %
09.06.2016 20:19 15,6 C 94 % 1013,1 hPa 0,0 l/m 1,5 km/h (1 Bft) SW 215 0 min 0,000 mm 0,0 UV-I 16 W/m 14,6 C 15,6 C 3,2 km/h (1 Bft) 100,00 %
09.06.2016 20:20 15,6 C 94 % 1013,1 hPa 0,0 l/m 1,9 km/h (1 Bft) SW 215 0 min 0,000 mm 0,0 UV-I 14 W/m 14,6 C 15,6 C 3,2 km/h (1 Bft) 100,00 %
09.06.2016 20:21 15,6 C 94 % 1013,1 hPa 0,0 l/m 2,7 km/h (1 Bft) W-SW 248 0 min 0,000 mm 0,0 UV-I 13 W/m 14,6 C 15,6 C 4,8 km/h (1 Bft) 95,83 %
09.06.2016 20:22 15,5 C 94 % 1013,1 hPa 0,0 l/m 2,4 km/h (1 Bft) W-SW 248 0 min 0,000 mm 0,0 UV-I 12 W/m 14,5 C 15,5 C 4,8 km/h (1 Bft) 100,00 %
09.06.2016 20:23 15,5 C 94 % 1013,1 hPa 0,0 l/m 1,7 km/h (1 Bft) W-SW 248 0 min 0,000 mm 0,0 UV-I 12 W/m 14,5 C 15,5 C 3,2 km/h (1 Bft) 100,00 %
09.06.2016 20:24 15,4 C 94 % 1013,1 hPa 0,0 l/m 1,1 km/h (1 Bft) W-SW 248 0 min 0,000 mm 0,0 UV-I 12 W/m 14,4 C 15,4 C 1,6 km/h (1 Bft) 100,00 %
09.06.2016 20:25 15,4 C 94 % 1013,1 hPa 0,0 l/m 1,4 km/h (1 Bft) W-SW 248 0 min 0,000 mm 0,0 UV-I 11 W/m 14,4 C 15,4 C 3,2 km/h (1 Bft) 100,00 %
09.06.2016 20:26 15,4 C 94 % 1013,1 hPa 0,0 l/m 0,5 km/h (0 Bft) W-SW 248 0 min 0,000 mm 0,0 UV-I 11 W/m 14,4 C 15,4 C 1,6 km/h (1 Bft) 95,65 %
09.06.2016 20:27 15,4 C 94 % 1013,1 hPa 0,0 l/m 0,6 km/h (0 Bft) W-SW 248 0 min 0,000 mm 0,0 UV-I 11 W/m 14,4 C 15,4 C 1,6 km/h (1 Bft) 100,00 %
09.06.2016 20:28 15,4 C 94 % 1013,1 hPa 0,0 l/m 0,0 km/h (0 Bft) W-SW 248 0 min 0,000 mm 0,0 UV-I 11 W/m 14,4 C 15,4 C 0,0 km/h (0 Bft) 95,65 %
09.06.2016 20:29 15,4 C 94 % 1013,1 hPa 0,0 l/m 1,3 km/h (1 Bft) W-SW 248 0 min 0,000 mm 0,0 UV-I 9 W/m 14,4 C 15,4 C 3,2 km/h (1 Bft) 100,00 %
09.06.2016 20:30 15,5 C 94 % 1013,1 hPa 0,0 l/m 2,2 km/h (1 Bft) W-SW 248 0 min 0,000 mm 0,0 UV-I 9 W/m 14,5 C 15,5 C 3,2 km/h (1 Bft) 100,00 %
09.06.2016 20:33 15,6 C 94 % 1013,1 hPa 0,0 l/m 2,9 km/h (1 Bft) W 273 0 min 0,000 mm 0,0 UV-I 8 W/m 14,6 C 15,6 C 4,8 km/h (1 Bft) 100,00 %
09.06.2016 20:34 15,6 C 94 % 1013,1 hPa 0,0 l/m 0,5 km/h (0 Bft) W 272 0 min 0,000 mm 0,0 UV-I 7 W/m 14,6 C 15,6 C 1,6 km/h (1 Bft) 100,00 %
09.06.2016 20:35 15,6 C 94 % 1013,1 hPa 0,0 l/m 0,0 km/h (0 Bft) W 272 0 min 0,000 mm 0,0 UV-I 7 W/m 14,6 C 15,6 C 0,0 km/h (0 Bft) 100,00 %
09.06.2016 20:36 15,5 C 94 % 1013,1 hPa 0,0 l/m 0,0 km/h (0 Bft) W 272 0 min 0,000 mm 0,0 UV-I 7 W/m 14,5 C 15,5 C 0,0 km/h (0 Bft) 100,00 %
09.06.2016 20:37 15,5 C 94 % 1013,1 hPa 0,0 l/m 0,0 km/h (0 Bft) W 272 0 min 0,000 mm 0,0 UV-I 7 W/m 14,5 C 15,5 C 0,0 km/h (0 Bft) 100,00 %
09.06.2016 20:38 15,5 C 94 % 1013,2 hPa 0,0 l/m 0,1 km/h (0 Bft) W 272 0 min 0,000 mm 0,0 UV-I 7 W/m 14,5 C 15,5 C 1,6 km/h (1 Bft) 100,00 %
09.06.2016 20:39 15,5 C 94 % 1013,1 hPa 0,0 l/m 0,0 km/h (0 Bft) W 272 0 min 0,000 mm 0,0 UV-I 7 W/m 14,5 C 15,5 C 0,0 km/h (0 Bft) 100,00 %
09.06.2016 20:40 15,5 C 94 % 1013,1 hPa 0,0 l/m 0,0 km/h (0 Bft) W 272 0 min 0,000 mm 0,0 UV-I 7 W/m 14,5 C 15,5 C 0,0 km/h (0 Bft) 95,83 %
09.06.2016 20:41 15,4 C 94 % 1013,1 hPa 0,0 l/m 2,1 km/h (1 Bft) W 272 0 min 0,000 mm 0,0 UV-I 7 W/m 14,4 C 15,4 C 3,2 km/h (1 Bft) 100,00 %
09.06.2016 20:42 15,4 C 94 % 1013,2 hPa 0,0 l/m 1,8 km/h (1 Bft) W 272 0 min 0,000 mm 0,0 UV-I 7 W/m 14,4 C 15,4 C 3,2 km/h (1 Bft) 100,00 %
09.06.2016 20:43 15,4 C 94 % 1013,1 hPa 0,0 l/m 1,7 km/h (1 Bft) W 272 0 min 0,000 mm 0,0 UV-I 7 W/m 14,4 C 15,4 C 3,2 km/h (1 Bft) 100,00 %
09.06.2016 20:44 15,5 C 95 % 1013,2 hPa 0,0 l/m 1,0 km/h (0 Bft) W 272 0 min 0,000 mm 0,0 UV-I 7 W/m 14,7 C 15,5 C 1,6 km/h (1 Bft) 95,65 %
09.06.2016 20:45 15,5 C 95 % 1013,1 hPa 0,0 l/m 0,3 km/h (0 Bft) W 272 0 min 0,000 mm 0,0 UV-I 6 W/m 14,7 C 15,5 C 1,6 km/h (1 Bft) 100,00 %
09.06.2016 20:47 15,5 C 95 % 1013,2 hPa 0,0 l/m 2,2 km/h (1 Bft) W 272 0 min 0,000 mm 0,0 UV-I 5 W/m 14,7 C 15,5 C 3,2 km/h (1 Bft) 95,56 %
09.06.2016 20:48 15,4 C 95 % 1013,2 hPa 0,0 l/m 0,9 km/h (0 Bft) W 272 0 min 0,000 mm 0,0 UV-I 5 W/m 14,6 C 15,4 C 3,2 km/h (1 Bft) 100,00 %
09.06.2016 20:49 15,4 C 95 % 1013,2 hPa 0,0 l/m 3,2 km/h (1 Bft) W-SW 257 0 min 0,000 mm 0,0 UV-I 5 W/m 14,6 C 15,4 C 9,7 km/h (2 Bft) 100,00 %
09.06.2016 20:50 15,4 C 95 % 1013,2 hPa 0,0 l/m 3,7 km/h (1 Bft) W 266 0 min 0,000 mm 0,0 UV-I 5 W/m 14,6 C 15,4 C 6,4 km/h (2 Bft) 100,00 %
09.06.2016 20:51 15,4 C 95 % 1013,2 hPa 0,0 l/m 2,1 km/h (1 Bft) SW 236 0 min 0,000 mm 0,0 UV-I 2 W/m 14,6 C 15,4 C 3,2 km/h (1 Bft) 100,00 %
09.06.2016 20:52 15,4 C 95 % 1013,2 hPa 0,0 l/m 1,6 km/h (1 Bft) SW 236 0 min 0,000 mm 0,0 UV-I 0 W/m 14,6 C 15,4 C 3,2 km/h (1 Bft) 100,00 %
09.06.2016 20:53 15,3 C 95 % 1013,2 hPa 0,0 l/m 1,7 km/h (1 Bft) SW 236 0 min 0,000 mm 0,0 UV-I 0 W/m 14,5 C 15,3 C 3,2 km/h (1 Bft) 100,00 %
09.06.2016 20:54 15,3 C 95 % 1013,2 hPa 0,0 l/m 1,2 km/h (1 Bft) SW 236 0 min 0,000 mm 0,0 UV-I 0 W/m 14,5 C 15,3 C 3,2 km/h (1 Bft) 100,00 %
09.06.2016 20:55 15,3 C 95 % 1013,2 hPa 0,0 l/m 1,9 km/h (1 Bft) W-NW 290 0 min 0,000 mm 0,0 UV-I 0 W/m 14,5 C 15,3 C 3,2 km/h (1 Bft) 100,00 %
09.06.2016 20:56 15,3 C 95 % 1013,2 hPa 0,0 l/m 0,4 km/h (0 Bft) W-NW 290 0 min 0,000 mm 0,0 UV-I 0 W/m 14,5 C 15,3 C 1,6 km/h (1 Bft) 95,83 %
09.06.2016 20:57 15,3 C 95 % 1013,2 hPa 0,0 l/m 0,1 km/h (0 Bft) W-NW 290 0 min 0,000 mm 0,0 UV-I 0 W/m 14,5 C 15,3 C 1,6 km/h (1 Bft) 95,83 %
09.06.2016 20:58 15,2 C 95 % 1013,2 hPa 0,0 l/m 0,1 km/h (0 Bft) W-NW 290 0 min 0,000 mm 0,0 UV-I 0 W/m 14,4 C 15,2 C 1,6 km/h (1 Bft) 100,00 %
09.06.2016 20:59 15,2 C 95 % 1013,2 hPa 0,0 l/m 0,0 km/h (0 Bft) W-NW 290 0 min 0,000 mm 0,0 UV-I 0 W/m 14,4 C 15,2 C 0,0 km/h (0 Bft) 95,83 %
09.06.2016 21:00 15,2 C 95 % 1013,2 hPa 0,0 l/m 0,2 km/h (0 Bft) W-NW 290 0 min 0,000 mm 0,0 UV-I 0 W/m 14,4 C 15,2 C 1,6 km/h (1 Bft) 100,00 %
09.06.2016 21:01 15,2 C 95 % 1013,2 hPa 0,0 l/m 0,2 km/h (0 Bft) W-NW 290 0 min 0,000 mm 0,0 UV-I 0 W/m 14,4 C 15,2 C 1,6 km/h (1 Bft) 100,00 %
09.06.2016 21:03 15,2 C 95 % 1013,2 hPa 0,0 l/m 0,0 km/h (0 Bft) W-NW 290 0 min 0,000 mm 0,0 UV-I 0 W/m 14,4 C 15,2 C 0,0 km/h (0 Bft) 95,92 %
09.06.2016 21:04 15,1 C 95 % 1013,2 hPa 0,0 l/m 0,7 km/h (0 Bft) W-NW 290 0 min 0,000 mm 0,0 UV-I 0 W/m 14,3 C 15,1 C 3,2 km/h (1 Bft) 100,00 %
09.06.2016 21:05 15,1 C 95 % 1013,2 hPa 0,0 l/m 1,8 km/h (1 Bft) W-NW 290 0 min 0,000 mm 0,0 UV-I 0 W/m 14,3 C 15,1 C 4,8 km/h (1 Bft) 100,00 %
09.06.2016 21:06 15,1 C 95 % 1013,2 hPa 0,0 l/m 0,1 km/h (0 Bft) W-NW 290 0 min 0,000 mm 0,0 UV-I 0 W/m 14,3 C 15,1 C 1,6 km/h (1 Bft) 100,00 %
09.06.2016 21:07 15,1 C 95 % 1013,2 hPa 0,0 l/m 3,2 km/h (1 Bft) W-NW 289 0 min 0,000 mm 0,0 UV-I 0 W/m 14,3 C 15,1 C 9,7 km/h (2 Bft) 100,00 %
09.06.2016 21:08 15,1 C 95 % 1013,2 hPa 0,0 l/m 4,5 km/h (1 Bft) W 273 0 min 0,000 mm 0,0 UV-I 0 W/m 14,3 C 15,1 C 9,7 km/h (2 Bft) 100,00 %
09.06.2016 21:09 15,0 C 95 % 1013,2 hPa 0,0 l/m 1,7 km/h (1 Bft) W 273 0 min 0,000 mm 0,0 UV-I 0 W/m 14,2 C 15,0 C 3,2 km/h (1 Bft) 100,00 %
09.06.2016 21:10 15,0 C 95 % 1013,2 hPa 0,0 l/m 2,4 km/h (1 Bft) W-SW 254 0 min 0,000 mm 0,0 UV-I 0 W/m 14,2 C 15,0 C 4,8 km/h (1 Bft) 100,00 %
09.06.2016 21:11 14,9 C 95 % 1013,3 hPa 0,0 l/m 3,2 km/h (1 Bft) W-SW 238 0 min 0,000 mm 0,0 UV-I 0 W/m 14,1 C 14,9 C 4,8 km/h (1 Bft) 100,00 %
09.06.2016 21:12 14,9 C 95 % 1013,3 hPa 0,0 l/m 2,5 km/h (1 Bft) W-SW 238 0 min 0,000 mm 0,0 UV-I 0 W/m 14,1 C 14,9 C 3,2 km/h (1 Bft) 92,86 %
09.06.2016 21:13 14,9 C 95 % 1013,3 hPa 0,0 l/m 1,3 km/h (1 Bft) W-SW 238 0 min 0,000 mm 0,0 UV-I 0 W/m 14,1 C 14,9 C 3,2 km/h (1 Bft) 100,00 %
09.06.2016 21:14 14,9 C 95 % 1013,3 hPa 0,0 l/m 2,5 km/h (1 Bft) W-SW 245 0 min 0,000 mm 0,0 UV-I 0 W/m 14,1 C 14,9 C 4,8 km/h (1 Bft) 95,65 %
09.06.2016 21:15 14,9 C 95 % 1013,3 hPa 0,0 l/m 3,5 km/h (1 Bft) W-SW 245 0 min 0,000 mm 0,0 UV-I 0 W/m 14,1 C 14,9 C 4,8 km/h (1 Bft) 95,83 %
09.06.2016 21:16 14,9 C 95 % 1013,3 hPa 0,0 l/m 3,1 km/h (1 Bft) W-SW 242 0 min 0,000 mm 0,0 UV-I 0 W/m 14,1 C 14,9 C 4,8 km/h (1 Bft) 100,00 %
09.06.2016 21:17 14,9 C 95 % 1013,3 hPa 0,0 l/m 3,6 km/h (1 Bft) W-SW 241 0 min 0,000 mm 0,0 UV-I 0 W/m 14,1 C 14,9 C 4,8 km/h (1 Bft) 100,00 %
09.06.2016 21:18 14,8 C 95 % 1013,3 hPa 0,0 l/m 3,8 km/h (1 Bft) W-SW 246 0 min 0,000 mm 0,0 UV-I 0 W/m 14,0 C 14,8 C 6,4 km/h (2 Bft) 100,00 %
09.06.2016 21:20 14,8 C 96 % 1013,3 hPa 0,0 l/m 3,0 km/h (1 Bft) W-SW 240 0 min 0,000 mm 0,0 UV-I 0 W/m 14,2 C 14,8 C 3,2 km/h (1 Bft) 97,92 %
09.06.2016 21:21 14,8 C 96 % 1013,3 hPa 0,0 l/m 2,6 km/h (1 Bft) SW 225 0 min 0,000 mm 0,0 UV-I 0 W/m 14,2 C 14,8 C 4,8 km/h (1 Bft) 100,00 %
09.06.2016 21:22 14,8 C 96 % 1013,3 hPa 0,0 l/m 3,0 km/h (1 Bft) W-SW 253 0 min 0,000 mm 0,0 UV-I 0 W/m 14,2 C 14,8 C 4,8 km/h (1 Bft) 100,00 %
09.06.2016 21:23 14,8 C 96 % 1013,4 hPa 0,0 l/m 2,2 km/h (1 Bft) W-SW 253 0 min 0,000 mm 0,0 UV-I 0 W/m 14,2 C 14,8 C 3,2 km/h (1 Bft) 100,00 %
09.06.2016 21:24 14,8 C 96 % 1013,3 hPa 0,0 l/m 2,0 km/h (1 Bft) W-SW 253 0 min 0,000 mm 0,0 UV-I 0 W/m 14,2 C 14,8 C 3,2 km/h (1 Bft) 91,30 %
09.06.2016 21:25 14,8 C 96 % 1013,4 hPa 0,0 l/m 3,5 km/h (1 Bft) W 273 0 min 0,000 mm 0,0 UV-I 0 W/m 14,2 C 14,8 C 4,8 km/h (1 Bft) 100,00 %
09.06.2016 21:26 14,8 C 96 % 1013,4 hPa 0,0 l/m 2,2 km/h (1 Bft) W 273 0 min 0,000 mm 0,0 UV-I 0 W/m 14,2 C 14,8 C 3,2 km/h (1 Bft) 100,00 %
09.06.2016 21:27 14,8 C 96 % 1013,4 hPa 0,0 l/m 2,6 km/h (1 Bft) W 275 0 min 0,000 mm 0,0 UV-I 0 W/m 14,2 C 14,8 C 4,8 km/h (1 Bft) 100,00 %
09.06.2016 21:28 14,8 C 95 % 1013,4 hPa 0,0 l/m 2,5 km/h (1 Bft) W 275 0 min 0,000 mm 0,0 UV-I 0 W/m 14,0 C 14,8 C 3,2 km/h (1 Bft) 95,65 %
09.06.2016 21:29 14,8 C 96 % 1013,4 hPa 0,0 l/m 0,8 km/h (0 Bft) W 275 0 min 0,000 mm 0,0 UV-I 0 W/m 14,2 C 14,8 C 1,6 km/h (1 Bft) 100,00 %
09.06.2016 21:30 14,7 C 96 % 1013,4 hPa 0,0 l/m 0,1 km/h (0 Bft) W 275 0 min 0,000 mm 0,0 UV-I 0 W/m 14,1 C 14,7 C 1,6 km/h (1 Bft) 95,65 %
09.06.2016 21:31 14,7 C 96 % 1013,4 hPa 0,0 l/m 1,3 km/h (1 Bft) W 275 0 min 0,000 mm 0,0 UV-I 0 W/m 14,1 C 14,7 C 1,6 km/h (1 Bft) 100,00 %
09.06.2016 21:32 14,7 C 96 % 1013,4 hPa 0,0 l/m 0,4 km/h (0 Bft) W 275 0 min 0,000 mm 0,0 UV-I 0 W/m 14,1 C 14,7 C 1,6 km/h (1 Bft) 95,65 %
09.06.2016 21:33 14,7 C 96 % 1013,4 hPa 0,2 l/m 2,2 km/h (1 Bft) W-SW 253 0 min 0,000 mm 0,0 UV-I 0 W/m 14,1 C 14,7 C 4,8 km/h (1 Bft) 100,00 %
09.06.2016 21:34 14,7 C 96 % 1013,4 hPa 0,0 l/m 2,3 km/h (1 Bft) W-SW 253 0 min 0,000 mm 0,0 UV-I 0 W/m 14,1 C 14,7 C 4,8 km/h (1 Bft) 100,00 %
09.06.2016 21:35 14,7 C 96 % 1013,4 hPa 0,0 l/m 2,1 km/h (1 Bft) W-SW 253 0 min 0,000 mm 0,0 UV-I 0 W/m 14,1 C 14,7 C 3,2 km/h (1 Bft) 95,83 %
09.06.2016 21:36 14,7 C 95 % 1013,4 hPa 0,0 l/m 2,9 km/h (1 Bft) W-SW 244 0 min 0,000 mm 0,0 UV-I 0 W/m 13,9 C 14,7 C 6,4 km/h (2 Bft) 95,83 %
09.06.2016 21:37 14,7 C 95 % 1013,4 hPa 0,0 l/m 4,6 km/h (1 Bft) W 260 0 min 0,000 mm 0,0 UV-I 0 W/m 13,9 C 14,7 C 6,4 km/h (2 Bft) 95,65 %
09.06.2016 21:38 14,7 C 95 % 1013,4 hPa 0,0 l/m 2,1 km/h (1 Bft) W 260 0 min 0,000 mm 0,0 UV-I 0 W/m 13,9 C 14,7 C 4,8 km/h (1 Bft) 100,00 %
09.06.2016 21:39 14,6 C 95 % 1013,4 hPa 0,0 l/m 3,1 km/h (1 Bft) W 275 0 min 0,000 mm 0,0 UV-I 0 W/m 13,8 C 14,6 C 4,8 km/h (1 Bft) 95,65 %
09.06.2016 21:40 14,6 C 95 % 1013,4 hPa 0,0 l/m 1,4 km/h (1 Bft) W 275 0 min 0,000 mm 0,0 UV-I 0 W/m 13,8 C 14,6 C 4,8 km/h (1 Bft) 100,00 %
09.06.2016 21:41 14,6 C 95 % 1013,4 hPa 0,0 l/m 3,0 km/h (1 Bft) W 277 0 min 0,000 mm 0,0 UV-I 0 W/m 13,8 C 14,6 C 4,8 km/h (1 Bft) 92,86 %
09.06.2016 21:42 14,6 C 95 % 1013,4 hPa 0,0 l/m 2,0 km/h (1 Bft) W 279 0 min 0,000 mm 0,0 UV-I 0 W/m 13,8 C 14,6 C 4,8 km/h (1 Bft) 100,00 %
09.06.2016 21:43 14,6 C 95 % 1013,4 hPa 0,0 l/m 3,8 km/h (1 Bft) W-SW 254 0 min 0,000 mm 0,0 UV-I 0 W/m 13,8 C 14,6 C 4,8 km/h (1 Bft) 91,30 %
09.06.2016 21:44 14,5 C 95 % 1013,4 hPa 0,0 l/m 3,0 km/h (1 Bft) W-NW 284 0 min 0,000 mm 0,0 UV-I 0 W/m 13,7 C 14,5 C 4,8 km/h (1 Bft) 95,83 %
09.06.2016 21:45 14,5 C 95 % 1013,4 hPa 0,0 l/m 2,6 km/h (1 Bft) W 268 0 min 0,000 mm 0,0 UV-I 0 W/m 13,7 C 14,5 C 4,8 km/h (1 Bft) 95,65 %
09.06.2016 21:49 14,5 C 94 % 1013,4 hPa 0,0 l/m 2,6 km/h (1 Bft) W 261 0 min 0,000 mm 0,0 UV-I 0 W/m 13,5 C 14,5 C 3,2 km/h (1 Bft) 96,91 %
09.06.2016 21:50 14,5 C 94 % 1013,5 hPa 0,0 l/m 2,7 km/h (1 Bft) W 261 0 min 0,000 mm 0,0 UV-I 0 W/m 13,5 C 14,5 C 3,2 km/h (1 Bft) 95,83 %
09.06.2016 21:51 14,5 C 94 % 1013,5 hPa 0,0 l/m 2,5 km/h (1 Bft) W 261 0 min 0,000 mm 0,0 UV-I 0 W/m 13,5 C 14,5 C 3,2 km/h (1 Bft) 100,00 %
09.06.2016 21:52 14,5 C 94 % 1013,5 hPa 0,0 l/m 3,3 km/h (1 Bft) W 261 0 min 0,000 mm 0,0 UV-I 0 W/m 13,5 C 14,5 C 4,8 km/h (1 Bft) 96,15 %
09.06.2016 21:53 14,5 C 94 % 1013,5 hPa 0,0 l/m 2,7 km/h (1 Bft) W 261 0 min 0,000 mm 0,0 UV-I 0 W/m 13,5 C 14,5 C 3,2 km/h (1 Bft) 95,83 %
09.06.2016 21:54 14,5 C 94 % 1013,4 hPa 0,0 l/m 2,5 km/h (1 Bft) W 261 0 min 0,000 mm 0,0 UV-I 0 W/m 13,5 C 14,5 C 4,8 km/h (1 Bft) 100,00 %
09.06.2016 21:55 14,5 C 95 % 1013,4 hPa 0,0 l/m 2,7 km/h (1 Bft) W 261 0 min 0,000 mm 0,0 UV-I 0 W/m 13,7 C 14,5 C 4,8 km/h (1 Bft) 91,30 %
09.06.2016 21:56 14,5 C 94 % 1013,4 hPa 0,0 l/m 3,2 km/h (1 Bft) W 261 0 min 0,000 mm 0,0 UV-I 0 W/m 13,5 C 14,5 C 4,8 km/h (1 Bft) 100,00 %
09.06.2016 21:57 14,5 C 94 % 1013,4 hPa 0,0 l/m 3,6 km/h (1 Bft) W 261 0 min 0,000 mm 0,0 UV-I 0 W/m 13,5 C 14,5 C 4,8 km/h (1 Bft) 95,65 %
09.06.2016 21:58 14,5 C 94 % 1013,4 hPa 0,0 l/m 3,5 km/h (1 Bft) W 260 0 min 0,000 mm 0,0 UV-I 0 W/m 13,5 C 14,5 C 4,8 km/h (1 Bft) 96,30 %
09.06.2016 21:59 14,5 C 94 % 1013,4 hPa 0,0 l/m 3,4 km/h (1 Bft) W 260 0 min 0,000 mm 0,0 UV-I 0 W/m 13,5 C 14,5 C 4,8 km/h (1 Bft) 95,65 %
09.06.2016 22:00 14,5 C 95 % 1013,3 hPa 0,0 l/m 2,4 km/h (1 Bft) W 260 0 min 0,000 mm 0,0 UV-I 0 W/m 13,7 C 14,5 C 3,2 km/h (1 Bft) 100,00 %
09.06.2016 22:01 14,5 C 94 % 1013,3 hPa 0,0 l/m 3,4 km/h (1 Bft) W 260 0 min 0,000 mm 0,0 UV-I 0 W/m 13,5 C 14,5 C 6,4 km/h (2 Bft) 95,65 %
09.06.2016 22:02 14,5 C 94 % 1013,3 hPa 0,0 l/m 2,9 km/h (1 Bft) W 260 0 min 0,000 mm 0,0 UV-I 0 W/m 13,5 C 14,5 C 3,2 km/h (1 Bft) 95,83 %
09.06.2016 22:03 14,5 C 95 % 1013,3 hPa 0,0 l/m 3,6 km/h (1 Bft) W-SW 240 0 min 0,000 mm 0,0 UV-I 0 W/m 13,7 C 14,5 C 4,8 km/h (1 Bft) 100,00 %
09.06.2016 22:04 14,5 C 95 % 1013,3 hPa 0,0 l/m 2,7 km/h (1 Bft) W-SW 240 0 min 0,000 mm 0,0 UV-I 0 W/m 13,7 C 14,5 C 4,8 km/h (1 Bft) 91,67 %
09.06.2016 22:05 14,5 C 95 % 1013,3 hPa 0,0 l/m 2,1 km/h (1 Bft) W-SW 240 0 min 0,000 mm 0,0 UV-I 0 W/m 13,7 C 14,5 C 3,2 km/h (1 Bft) 100,00 %
09.06.2016 22:06 14,5 C 95 % 1013,3 hPa 0,0 l/m 1,7 km/h (1 Bft) W-SW 240 0 min 0,000 mm 0,0 UV-I 0 W/m 13,7 C 14,5 C 3,2 km/h (1 Bft) 95,83 %
09.06.2016 22:07 14,5 C 95 % 1013,3 hPa 0,0 l/m 1,1 km/h (1 Bft) W-SW 240 0 min 0,000 mm 0,0 UV-I 0 W/m 13,7 C 14,5 C 1,6 km/h (1 Bft) 100,00 %
09.06.2016 22:08 14,5 C 95 % 1013,4 hPa 0,0 l/m 1,0 km/h (0 Bft) W-SW 240 0 min 0,000 mm 0,0 UV-I 0 W/m 13,7 C 14,5 C 3,2 km/h (1 Bft) 87,50 %
09.06.2016 22:09 14,5 C 95 % 1013,4 hPa 0,0 l/m 2,2 km/h (1 Bft) W-SW 240 0 min 0,000 mm 0,0 UV-I 0 W/m 13,7 C 14,5 C 3,2 km/h (1 Bft) 100,00 %
09.06.2016 22:10 14,5 C 95 % 1013,4 hPa 0,0 l/m 1,4 km/h (1 Bft) W-SW 240 0 min 0,000 mm 0,0 UV-I 0 W/m 13,7 C 14,5 C 1,6 km/h (1 Bft) 100,00 %
09.06.2016 22:11 14,6 C 95 % 1013,4 hPa 0,0 l/m 2,2 km/h (1 Bft) W-SW 240 0 min 0,000 mm 0,0 UV-I 0 W/m 13,8 C 14,6 C 3,2 km/h (1 Bft) 100,00 %
09.06.2016 22:12 14,6 C 95 % 1013,4 hPa 0,0 l/m 2,5 km/h (1 Bft) W-SW 240 0 min 0,000 mm 0,0 UV-I 0 W/m 13,8 C 14,6 C 3,2 km/h (1 Bft) 100,00 %
09.06.2016 22:13 14,6 C 95 % 1013,4 hPa 0,0 l/m 1,6 km/h (1 Bft) W-SW 240 0 min 0,000 mm 0,0 UV-I 0 W/m 13,8 C 14,6 C 3,2 km/h (1 Bft) 100,00 %
09.06.2016 22:14 14,6 C 95 % 1013,4 hPa 0,0 l/m 1,9 km/h (1 Bft) W-SW 240 0 min 0,000 mm 0,0 UV-I 0 W/m 13,8 C 14,6 C 3,2 km/h (1 Bft) 100,00 %
09.06.2016 22:15 14,6 C 95 % 1013,4 hPa 0,0 l/m 3,0 km/h (1 Bft) W-SW 240 0 min 0,000 mm 0,0 UV-I 0 W/m 13,8 C 14,6 C 3,2 km/h (1 Bft) 95,83 %
09.06.2016 22:16 14,6 C 95 % 1013,4 hPa 0,0 l/m 2,8 km/h (1 Bft) W-SW 240 0 min 0,000 mm 0,0 UV-I 0 W/m 13,8 C 14,6 C 4,8 km/h (1 Bft) 100,00 %
09.06.2016 22:17 14,6 C 95 % 1013,4 hPa 0,0 l/m 3,2 km/h (1 Bft) W-SW 240 0 min 0,000 mm 0,0 UV-I 0 W/m 13,8 C 14,6 C 4,8 km/h (1 Bft) 100,00 %
09.06.2016 22:18 14,6 C 95 % 1013,3 hPa 0,0 l/m 2,5 km/h (1 Bft) W-SW 240 0 min 0,000 mm 0,0 UV-I 0 W/m 13,8 C 14,6 C 3,2 km/h (1 Bft) 95,65 %
09.06.2016 22:19 14,6 C 95 % 1013,4 hPa 0,0 l/m 2,5 km/h (1 Bft) W-SW 240 0 min 0,000 mm 0,0 UV-I 0 W/m 13,8 C 14,6 C 3,2 km/h (1 Bft) 100,00 %
09.06.2016 22:20 14,6 C 95 % 1013,4 hPa 0,0 l/m 2,4 km/h (1 Bft) W-SW 240 0 min 0,000 mm 0,0 UV-I 0 W/m 13,8 C 14,6 C 3,2 km/h (1 Bft) 100,00 %
09.06.2016 22:21 14,6 C 95 % 1013,4 hPa 0,0 l/m 1,9 km/h (1 Bft) W-SW 240 0 min 0,000 mm 0,0 UV-I 0 W/m 13,8 C 14,6 C 3,2 km/h (1 Bft) 95,83 %
09.06.2016 22:22 14,6 C 95 % 1013,3 hPa 0,0 l/m 2,4 km/h (1 Bft) W-SW 240 0 min 0,000 mm 0,0 UV-I 0 W/m 13,8 C 14,6 C 3,2 km/h (1 Bft) 100,00 %
09.06.2016 22:23 14,6 C 95 % 1013,4 hPa 0,0 l/m 0,9 km/h (0 Bft) W-SW 240 0 min 0,000 mm 0,0 UV-I 0 W/m 13,8 C 14,6 C 3,2 km/h (1 Bft) 100,00 %
09.06.2016 22:24 14,6 C 95 % 1013,3 hPa 0,0 l/m 2,2 km/h (1 Bft) W-SW 240 0 min 0,000 mm 0,0 UV-I 0 W/m 13,8 C 14,6 C 3,2 km/h (1 Bft) 95,65 %
09.06.2016 22:25 14,6 C 95 % 1013,3 hPa 0,0 l/m 2,5 km/h (1 Bft) W-SW 240 0 min 0,000 mm 0,0 UV-I 0 W/m 13,8 C 14,6 C 3,2 km/h (1 Bft) 100,00 %
09.06.2016 22:26 14,6 C 95 % 1013,4 hPa 0,0 l/m 1,7 km/h (1 Bft) W-SW 240 0 min 0,000 mm 0,0 UV-I 0 W/m 13,8 C 14,6 C 3,2 km/h (1 Bft) 100,00 %
09.06.2016 22:27 14,6 C 95 % 1013,4 hPa 0,0 l/m 1,3 km/h (1 Bft) W-SW 240 0 min 0,000 mm 0,0 UV-I 0 W/m 13,8 C 14,6 C 1,6 km/h (1 Bft) 95,83 %
09.06.2016 22:28 14,6 C 95 % 1013,4 hPa 0,0 l/m 1,4 km/h (1 Bft) W-SW 240 0 min 0,000 mm 0,0 UV-I 0 W/m 13,8 C 14,6 C 1,6 km/h (1 Bft) 100,00 %
09.06.2016 22:29 14,6 C 95 % 1013,3 hPa 0,0 l/m 1,5 km/h (1 Bft) W-SW 240 0 min 0,000 mm 0,0 UV-I 0 W/m 13,8 C 14,6 C 3,2 km/h (1 Bft) 100,00 %
09.06.2016 22:30 14,6 C 95 % 1013,4 hPa 0,0 l/m 2,4 km/h (1 Bft) W-SW 240 0 min 0,000 mm 0,0 UV-I 0 W/m 13,8 C 14,6 C 3,2 km/h (1 Bft) 100,00 %
09.06.2016 22:31 14,6 C 95 % 1013,4 hPa 0,0 l/m 2,3 km/h (1 Bft) W-SW 240 0 min 0,000 mm 0,0 UV-I 0 W/m 13,8 C 14,6 C 3,2 km/h (1 Bft) 100,00 %
09.06.2016 22:32 14,6 C 95 % 1013,3 hPa 0,0 l/m 2,1 km/h (1 Bft) W-SW 240 0 min 0,000 mm 0,0 UV-I 0 W/m 13,8 C 14,6 C 3,2 km/h (1 Bft) 100,00 %
09.06.2016 22:33 14,6 C 95 % 1013,3 hPa 0,0 l/m 3,1 km/h (1 Bft) W-SW 239 0 min 0,000 mm 0,0 UV-I 0 W/m 13,8 C 14,6 C 3,2 km/h (1 Bft) 100,00 %
09.06.2016 22:34 14,6 C 95 % 1013,3 hPa 0,0 l/m 4,0 km/h (1 Bft) SW 226 0 min 0,000 mm 0,0 UV-I 0 W/m 13,8 C 14,6 C 4,8 km/h (1 Bft) 95,83 %
09.06.2016 22:35 14,6 C 95 % 1013,4 hPa 0,0 l/m 3,0 km/h (1 Bft) SW 226 0 min 0,000 mm 0,0 UV-I 0 W/m 13,8 C 14,6 C 4,8 km/h (1 Bft) 100,00 %
09.06.2016 22:36 14,6 C 95 % 1013,3 hPa 0,0 l/m 2,9 km/h (1 Bft) SW 226 0 min 0,000 mm 0,0 UV-I 0 W/m 13,8 C 14,6 C 3,2 km/h (1 Bft) 100,00 %
09.06.2016 22:37 14,6 C 95 % 1013,3 hPa 0,0 l/m 2,7 km/h (1 Bft) SW 226 0 min 0,000 mm 0,0 UV-I 0 W/m 13,8 C 14,6 C 4,8 km/h (1 Bft) 95,65 %
09.06.2016 22:38 14,6 C 95 % 1013,3 hPa 0,0 l/m 3,2 km/h (1 Bft) SW 226 0 min 0,000 mm 0,0 UV-I 0 W/m 13,8 C 14,6 C 4,8 km/h (1 Bft) 100,00 %
09.06.2016 22:39 14,6 C 95 % 1013,4 hPa 0,0 l/m 2,7 km/h (1 Bft) SW 226 0 min 0,000 mm 0,0 UV-I 0 W/m 13,8 C 14,6 C 4,8 km/h (1 Bft) 100,00 %
09.06.2016 22:40 14,6 C 95 % 1013,4 hPa 0,0 l/m 1,9 km/h (1 Bft) SW 226 0 min 0,000 mm 0,0 UV-I 0 W/m 13,8 C 14,6 C 3,2 km/h (1 Bft) 100,00 %
09.06.2016 22:41 14,6 C 95 % 1013,4 hPa 0,0 l/m 2,1 km/h (1 Bft) SW 226 0 min 0,000 mm 0,0 UV-I 0 W/m 13,8 C 14,6 C 3,2 km/h (1 Bft) 100,00 %
09.06.2016 22:42 14,6 C 95 % 1013,4 hPa 0,0 l/m 1,6 km/h (1 Bft) SW 226 0 min 0,000 mm 0,0 UV-I 0 W/m 13,8 C 14,6 C 3,2 km/h (1 Bft) 100,00 %
09.06.2016 22:43 14,6 C 95 % 1013,4 hPa 0,0 l/m 2,6 km/h (1 Bft) SW 226 0 min 0,000 mm 0,0 UV-I 0 W/m 13,8 C 14,6 C 3,2 km/h (1 Bft) 100,00 %
09.06.2016 22:44 14,6 C 95 % 1013,4 hPa 0,0 l/m 2,2 km/h (1 Bft) SW 226 0 min 0,000 mm 0,0 UV-I 0 W/m 13,8 C 14,6 C 3,2 km/h (1 Bft) 100,00 %
09.06.2016 22:45 14,6 C 95 % 1013,4 hPa 0,0 l/m 2,3 km/h (1 Bft) SW 226 0 min 0,000 mm 0,0 UV-I 0 W/m 13,8 C 14,6 C 3,2 km/h (1 Bft) 95,65 %
09.06.2016 22:46 14,6 C 95 % 1013,4 hPa 0,0 l/m 2,4 km/h (1 Bft) SW 226 0 min 0,000 mm 0,0 UV-I 0 W/m 13,8 C 14,6 C 3,2 km/h (1 Bft) 100,00 %
09.06.2016 22:47 14,6 C 95 % 1013,4 hPa 0,0 l/m 2,5 km/h (1 Bft) SW 226 0 min 0,000 mm 0,0 UV-I 0 W/m 13,8 C 14,6 C 3,2 km/h (1 Bft) 100,00 %
09.06.2016 22:48 14,6 C 95 % 1013,4 hPa 0,0 l/m 2,7 km/h (1 Bft) SW 226 0 min 0,000 mm 0,0 UV-I 0 W/m 13,8 C 14,6 C 3,2 km/h (1 Bft) 100,00 %
09.06.2016 22:49 14,6 C 96 % 1013,4 hPa 0,0 l/m 2,8 km/h (1 Bft) SW 226 0 min 0,000 mm 0,0 UV-I 0 W/m 14,0 C 14,6 C 3,2 km/h (1 Bft) 100,00 %
09.06.2016 22:50 14,6 C 96 % 1013,4 hPa 0,0 l/m 1,8 km/h (1 Bft) SW 226 0 min 0,000 mm 0,0 UV-I 0 W/m 14,0 C 14,6 C 3,2 km/h (1 Bft) 100,00 %
09.06.2016 22:51 14,6 C 96 % 1013,4 hPa 0,0 l/m 1,3 km/h (1 Bft) SW 226 0 min 0,000 mm 0,0 UV-I 0 W/m 14,0 C 14,6 C 3,2 km/h (1 Bft) 95,83 %
09.06.2016 22:52 14,6 C 96 % 1013,4 hPa 0,0 l/m 0,5 km/h (0 Bft) SW 226 0 min 0,000 mm 0,0 UV-I 0 W/m 14,0 C 14,6 C 1,6 km/h (1 Bft) 95,65 %
09.06.2016 22:53 14,6 C 96 % 1013,4 hPa 0,0 l/m 0,7 km/h (0 Bft) SW 226 0 min 0,000 mm 0,0 UV-I 0 W/m 14,0 C 14,6 C 1,6 km/h (1 Bft) 100,00 %
09.06.2016 22:54 14,6 C 95 % 1013,4 hPa 0,0 l/m 0,0 km/h (0 Bft) SW 226 0 min 0,000 mm 0,0 UV-I 0 W/m 13,8 C 14,6 C 0,0 km/h (0 Bft) 100,00 %
09.06.2016 22:55 14,6 C 95 % 1013,4 hPa 0,0 l/m 0,0 km/h (0 Bft) SW 226 0 min 0,000 mm 0,0 UV-I 0 W/m 13,8 C 14,6 C 0,0 km/h (0 Bft) 100,00 %
09.06.2016 22:56 14,6 C 95 % 1013,4 hPa 0,0 l/m 1,1 km/h (1 Bft) SW 226 0 min 0,000 mm 0,0 UV-I 0 W/m 13,8 C 14,6 C 1,6 km/h (1 Bft) 100,00 %
09.06.2016 22:57 14,6 C 95 % 1013,4 hPa 0,0 l/m 1,3 km/h (1 Bft) SW 226 0 min 0,000 mm 0,0 UV-I 0 W/m 13,8 C 14,6 C 1,6 km/h (1 Bft) 100,00 %
09.06.2016 22:58 14,6 C 95 % 1013,4 hPa 0,0 l/m 1,8 km/h (1 Bft) SW 226 0 min 0,000 mm 0,0 UV-I 0 W/m 13,8 C 14,6 C 3,2 km/h (1 Bft) 95,65 %
09.06.2016 22:59 14,6 C 95 % 1013,4 hPa 0,0 l/m 1,7 km/h (1 Bft) SW 226 0 min 0,000 mm 0,0 UV-I 0 W/m 13,8 C 14,6 C 3,2 km/h (1 Bft) 100,00 %
09.06.2016 23:00 14,6 C 96 % 1013,4 hPa 0,0 l/m 1,6 km/h (1 Bft) SW 226 0 min 0,000 mm 0,0 UV-I 0 W/m 14,0 C 14,6 C 3,2 km/h (1 Bft) 95,65 %
09.06.2016 23:01 14,6 C 96 % 1013,5 hPa 0,0 l/m 1,8 km/h (1 Bft) SW 226 0 min 0,000 mm 0,0 UV-I 0 W/m 14,0 C 14,6 C 3,2 km/h (1 Bft) 100,00 %
09.06.2016 23:02 14,6 C 95 % 1013,5 hPa 0,0 l/m 1,8 km/h (1 Bft) SW 226 0 min 0,000 mm 0,0 UV-I 0 W/m 13,8 C 14,6 C 3,2 km/h (1 Bft) 95,65 %
09.06.2016 23:03 14,6 C 96 % 1013,5 hPa 0,0 l/m 0,8 km/h (0 Bft) SW 226 0 min 0,000 mm 0,0 UV-I 0 W/m 14,0 C 14,6 C 1,6 km/h (1 Bft) 100,00 %
09.06.2016 23:04 14,6 C 96 % 1013,5 hPa 0,0 l/m 1,7 km/h (1 Bft) SW 226 0 min 0,000 mm 0,0 UV-I 0 W/m 14,0 C 14,6 C 3,2 km/h (1 Bft) 95,65 %
09.06.2016 23:05 14,6 C 96 % 1013,5 hPa 0,0 l/m 1,5 km/h (1 Bft) SW 226 0 min 0,000 mm 0,0 UV-I 0 W/m 14,0 C 14,6 C 3,2 km/h (1 Bft) 100,00 %
09.06.2016 23:06 14,6 C 96 % 1013,5 hPa 0,0 l/m 2,0 km/h (1 Bft) SW 226 0 min 0,000 mm 0,0 UV-I 0 W/m 14,0 C 14,6 C 3,2 km/h (1 Bft) 95,65 %
09.06.2016 23:07 14,6 C 96 % 1013,4 hPa 0,0 l/m 2,2 km/h (1 Bft) SW 226 0 min 0,000 mm 0,0 UV-I 0 W/m 14,0 C 14,6 C 3,2 km/h (1 Bft) 100,00 %
09.06.2016 23:08 14,6 C 96 % 1013,5 hPa 0,0 l/m 2,2 km/h (1 Bft) SW 226 0 min 0,000 mm 0,0 UV-I 0 W/m 14,0 C 14,6 C 3,2 km/h (1 Bft) 100,00 %
09.06.2016 23:09 14,6 C 96 % 1013,5 hPa 0,0 l/m 2,5 km/h (1 Bft) SW 226 0 min 0,000 mm 0,0 UV-I 0 W/m 14,0 C 14,6 C 3,2 km/h (1 Bft) 100,00 %
09.06.2016 23:10 14,6 C 96 % 1013,5 hPa 0,0 l/m 2,1 km/h (1 Bft) SW 226 0 min 0,000 mm 0,0 UV-I 0 W/m 14,0 C 14,6 C 3,2 km/h (1 Bft) 95,65 %
09.06.2016 23:11 14,6 C 96 % 1013,5 hPa 0,0 l/m 1,8 km/h (1 Bft) SW 226 0 min 0,000 mm 0,0 UV-I 0 W/m 14,0 C 14,6 C 3,2 km/h (1 Bft) 100,00 %
09.06.2016 23:12 14,6 C 96 % 1013,5 hPa 0,0 l/m 1,7 km/h (1 Bft) SW 226 0 min 0,000 mm 0,0 UV-I 0 W/m 14,0 C 14,6 C 3,2 km/h (1 Bft) 100,00 %
09.06.2016 23:13 14,6 C 96 % 1013,5 hPa 0,0 l/m 1,5 km/h (1 Bft) SW 226 0 min 0,000 mm 0,0 UV-I 0 W/m 14,0 C 14,6 C 3,2 km/h (1 Bft) 100,00 %
09.06.2016 23:14 14,6 C 96 % 1013,5 hPa 0,0 l/m 1,3 km/h (1 Bft) SW 226 0 min 0,000 mm 0,0 UV-I 0 W/m 14,0 C 14,6 C 3,2 km/h (1 Bft) 100,00 %
09.06.2016 23:15 14,6 C 96 % 1013,5 hPa 0,0 l/m 1,8 km/h (1 Bft) SW 226 0 min 0,000 mm 0,0 UV-I 0 W/m 14,0 C 14,6 C 3,2 km/h (1 Bft) 95,65 %
09.06.2016 23:16 14,6 C 96 % 1013,5 hPa 0,0 l/m 1,6 km/h (1 Bft) SW 226 0 min 0,000 mm 0,0 UV-I 0 W/m 14,0 C 14,6 C 3,2 km/h (1 Bft) 100,00 %
09.06.2016 23:17 14,6 C 96 % 1013,5 hPa 0,0 l/m 2,0 km/h (1 Bft) SW 226 0 min 0,000 mm 0,0 UV-I 0 W/m 14,0 C 14,6 C 3,2 km/h (1 Bft) 100,00 %
09.06.2016 23:18 14,6 C 96 % 1013,5 hPa 0,0 l/m 1,7 km/h (1 Bft) SW 226 0 min 0,000 mm 0,0 UV-I 0 W/m 14,0 C 14,6 C 3,2 km/h (1 Bft) 100,00 %
09.06.2016 23:19 14,6 C 96 % 1013,5 hPa 0,0 l/m 2,3 km/h (1 Bft) SW 226 0 min 0,000 mm 0,0 UV-I 0 W/m 14,0 C 14,6 C 3,2 km/h (1 Bft) 100,00 %
09.06.2016 23:20 14,6 C 96 % 1013,5 hPa 0,0 l/m 2,6 km/h (1 Bft) SW 226 0 min 0,000 mm 0,0 UV-I 0 W/m 14,0 C 14,6 C 3,2 km/h (1 Bft) 100,00 %
09.06.2016 23:21 14,6 C 96 % 1013,5 hPa 0,0 l/m 3,0 km/h (1 Bft) SW 226 0 min 0,000 mm 0,0 UV-I 0 W/m 14,0 C 14,6 C 4,8 km/h (1 Bft) 95,65 %
09.06.2016 23:22 14,6 C 96 % 1013,5 hPa 0,0 l/m 2,2 km/h (1 Bft) SW 226 0 min 0,000 mm 0,0 UV-I 0 W/m 14,0 C 14,6 C 4,8 km/h (1 Bft) 100,00 %
09.06.2016 23:23 14,6 C 96 % 1013,5 hPa 0,0 l/m 2,6 km/h (1 Bft) SW 226 0 min 0,000 mm 0,0 UV-I 0 W/m 14,0 C 14,6 C 3,2 km/h (1 Bft) 100,00 %
09.06.2016 23:24 14,6 C 96 % 1013,5 hPa 0,0 l/m 3,0 km/h (1 Bft) SW 226 0 min 0,000 mm 0,0 UV-I 0 W/m 14,0 C 14,6 C 4,8 km/h (1 Bft) 100,00 %
09.06.2016 23:25 14,6 C 96 % 1013,5 hPa 0,0 l/m 1,7 km/h (1 Bft) SW 226 0 min 0,000 mm 0,0 UV-I 0 W/m 14,0 C 14,6 C 3,2 km/h (1 Bft) 100,00 %
09.06.2016 23:26 14,6 C 96 % 1013,5 hPa 0,0 l/m 1,8 km/h (1 Bft) SW 226 0 min 0,000 mm 0,0 UV-I 0 W/m 14,0 C 14,6 C 3,2 km/h (1 Bft) 100,00 %
09.06.2016 23:27 14,6 C 96 % 1013,5 hPa 0,0 l/m 2,1 km/h (1 Bft) SW 226 0 min 0,000 mm 0,0 UV-I 0 W/m 14,0 C 14,6 C 3,2 km/h (1 Bft) 100,00 %
09.06.2016 23:28 14,7 C 96 % 1013,5 hPa 0,0 l/m 1,3 km/h (1 Bft) SW 226 0 min 0,000 mm 0,0 UV-I 0 W/m 14,1 C 14,7 C 3,2 km/h (1 Bft) 95,65 %
09.06.2016 23:29 14,6 C 96 % 1013,6 hPa 0,0 l/m 0,9 km/h (0 Bft) SW 226 0 min 0,000 mm 0,0 UV-I 0 W/m 14,0 C 14,6 C 1,6 km/h (1 Bft) 100,00 %
09.06.2016 23:30 14,6 C 96 % 1013,5 hPa 0,0 l/m 1,0 km/h (0 Bft) SW 226 0 min 0,000 mm 0,0 UV-I 0 W/m 14,0 C 14,6 C 3,2 km/h (1 Bft) 100,00 %
09.06.2016 23:31 14,6 C 96 % 1013,5 hPa 0,0 l/m 0,9 km/h (0 Bft) SW 226 0 min 0,000 mm 0,0 UV-I 0 W/m 14,0 C 14,6 C 1,6 km/h (1 Bft) 100,00 %
09.06.2016 23:32 14,7 C 96 % 1013,6 hPa 0,0 l/m 2,0 km/h (1 Bft) SW 226 0 min 0,000 mm 0,0 UV-I 0 W/m 14,1 C 14,7 C 3,2 km/h (1 Bft) 100,00 %
09.06.2016 23:33 14,7 C 96 % 1013,5 hPa 0,0 l/m 1,6 km/h (1 Bft) SW 226 0 min 0,000 mm 0,0 UV-I 0 W/m 14,1 C 14,7 C 3,2 km/h (1 Bft) 100,00 %
09.06.2016 23:34 14,6 C 96 % 1013,5 hPa 0,0 l/m 2,3 km/h (1 Bft) SW 226 0 min 0,000 mm 0,0 UV-I 0 W/m 14,0 C 14,6 C 3,2 km/h (1 Bft) 96,15 %
09.06.2016 23:35 14,7 C 96 % 1013,5 hPa 0,0 l/m 2,4 km/h (1 Bft) SW 226 0 min 0,000 mm 0,0 UV-I 0 W/m 14,1 C 14,7 C 3,2 km/h (1 Bft) 100,00 %
09.06.2016 23:36 14,7 C 96 % 1013,5 hPa 0,0 l/m 1,9 km/h (1 Bft) SW 226 0 min 0,000 mm 0,0 UV-I 0 W/m 14,1 C 14,7 C 3,2 km/h (1 Bft) 95,65 %
09.06.2016 23:37 14,7 C 96 % 1013,5 hPa 0,0 l/m 2,7 km/h (1 Bft) SW 226 0 min 0,000 mm 0,0 UV-I 0 W/m 14,1 C 14,7 C 4,8 km/h (1 Bft) 95,83 %
09.06.2016 23:38 14,7 C 96 % 1013,5 hPa 0,0 l/m 2,5 km/h (1 Bft) SW 226 0 min 0,000 mm 0,0 UV-I 0 W/m 14,1 C 14,7 C 3,2 km/h (1 Bft) 100,00 %
09.06.2016 23:39 14,7 C 96 % 1013,5 hPa 0,0 l/m 2,3 km/h (1 Bft) SW 226 0 min 0,000 mm 0,0 UV-I 0 W/m 14,1 C 14,7 C 3,2 km/h (1 Bft) 95,83 %
09.06.2016 23:40 14,7 C 96 % 1013,5 hPa 0,0 l/m 3,2 km/h (1 Bft) S-SW 212 0 min 0,000 mm 0,0 UV-I 0 W/m 14,1 C 14,7 C 4,8 km/h (1 Bft) 95,65 %
09.06.2016 23:41 14,7 C 96 % 1013,5 hPa 0,0 l/m 2,7 km/h (1 Bft) S-SW 212 0 min 0,000 mm 0,0 UV-I 0 W/m 14,1 C 14,7 C 4,8 km/h (1 Bft) 95,83 %
09.06.2016 23:42 14,7 C 96 % 1013,5 hPa 0,0 l/m 2,7 km/h (1 Bft) S-SW 211 0 min 0,000 mm 0,0 UV-I 0 W/m 14,1 C 14,7 C 3,2 km/h (1 Bft) 95,65 %
09.06.2016 23:43 14,7 C 96 % 1013,5 hPa 0,0 l/m 2,3 km/h (1 Bft) S-SW 212 0 min 0,000 mm 0,0 UV-I 0 W/m 14,1 C 14,7 C 3,2 km/h (1 Bft) 95,83 %
09.06.2016 23:44 14,7 C 96 % 1013,5 hPa 0,0 l/m 2,5 km/h (1 Bft) S-SW 211 0 min 0,000 mm 0,0 UV-I 0 W/m 14,1 C 14,7 C 3,2 km/h (1 Bft) 100,00 %
09.06.2016 23:45 14,7 C 96 % 1013,5 hPa 0,0 l/m 2,5 km/h (1 Bft) S-SW 212 0 min 0,000 mm 0,0 UV-I 0 W/m 14,1 C 14,7 C 3,2 km/h (1 Bft) 95,83 %
09.06.2016 23:46 14,6 C 96 % 1013,5 hPa 0,0 l/m 2,6 km/h (1 Bft) S-SW 212 0 min 0,000 mm 0,0 UV-I 0 W/m 14,0 C 14,6 C 3,2 km/h (1 Bft) 91,30 %
09.06.2016 23:47 14,6 C 96 % 1013,5 hPa 0,0 l/m 3,4 km/h (1 Bft) S-SW 212 0 min 0,000 mm 0,0 UV-I 0 W/m 14,0 C 14,6 C 4,8 km/h (1 Bft) 100,00 %
09.06.2016 23:48 14,6 C 96 % 1013,5 hPa 0,0 l/m 2,4 km/h (1 Bft) S-SW 211 0 min 0,000 mm 0,0 UV-I 0 W/m 14,0 C 14,6 C 4,8 km/h (1 Bft) 91,30 %
09.06.2016 23:49 14,6 C 96 % 1013,5 hPa 0,0 l/m 4,0 km/h (1 Bft) S-SW 205 0 min 0,000 mm 0,0 UV-I 0 W/m 14,0 C 14,6 C 4,8 km/h (1 Bft) 95,83 %
09.06.2016 23:50 14,6 C 96 % 1013,5 hPa 0,0 l/m 2,5 km/h (1 Bft) S-SW 205 0 min 0,000 mm 0,0 UV-I 0 W/m 14,0 C 14,6 C 3,2 km/h (1 Bft) 95,65 %
09.06.2016 23:51 14,6 C 96 % 1013,5 hPa 0,0 l/m 2,3 km/h (1 Bft) S-SW 205 0 min 0,000 mm 0,0 UV-I 0 W/m 14,0 C 14,6 C 3,2 km/h (1 Bft) 100,00 %
09.06.2016 23:52 14,6 C 96 % 1013,5 hPa 0,0 l/m 4,0 km/h (1 Bft) S-SW 205 0 min 0,000 mm 0,0 UV-I 0 W/m 14,0 C 14,6 C 4,8 km/h (1 Bft) 96,30 %
09.06.2016 23:53 14,6 C 96 % 1013,5 hPa 0,0 l/m 3,6 km/h (1 Bft) S-SW 205 0 min 0,000 mm 0,0 UV-I 0 W/m 14,0 C 14,6 C 4,8 km/h (1 Bft) 96,15 %
09.06.2016 23:54 14,6 C 96 % 1013,5 hPa 0,0 l/m 3,9 km/h (1 Bft) S-SW 205 0 min 0,000 mm 0,0 UV-I 0 W/m 14,0 C 14,6 C 6,4 km/h (2 Bft) 100,00 %
09.06.2016 23:55 14,6 C 96 % 1013,5 hPa 0,0 l/m 3,0 km/h (1 Bft) S-SW 204 0 min 0,000 mm 0,0 UV-I 0 W/m 14,0 C 14,6 C 3,2 km/h (1 Bft) 100,00 %
09.06.2016 23:56 14,5 C 96 % 1013,5 hPa 0,0 l/m 2,9 km/h (1 Bft) S-SW 204 0 min 0,000 mm 0,0 UV-I 0 W/m 13,9 C 14,5 C 4,8 km/h (1 Bft) 95,83 %
09.06.2016 23:57 14,5 C 96 % 1013,5 hPa 0,0 l/m 3,8 km/h (1 Bft) S-SW 204 0 min 0,000 mm 0,0 UV-I 0 W/m 13,9 C 14,5 C 4,8 km/h (1 Bft) 96,15 %
09.06.2016 23:58 14,6 C 96 % 1013,5 hPa 0,0 l/m 3,3 km/h (1 Bft) S-SW 205 0 min 0,000 mm 0,0 UV-I 0 W/m 14,0 C 14,6 C 4,8 km/h (1 Bft) 100,00 %
09.06.2016 23:59 14,5 C 96 % 1013,5 hPa 0,0 l/m 3,8 km/h (1 Bft) S-SW 205 0 min 0,000 mm 0,0 UV-I 0 W/m 13,9 C 14,5 C 4,8 km/h (1 Bft) 92,31 %
_ Min-Zeit 04:42 00:03 17:34 - 20:28 - - - - - - 00:03 05:10 20:28 09:33
Minimum _ 14,4 C 80 % 1012,4 hPa - 0,0 km/h (0 Bft) - - - - - - 12,5 C 12,0 C 0,0 km/h (0 Bft) 85,71 %
_ Max-Zeit 14:02 21:20 00:00 08:05 01:10 - - 00:00 13:01 12:58 13:00 17:10 14:02 05:08 00:00
Maximum _ 16,8 C 96 % 1014,3 hPa 0,2 l/m 11,3 km/h
W-SW (2 Bft)
- - 0 min 0,178 mm 2,9 UV-I 397 W/m 15,1 C 16,8 C 16,1 km/h
S-SW (3 Bft)
100,00 %
Durchschnitt _ 15,2 C 91 % 1013,1 hPa #7,0 l/m 5,3 km/h (1 Bft) SW - #0 min. #1,168 mm 1,2 UV-I 128 W/m 13,8 C 14,9 C 7,8 km/h (2 Bft) 98,22 %